Wetterdaten: Freitag, 13.05.2022
Datum Zeit Temp. 2m Temp +5 cm Feuchte A. Luftdruck Regen Wind Richtung Richtung Sonnenschein UV Solar Taupunkt Windchill Windben
13.05.2022 00:00 8,6 C 5,0 C 80 % 1020,6 hPa 0,0 l/m 0,0 km/h (0 Bft) N 0 0 min 0,0 UV-I 0 W/m 5,3 C 8,6 C 0,0 km/h (0 Bft)
13.05.2022 00:01 8,6 C 5,0 C 80 % 1020,5 hPa 0,0 l/m 0,0 km/h (0 Bft) N 0 0 min 0,0 UV-I 0 W/m 5,3 C 8,6 C 0,0 km/h (0 Bft)
13.05.2022 00:02 8,5 C 5,0 C 80 % 1020,6 hPa 0,0 l/m 0,0 km/h (0 Bft) N 0 0 min 0,0 UV-I 0 W/m 5,3 C 8,5 C 0,0 km/h (0 Bft)
13.05.2022 00:03 8,4 C 5,0 C 80 % 1020,6 hPa 0,0 l/m 0,0 km/h (0 Bft) W-SW 247 0 min 0,0 UV-I 0 W/m 5,2 C 8,4 C 1,6 km/h (1 Bft)
13.05.2022 00:04 8,3 C 5,0 C 80 % 1020,4 hPa 0,0 l/m 0,0 km/h (0 Bft) W-SW 247 0 min 0,0 UV-I 0 W/m 5,1 C 8,3 C 1,6 km/h (1 Bft)
13.05.2022 00:05 8,3 C 4,4 C 80 % 1020,6 hPa 0,0 l/m 0,0 km/h (0 Bft) N 0 0 min 0,0 UV-I 0 W/m 5,1 C 8,3 C 0,0 km/h (0 Bft)
13.05.2022 00:06 8,2 C 4,4 C 81 % 1020,6 hPa 0,0 l/m 0,0 km/h (0 Bft) W-SW 247 0 min 0,0 UV-I 0 W/m 5,1 C 8,2 C 1,6 km/h (1 Bft)
13.05.2022 00:07 8,2 C 4,4 C 81 % 1020,6 hPa 0,0 l/m 0,0 km/h (0 Bft) W-SW 247 0 min 0,0 UV-I 0 W/m 5,1 C 8,2 C 1,6 km/h (1 Bft)
13.05.2022 00:08 8,1 C 4,4 C 81 % 1020,5 hPa 0,0 l/m 0,0 km/h (0 Bft) W-SW 247 0 min 0,0 UV-I 0 W/m 5,0 C 8,1 C 1,6 km/h (1 Bft)
13.05.2022 00:09 8,1 C 4,4 C 81 % 1020,5 hPa 0,0 l/m 0,0 km/h (0 Bft) W-SW 247 0 min 0,0 UV-I 0 W/m 5,0 C 8,1 C 1,6 km/h (1 Bft)
13.05.2022 00:10 8,1 C 4,4 C 82 % 1020,6 hPa 0,0 l/m 0,0 km/h (0 Bft) W-SW 247 0 min 0,0 UV-I 0 W/m 5,2 C 8,1 C 1,6 km/h (1 Bft)
13.05.2022 00:11 8,1 C 4,4 C 82 % 1020,5 hPa 0,0 l/m 0,0 km/h (0 Bft) W-SW 247 0 min 0,0 UV-I 0 W/m 5,2 C 8,1 C 1,6 km/h (1 Bft)
13.05.2022 00:12 8,1 C 4,4 C 82 % 1020,5 hPa 0,0 l/m 0,0 km/h (0 Bft) W-SW 247 0 min 0,0 UV-I 0 W/m 5,2 C 8,1 C 1,6 km/h (1 Bft)
13.05.2022 00:13 8,1 C 4,4 C 82 % 1020,5 hPa 0,0 l/m 0,0 km/h (0 Bft) W-SW 247 0 min 0,0 UV-I 0 W/m 5,2 C 8,1 C 1,6 km/h (1 Bft)
13.05.2022 00:14 8,0 C 4,4 C 82 % 1020,5 hPa 0,0 l/m 0,0 km/h (0 Bft) W-SW 247 0 min 0,0 UV-I 0 W/m 5,1 C 8,0 C 1,6 km/h (1 Bft)
13.05.2022 00:15 7,9 C 4,4 C 82 % 1020,6 hPa 0,0 l/m 0,0 km/h (0 Bft) N 0 0 min 0,0 UV-I 0 W/m 5,0 C 7,9 C 0,0 km/h (0 Bft)
13.05.2022 00:16 7,9 C 4,4 C 82 % 1020,5 hPa 0,0 l/m 0,0 km/h (0 Bft) N 0 0 min 0,0 UV-I 0 W/m 5,0 C 7,9 C 0,0 km/h (0 Bft)
13.05.2022 00:17 7,9 C 4,4 C 82 % 1020,6 hPa 0,0 l/m 0,0 km/h (0 Bft) N 0 0 min 0,0 UV-I 0 W/m 5,0 C 7,9 C 0,0 km/h (0 Bft)
13.05.2022 00:18 8,0 C 4,4 C 83 % 1020,5 hPa 0,0 l/m 0,0 km/h (0 Bft) N 0 0 min 0,0 UV-I 0 W/m 5,3 C 8,0 C 0,0 km/h (0 Bft)
13.05.2022 00:19 8,1 C 4,4 C 83 % 1020,6 hPa 0,0 l/m 1,6 km/h (1 Bft) W-SW 247 0 min 0,0 UV-I 0 W/m 5,4 C 8,1 C 1,6 km/h (1 Bft)
13.05.2022 00:20 8,1 C 4,4 C 82 % 1020,6 hPa 0,0 l/m 0,0 km/h (0 Bft) W-SW 247 0 min 0,0 UV-I 0 W/m 5,2 C 8,1 C 1,6 km/h (1 Bft)
13.05.2022 00:21 8,1 C 4,4 C 82 % 1020,5 hPa 0,0 l/m 0,0 km/h (0 Bft) W-SW 247 0 min 0,0 UV-I 0 W/m 5,2 C 8,1 C 1,6 km/h (1 Bft)
13.05.2022 00:22 8,2 C 4,4 C 82 % 1020,5 hPa 0,0 l/m 0,0 km/h (0 Bft) N 0 0 min 0,0 UV-I 0 W/m 5,3 C 8,2 C 0,0 km/h (0 Bft)
13.05.2022 00:23 8,2 C 4,4 C 82 % 1020,5 hPa 0,0 l/m 0,0 km/h (0 Bft) W-SW 247 0 min 0,0 UV-I 0 W/m 5,3 C 8,2 C 1,6 km/h (1 Bft)
13.05.2022 00:24 8,2 C 4,4 C 82 % 1020,6 hPa 0,0 l/m 1,6 km/h (1 Bft) W-SW 247 0 min 0,0 UV-I 0 W/m 5,3 C 8,2 C 3,2 km/h (1 Bft)
13.05.2022 00:25 8,2 C 4,4 C 82 % 1020,5 hPa 0,0 l/m 1,6 km/h (1 Bft) W-SW 247 0 min 0,0 UV-I 0 W/m 5,3 C 8,2 C 3,2 km/h (1 Bft)
13.05.2022 00:26 8,2 C 4,4 C 82 % 1020,6 hPa 0,0 l/m 1,6 km/h (1 Bft) W-SW 247 0 min 0,0 UV-I 0 W/m 5,3 C 8,2 C 3,2 km/h (1 Bft)
13.05.2022 00:27 8,2 C 4,4 C 81 % 1020,4 hPa 0,0 l/m 0,0 km/h (0 Bft) W-SW 247 0 min 0,0 UV-I 0 W/m 5,1 C 8,2 C 1,6 km/h (1 Bft)
13.05.2022 00:28 8,2 C 4,4 C 81 % 1020,5 hPa 0,0 l/m 0,0 km/h (0 Bft) N 0 0 min 0,0 UV-I 0 W/m 5,1 C 8,2 C 0,0 km/h (0 Bft)
13.05.2022 00:29 8,2 C 3,9 C 81 % 1020,5 hPa 0,0 l/m 0,0 km/h (0 Bft) N 0 0 min 0,0 UV-I 0 W/m 5,1 C 8,2 C 0,0 km/h (0 Bft)
13.05.2022 00:30 8,2 C 3,9 C 81 % 1020,5 hPa 0,0 l/m 0,0 km/h (0 Bft) N 0 0 min 0,0 UV-I 0 W/m 5,1 C 8,2 C 0,0 km/h (0 Bft)
13.05.2022 00:31 8,2 C 4,4 C 81 % 1020,5 hPa 0,0 l/m 0,0 km/h (0 Bft) W-SW 247 0 min 0,0 UV-I 0 W/m 5,1 C 8,2 C 1,6 km/h (1 Bft)
13.05.2022 00:32 8,2 C 4,4 C 81 % 1020,5 hPa 0,0 l/m 0,0 km/h (0 Bft) W-SW 247 0 min 0,0 UV-I 0 W/m 5,1 C 8,2 C 1,6 km/h (1 Bft)
13.05.2022 00:33 8,2 C 4,4 C 81 % 1020,5 hPa 0,0 l/m 0,0 km/h (0 Bft) N 0 0 min 0,0 UV-I 0 W/m 5,1 C 8,2 C 0,0 km/h (0 Bft)
13.05.2022 00:34 8,2 C 4,4 C 81 % 1020,5 hPa 0,0 l/m 0,0 km/h (0 Bft) W-SW 247 0 min 0,0 UV-I 0 W/m 5,1 C 8,2 C 1,6 km/h (1 Bft)
13.05.2022 00:35 8,2 C 4,4 C 81 % 1020,5 hPa 0,0 l/m 1,6 km/h (1 Bft) W-SW 247 0 min 0,0 UV-I 0 W/m 5,1 C 8,2 C 1,6 km/h (1 Bft)
13.05.2022 00:36 8,2 C 4,4 C 81 % 1020,5 hPa 0,0 l/m 1,6 km/h (1 Bft) W-SW 247 0 min 0,0 UV-I 0 W/m 5,1 C 8,2 C 1,6 km/h (1 Bft)
13.05.2022 00:37 8,2 C 4,4 C 81 % 1020,5 hPa 0,0 l/m 1,6 km/h (1 Bft) W-SW 247 0 min 0,0 UV-I 0 W/m 5,1 C 8,2 C 3,2 km/h (1 Bft)
13.05.2022 00:38 8,1 C 4,4 C 81 % 1020,5 hPa 0,0 l/m 1,6 km/h (1 Bft) W-SW 247 0 min 0,0 UV-I 0 W/m 5,0 C 8,1 C 3,2 km/h (1 Bft)
13.05.2022 00:39 8,1 C 4,4 C 81 % 1020,5 hPa 0,0 l/m 1,6 km/h (1 Bft) W-SW 247 0 min 0,0 UV-I 0 W/m 5,0 C 8,1 C 3,2 km/h (1 Bft)
13.05.2022 00:40 8,1 C 4,4 C 81 % 1020,5 hPa 0,0 l/m 1,6 km/h (1 Bft) W-SW 247 0 min 0,0 UV-I 0 W/m 5,0 C 8,1 C 3,2 km/h (1 Bft)
13.05.2022 00:41 8,1 C 4,4 C 81 % 1020,4 hPa 0,0 l/m 0,0 km/h (0 Bft) W-SW 247 0 min 0,0 UV-I 0 W/m 5,0 C 8,1 C 1,6 km/h (1 Bft)
13.05.2022 00:42 8,0 C 4,4 C 81 % 1020,4 hPa 0,0 l/m 0,0 km/h (0 Bft) W-SW 247 0 min 0,0 UV-I 0 W/m 4,9 C 8,0 C 1,6 km/h (1 Bft)
13.05.2022 00:43 7,9 C 4,4 C 81 % 1020,4 hPa 0,0 l/m 0,0 km/h (0 Bft) N 0 0 min 0,0 UV-I 0 W/m 4,8 C 7,9 C 0,0 km/h (0 Bft)
13.05.2022 00:44 7,9 C 4,4 C 82 % 1020,4 hPa 0,0 l/m 0,0 km/h (0 Bft) W-SW 247 0 min 0,0 UV-I 0 W/m 5,0 C 7,9 C 1,6 km/h (1 Bft)
13.05.2022 00:45 7,9 C 4,4 C 82 % 1020,4 hPa 0,0 l/m 0,0 km/h (0 Bft) W-SW 247 0 min 0,0 UV-I 0 W/m 5,0 C 7,9 C 1,6 km/h (1 Bft)
13.05.2022 00:46 8,0 C 4,4 C 82 % 1020,4 hPa 0,0 l/m 0,0 km/h (0 Bft) N 0 0 min 0,0 UV-I 0 W/m 5,1 C 8,0 C 0,0 km/h (0 Bft)
13.05.2022 00:47 7,9 C 4,4 C 82 % 1020,6 hPa 0,0 l/m 0,0 km/h (0 Bft) N 0 0 min 0,0 UV-I 0 W/m 5,0 C 7,9 C 0,0 km/h (0 Bft)
13.05.2022 00:48 7,9 C 4,4 C 82 % 1020,4 hPa 0,0 l/m 0,0 km/h (0 Bft) N 0 0 min 0,0 UV-I 0 W/m 5,0 C 7,9 C 0,0 km/h (0 Bft)
13.05.2022 00:49 7,8 C 4,4 C 81 % 1020,4 hPa 0,0 l/m 0,0 km/h (0 Bft) N 0 0 min 0,0 UV-I 0 W/m 4,7 C 7,8 C 0,0 km/h (0 Bft)
13.05.2022 00:50 7,7 C 3,9 C 81 % 1020,5 hPa 0,0 l/m 0,0 km/h (0 Bft) N 0 0 min 0,0 UV-I 0 W/m 4,7 C 7,7 C 0,0 km/h (0 Bft)
13.05.2022 00:51 7,7 C 3,9 C 82 % 1020,4 hPa 0,0 l/m 0,0 km/h (0 Bft) N 0 0 min 0,0 UV-I 0 W/m 4,8 C 7,7 C 0,0 km/h (0 Bft)
13.05.2022 00:52 7,6 C 3,9 C 82 % 1020,5 hPa 0,0 l/m 0,0 km/h (0 Bft) N 0 0 min 0,0 UV-I 0 W/m 4,7 C 7,6 C 0,0 km/h (0 Bft)
13.05.2022 00:53 7,4 C 3,9 C 82 % 1020,4 hPa 0,0 l/m 0,0 km/h (0 Bft) N 0 0 min 0,0 UV-I 0 W/m 4,5 C 7,4 C 0,0 km/h (0 Bft)
13.05.2022 00:54 7,4 C 3,9 C 83 % 1020,6 hPa 0,0 l/m 0,0 km/h (0 Bft) N 0 0 min 0,0 UV-I 0 W/m 4,7 C 7,4 C 0,0 km/h (0 Bft)
13.05.2022 00:55 7,3 C 3,9 C 83 % 1020,5 hPa 0,0 l/m 0,0 km/h (0 Bft) N 0 0 min 0,0 UV-I 0 W/m 4,6 C 7,3 C 0,0 km/h (0 Bft)
13.05.2022 00:56 7,2 C 3,3 C 83 % 1020,5 hPa 0,0 l/m 0,0 km/h (0 Bft) W-SW 247 0 min 0,0 UV-I 0 W/m 4,5 C 7,2 C 1,6 km/h (1 Bft)
13.05.2022 00:57 7,2 C 3,3 C 83 % 1020,5 hPa 0,0 l/m 0,0 km/h (0 Bft) W-SW 247 0 min 0,0 UV-I 0 W/m 4,5 C 7,2 C 1,6 km/h (1 Bft)
13.05.2022 00:58 7,1 C 3,9 C 83 % 1020,5 hPa 0,0 l/m 1,6 km/h (1 Bft) W-SW 247 0 min 0,0 UV-I 0 W/m 4,4 C 7,1 C 1,6 km/h (1 Bft)
13.05.2022 00:59 7,1 C 3,3 C 84 % 1020,5 hPa 0,0 l/m 1,6 km/h (1 Bft) W-SW 247 0 min 0,0 UV-I 0 W/m 4,6 C 7,1 C 3,2 km/h (1 Bft)
13.05.2022 01:00 7,0 C 3,3 C 84 % 1020,5 hPa 0,0 l/m 0,0 km/h (0 Bft) N 0 0 min 0,0 UV-I 0 W/m 4,5 C 7,0 C 0,0 km/h (0 Bft)
13.05.2022 01:01 6,9 C 3,3 C 84 % 1020,5 hPa 0,0 l/m 0,0 km/h (0 Bft) N 0 0 min 0,0 UV-I 0 W/m 4,4 C 6,9 C 0,0 km/h (0 Bft)
13.05.2022 01:02 6,9 C 3,3 C 84 % 1020,4 hPa 0,0 l/m 0,0 km/h (0 Bft) N 0 0 min 0,0 UV-I 0 W/m 4,4 C 6,9 C 0,0 km/h (0 Bft)
13.05.2022 01:03 6,9 C 3,3 C 84 % 1020,5 hPa 0,0 l/m 0,0 km/h (0 Bft) N 0 0 min 0,0 UV-I 0 W/m 4,4 C 6,9 C 0,0 km/h (0 Bft)
13.05.2022 01:04 6,9 C 3,3 C 84 % 1020,5 hPa 0,0 l/m 0,0 km/h (0 Bft) N 0 0 min 0,0 UV-I 0 W/m 4,4 C 6,9 C 0,0 km/h (0 Bft)
13.05.2022 01:05 6,8 C 3,3 C 84 % 1020,5 hPa 0,0 l/m 0,0 km/h (0 Bft) N 0 0 min 0,0 UV-I 0 W/m 4,3 C 6,8 C 0,0 km/h (0 Bft)
13.05.2022 01:06 6,8 C 3,3 C 84 % 1020,5 hPa 0,0 l/m 0,0 km/h (0 Bft) W-SW 247 0 min 0,0 UV-I 0 W/m 4,3 C 6,8 C 1,6 km/h (1 Bft)
13.05.2022 01:07 6,8 C 3,9 C 84 % 1020,5 hPa 0,0 l/m 0,0 km/h (0 Bft) W-SW 247 0 min 0,0 UV-I 0 W/m 4,3 C 6,8 C 1,6 km/h (1 Bft)
13.05.2022 01:08 6,8 C 3,9 C 85 % 1020,5 hPa 0,0 l/m 1,6 km/h (1 Bft) W-SW 247 0 min 0,0 UV-I 0 W/m 4,5 C 6,8 C 1,6 km/h (1 Bft)
13.05.2022 01:09 6,8 C 3,9 C 85 % 1020,5 hPa 0,0 l/m 0,0 km/h (0 Bft) W-SW 247 0 min 0,0 UV-I 0 W/m 4,5 C 6,8 C 1,6 km/h (1 Bft)
13.05.2022 01:10 6,9 C 3,9 C 85 % 1020,5 hPa 0,0 l/m 0,0 km/h (0 Bft) W-SW 247 0 min 0,0 UV-I 0 W/m 4,6 C 6,9 C 1,6 km/h (1 Bft)
13.05.2022 01:11 6,9 C 3,9 C 85 % 1020,6 hPa 0,0 l/m 1,6 km/h (1 Bft) W-SW 247 0 min 0,0 UV-I 0 W/m 4,6 C 6,9 C 3,2 km/h (1 Bft)
13.05.2022 01:12 6,9 C 3,9 C 85 % 1020,5 hPa 0,0 l/m 1,6 km/h (1 Bft) W-SW 247 0 min 0,0 UV-I 0 W/m 4,6 C 6,9 C 3,2 km/h (1 Bft)
13.05.2022 01:13 7,0 C 3,9 C 85 % 1020,6 hPa 0,0 l/m 1,6 km/h (1 Bft) W-SW 247 0 min 0,0 UV-I 0 W/m 4,7 C 7,0 C 3,2 km/h (1 Bft)
13.05.2022 01:14 7,1 C 4,4 C 85 % 1020,5 hPa 0,0 l/m 1,6 km/h (1 Bft) W-SW 247 0 min 0,0 UV-I 0 W/m 4,8 C 7,1 C 3,2 km/h (1 Bft)
13.05.2022 01:15 7,2 C 3,9 C 86 % 1020,5 hPa 0,0 l/m 0,0 km/h (0 Bft) W-SW 247 0 min 0,0 UV-I 0 W/m 5,0 C 7,2 C 1,6 km/h (1 Bft)
13.05.2022 01:16 7,2 C 3,9 C 85 % 1020,5 hPa 0,0 l/m 1,6 km/h (1 Bft) W-SW 247 0 min 0,0 UV-I 0 W/m 4,9 C 7,2 C 3,2 km/h (1 Bft)
13.05.2022 01:17 7,3 C 3,9 C 85 % 1020,5 hPa 0,0 l/m 1,6 km/h (1 Bft) W-SW 247 0 min 0,0 UV-I 0 W/m 4,9 C 7,3 C 1,6 km/h (1 Bft)
13.05.2022 01:18 7,3 C 3,9 C 85 % 1020,5 hPa 0,0 l/m 0,0 km/h (0 Bft) W-SW 247 0 min 0,0 UV-I 0 W/m 4,9 C 7,3 C 1,6 km/h (1 Bft)
13.05.2022 01:19 7,3 C 3,9 C 85 % 1020,5 hPa 0,0 l/m 0,0 km/h (0 Bft) W-SW 247 0 min 0,0 UV-I 0 W/m 4,9 C 7,3 C 1,6 km/h (1 Bft)
13.05.2022 01:20 7,4 C 3,3 C 84 % 1020,5 hPa 0,0 l/m 0,0 km/h (0 Bft) W-SW 247 0 min 0,0 UV-I 0 W/m 4,9 C 7,4 C 1,6 km/h (1 Bft)
13.05.2022 01:21 7,4 C 3,3 C 84 % 1020,5 hPa 0,0 l/m 0,0 km/h (0 Bft) W-SW 247 0 min 0,0 UV-I 0 W/m 4,9 C 7,4 C 3,2 km/h (1 Bft)
13.05.2022 01:22 7,4 C 3,3 C 84 % 1020,6 hPa 0,0 l/m 1,6 km/h (1 Bft) W-SW 247 0 min 0,0 UV-I 0 W/m 4,9 C 7,4 C 3,2 km/h (1 Bft)
13.05.2022 01:23 7,3 C 3,3 C 84 % 1020,4 hPa 0,0 l/m 1,6 km/h (1 Bft) W-SW 247 0 min 0,0 UV-I 0 W/m 4,8 C 7,3 C 3,2 km/h (1 Bft)
13.05.2022 01:24 7,3 C 3,3 C 84 % 1020,6 hPa 0,0 l/m 0,0 km/h (0 Bft) W-SW 247 0 min 0,0 UV-I 0 W/m 4,8 C 7,3 C 1,6 km/h (1 Bft)
13.05.2022 01:25 7,3 C 3,3 C 84 % 1020,4 hPa 0,0 l/m 0,0 km/h (0 Bft) W-SW 247 0 min 0,0 UV-I 0 W/m 4,8 C 7,3 C 1,6 km/h (1 Bft)
13.05.2022 01:26 7,2 C 3,3 C 83 % 1020,5 hPa 0,0 l/m 0,0 km/h (0 Bft) W-SW 247 0 min 0,0 UV-I 0 W/m 4,5 C 7,2 C 1,6 km/h (1 Bft)
13.05.2022 01:27 7,0 C 3,3 C 83 % 1020,5 hPa 0,0 l/m 0,0 km/h (0 Bft) N 0 0 min 0,0 UV-I 0 W/m 4,3 C 7,0 C 0,0 km/h (0 Bft)
13.05.2022 01:28 6,8 C 3,3 C 84 % 1020,5 hPa 0,0 l/m 0,0 km/h (0 Bft) W-SW 247 0 min 0,0 UV-I 0 W/m 4,3 C 6,8 C 1,6 km/h (1 Bft)
13.05.2022 01:29 6,7 C 3,3 C 83 % 1020,5 hPa 0,0 l/m 0,0 km/h (0 Bft) W-SW 247 0 min 0,0 UV-I 0 W/m 4,0 C 6,7 C 1,6 km/h (1 Bft)
13.05.2022 01:30 6,6 C 3,3 C 84 % 1020,4 hPa 0,0 l/m 0,0 km/h (0 Bft) N 0 0 min 0,0 UV-I 0 W/m 4,1 C 6,6 C 0,0 km/h (0 Bft)
13.05.2022 01:31 6,6 C 3,3 C 84 % 1020,4 hPa 0,0 l/m 1,6 km/h (1 Bft) W-SW 247 0 min 0,0 UV-I 0 W/m 4,1 C 6,6 C 1,6 km/h (1 Bft)
13.05.2022 01:32 6,6 C 3,9 C 84 % 1020,4 hPa 0,0 l/m 1,6 km/h (1 Bft) W-SW 247 0 min 0,0 UV-I 0 W/m 4,1 C 6,6 C 3,2 km/h (1 Bft)
13.05.2022 01:33 6,6 C 3,9 C 85 % 1020,6 hPa 0,0 l/m 1,6 km/h (1 Bft) W-SW 247 0 min 0,0 UV-I 0 W/m 4,3 C 6,6 C 1,6 km/h (1 Bft)
13.05.2022 01:34 6,6 C 3,9 C 85 % 1020,5 hPa 0,0 l/m 1,6 km/h (1 Bft) W-SW 247 0 min 0,0 UV-I 0 W/m 4,3 C 6,6 C 1,6 km/h (1 Bft)
13.05.2022 01:35 6,6 C 3,9 C 85 % 1020,5 hPa 0,0 l/m 0,0 km/h (0 Bft) W-SW 247 0 min 0,0 UV-I 0 W/m 4,3 C 6,6 C 1,6 km/h (1 Bft)
13.05.2022 01:36 6,7 C 3,9 C 85 % 1020,5 hPa 0,0 l/m 1,6 km/h (1 Bft) W-SW 247 0 min 0,0 UV-I 0 W/m 4,4 C 6,7 C 1,6 km/h (1 Bft)
13.05.2022 01:37 6,7 C 3,9 C 85 % 1020,5 hPa 0,0 l/m 0,0 km/h (0 Bft) W-SW 247 0 min 0,0 UV-I 0 W/m 4,4 C 6,7 C 1,6 km/h (1 Bft)
13.05.2022 01:38 6,7 C 3,3 C 85 % 1020,5 hPa 0,0 l/m 1,6 km/h (1 Bft) W-SW 247 0 min 0,0 UV-I 0 W/m 4,4 C 6,7 C 1,6 km/h (1 Bft)
13.05.2022 01:39 6,6 C 3,3 C 85 % 1020,4 hPa 0,0 l/m 1,6 km/h (1 Bft) W-SW 247 0 min 0,0 UV-I 0 W/m 4,3 C 6,6 C 1,6 km/h (1 Bft)
13.05.2022 01:40 6,5 C 3,3 C 85 % 1020,5 hPa 0,0 l/m 1,6 km/h (1 Bft) W-SW 247 0 min 0,0 UV-I 0 W/m 4,2 C 6,5 C 1,6 km/h (1 Bft)
13.05.2022 01:41 6,4 C 3,3 C 85 % 1020,4 hPa 0,0 l/m 1,6 km/h (1 Bft) W-SW 247 0 min 0,0 UV-I 0 W/m 4,1 C 6,4 C 1,6 km/h (1 Bft)
13.05.2022 01:42 6,4 C 2,8 C 85 % 1020,4 hPa 0,0 l/m 0,0 km/h (0 Bft) W-SW 247 0 min 0,0 UV-I 0 W/m 4,1 C 6,4 C 1,6 km/h (1 Bft)
13.05.2022 01:43 6,4 C 2,8 C 85 % 1020,5 hPa 0,0 l/m 0,0 km/h (0 Bft) N 0 0 min 0,0 UV-I 0 W/m 4,1 C 6,4 C 0,0 km/h (0 Bft)
13.05.2022 01:44 6,3 C 2,8 C 85 % 1020,4 hPa 0,0 l/m 0,0 km/h (0 Bft) N 0 0 min 0,0 UV-I 0 W/m 4,0 C 6,3 C 0,0 km/h (0 Bft)
13.05.2022 01:45 6,3 C 2,8 C 86 % 1020,5 hPa 0,0 l/m 0,0 km/h (0 Bft) N 0 0 min 0,0 UV-I 0 W/m 4,1 C 6,3 C 0,0 km/h (0 Bft)
13.05.2022 01:46 6,2 C 2,8 C 86 % 1020,4 hPa 0,0 l/m 0,0 km/h (0 Bft) N 0 0 min 0,0 UV-I 0 W/m 4,0 C 6,2 C 0,0 km/h (0 Bft)
13.05.2022 01:47 6,2 C 2,8 C 86 % 1020,5 hPa 0,0 l/m 0,0 km/h (0 Bft) N 0 0 min 0,0 UV-I 0 W/m 4,0 C 6,2 C 0,0 km/h (0 Bft)
13.05.2022 01:48 6,2 C 2,8 C 86 % 1020,5 hPa 0,0 l/m 0,0 km/h (0 Bft) N 0 0 min 0,0 UV-I 0 W/m 4,0 C 6,2 C 0,0 km/h (0 Bft)
13.05.2022 01:49 6,2 C 2,8 C 86 % 1020,4 hPa 0,0 l/m 0,0 km/h (0 Bft) N 0 0 min 0,0 UV-I 0 W/m 4,0 C 6,2 C 0,0 km/h (0 Bft)
13.05.2022 01:50 6,3 C 2,8 C 86 % 1020,4 hPa 0,0 l/m 0,0 km/h (0 Bft) N 0 0 min 0,0 UV-I 0 W/m 4,1 C 6,3 C 0,0 km/h (0 Bft)
13.05.2022 01:51 6,3 C 2,8 C 86 % 1020,5 hPa 0,0 l/m 0,0 km/h (0 Bft) N 0 0 min 0,0 UV-I 0 W/m 4,1 C 6,3 C 0,0 km/h (0 Bft)
13.05.2022 01:52 6,4 C 2,8 C 87 % 1020,4 hPa 0,0 l/m 0,0 km/h (0 Bft) N 0 0 min 0,0 UV-I 0 W/m 4,4 C 6,4 C 0,0 km/h (0 Bft)
13.05.2022 01:53 6,5 C 3,3 C 87 % 1020,5 hPa 0,0 l/m 0,0 km/h (0 Bft) N 0 0 min 0,0 UV-I 0 W/m 4,5 C 6,5 C 0,0 km/h (0 Bft)
13.05.2022 01:54 6,6 C 3,3 C 87 % 1020,4 hPa 0,0 l/m 0,0 km/h (0 Bft) N 0 0 min 0,0 UV-I 0 W/m 4,6 C 6,6 C 0,0 km/h (0 Bft)
13.05.2022 01:55 6,7 C 3,3 C 87 % 1020,4 hPa 0,0 l/m 0,0 km/h (0 Bft) N 0 0 min 0,0 UV-I 0 W/m 4,7 C 6,7 C 0,0 km/h (0 Bft)
13.05.2022 01:56 6,8 C 3,3 C 87 % 1020,4 hPa 0,0 l/m 0,0 km/h (0 Bft) N 0 0 min 0,0 UV-I 0 W/m 4,8 C 6,8 C 0,0 km/h (0 Bft)
13.05.2022 01:57 6,8 C 3,3 C 87 % 1020,4 hPa 0,0 l/m 0,0 km/h (0 Bft) N 0 0 min 0,0 UV-I 0 W/m 4,8 C 6,8 C 0,0 km/h (0 Bft)
13.05.2022 01:58 6,9 C 3,3 C 86 % 1020,4 hPa 0,0 l/m 0,0 km/h (0 Bft) N 0 0 min 0,0 UV-I 0 W/m 4,7 C 6,9 C 0,0 km/h (0 Bft)
13.05.2022 01:59 6,9 C 3,3 C 86 % 1020,4 hPa 0,0 l/m 0,0 km/h (0 Bft) N 0 0 min 0,0 UV-I 0 W/m 4,7 C 6,9 C 0,0 km/h (0 Bft)
13.05.2022 02:00 6,9 C 3,3 C 86 % 1020,4 hPa 0,0 l/m 0,0 km/h (0 Bft) N 0 0 min 0,0 UV-I 0 W/m 4,7 C 6,9 C 0,0 km/h (0 Bft)
13.05.2022 02:01 7,0 C 3,9 C 86 % 1020,3 hPa 0,0 l/m 0,0 km/h (0 Bft) N 0 0 min 0,0 UV-I 0 W/m 4,8 C 7,0 C 0,0 km/h (0 Bft)
13.05.2022 02:02 7,0 C 3,9 C 86 % 1020,4 hPa 0,0 l/m 0,0 km/h (0 Bft) N 0 0 min 0,0 UV-I 0 W/m 4,8 C 7,0 C 0,0 km/h (0 Bft)
13.05.2022 02:03 7,0 C 3,9 C 86 % 1020,4 hPa 0,0 l/m 0,0 km/h (0 Bft) N 0 0 min 0,0 UV-I 0 W/m 4,8 C 7,0 C 0,0 km/h (0 Bft)
13.05.2022 02:04 6,9 C 3,3 C 85 % 1020,4 hPa 0,0 l/m 0,0 km/h (0 Bft) N 0 0 min 0,0 UV-I 0 W/m 4,6 C 6,9 C 0,0 km/h (0 Bft)
13.05.2022 02:05 6,9 C 3,3 C 86 % 1020,5 hPa 0,0 l/m 0,0 km/h (0 Bft) N 0 0 min 0,0 UV-I 0 W/m 4,7 C 6,9 C 0,0 km/h (0 Bft)
13.05.2022 02:06 6,9 C 3,3 C 86 % 1020,5 hPa 0,0 l/m 0,0 km/h (0 Bft) N 0 0 min 0,0 UV-I 0 W/m 4,7 C 6,9 C 0,0 km/h (0 Bft)
13.05.2022 02:07 6,9 C 3,3 C 86 % 1020,5 hPa 0,0 l/m 0,0 km/h (0 Bft) N 0 0 min 0,0 UV-I 0 W/m 4,7 C 6,9 C 0,0 km/h (0 Bft)
13.05.2022 02:08 6,9 C 3,3 C 86 % 1020,4 hPa 0,0 l/m 0,0 km/h (0 Bft) N 0 0 min 0,0 UV-I 0 W/m 4,7 C 6,9 C 0,0 km/h (0 Bft)
13.05.2022 02:09 6,8 C 3,3 C 85 % 1020,5 hPa 0,0 l/m 0,0 km/h (0 Bft) N 0 0 min 0,0 UV-I 0 W/m 4,5 C 6,8 C 0,0 km/h (0 Bft)
13.05.2022 02:10 6,7 C 3,3 C 85 % 1020,5 hPa 0,0 l/m 0,0 km/h (0 Bft) N 0 0 min 0,0 UV-I 0 W/m 4,4 C 6,7 C 0,0 km/h (0 Bft)
13.05.2022 02:11 6,6 C 3,3 C 85 % 1020,4 hPa 0,0 l/m 0,0 km/h (0 Bft) N 0 0 min 0,0 UV-I 0 W/m 4,3 C 6,6 C 0,0 km/h (0 Bft)
13.05.2022 02:12 6,5 C 2,8 C 86 % 1020,4 hPa 0,0 l/m 0,0 km/h (0 Bft) N 0 0 min 0,0 UV-I 0 W/m 4,3 C 6,5 C 0,0 km/h (0 Bft)
13.05.2022 02:13 6,5 C 2,8 C 86 % 1020,4 hPa 0,0 l/m 0,0 km/h (0 Bft) N 0 0 min 0,0 UV-I 0 W/m 4,3 C 6,5 C 0,0 km/h (0 Bft)
13.05.2022 02:14 6,5 C 3,3 C 86 % 1020,4 hPa 0,0 l/m 0,0 km/h (0 Bft) N 0 0 min 0,0 UV-I 0 W/m 4,3 C 6,5 C 0,0 km/h (0 Bft)
13.05.2022 02:15 6,4 C 2,8 C 86 % 1020,4 hPa 0,0 l/m 0,0 km/h (0 Bft) N 0 0 min 0,0 UV-I 0 W/m 4,2 C 6,4 C 0,0 km/h (0 Bft)
13.05.2022 02:16 6,3 C 2,8 C 86 % 1020,5 hPa 0,0 l/m 0,0 km/h (0 Bft) N 0 0 min 0,0 UV-I 0 W/m 4,1 C 6,3 C 0,0 km/h (0 Bft)
13.05.2022 02:17 6,3 C 2,8 C 86 % 1020,5 hPa 0,0 l/m 0,0 km/h (0 Bft) N 0 0 min 0,0 UV-I 0 W/m 4,1 C 6,3 C 0,0 km/h (0 Bft)
13.05.2022 02:18 6,3 C 2,8 C 86 % 1020,4 hPa 0,0 l/m 0,0 km/h (0 Bft) N 0 0 min 0,0 UV-I 0 W/m 4,1 C 6,3 C 0,0 km/h (0 Bft)
13.05.2022 02:19 6,2 C 2,8 C 86 % 1020,5 hPa 0,0 l/m 0,0 km/h (0 Bft) N 0 0 min 0,0 UV-I 0 W/m 4,0 C 6,2 C 0,0 km/h (0 Bft)
13.05.2022 02:20 6,2 C 2,8 C 86 % 1020,6 hPa 0,0 l/m 0,0 km/h (0 Bft) N 0 0 min 0,0 UV-I 0 W/m 4,0 C 6,2 C 0,0 km/h (0 Bft)
13.05.2022 02:21 6,3 C 2,8 C 87 % 1020,5 hPa 0,0 l/m 0,0 km/h (0 Bft) N 0 0 min 0,0 UV-I 0 W/m 4,3 C 6,3 C 0,0 km/h (0 Bft)
13.05.2022 02:22 6,3 C 3,3 C 87 % 1020,6 hPa 0,0 l/m 0,0 km/h (0 Bft) N 0 0 min 0,0 UV-I 0 W/m 4,3 C 6,3 C 0,0 km/h (0 Bft)
13.05.2022 02:23 6,3 C 3,3 C 87 % 1020,5 hPa 0,0 l/m 0,0 km/h (0 Bft) N 0 0 min 0,0 UV-I 0 W/m 4,3 C 6,3 C 0,0 km/h (0 Bft)
13.05.2022 02:24 6,3 C 2,8 C 87 % 1020,5 hPa 0,0 l/m 0,0 km/h (0 Bft) N 0 0 min 0,0 UV-I 0 W/m 4,3 C 6,3 C 0,0 km/h (0 Bft)
13.05.2022 02:25 6,2 C 2,8 C 86 % 1020,6 hPa 0,0 l/m 0,0 km/h (0 Bft) N 0 0 min 0,0 UV-I 0 W/m 4,0 C 6,2 C 0,0 km/h (0 Bft)
13.05.2022 02:26 6,3 C 3,3 C 86 % 1020,5 hPa 0,0 l/m 0,0 km/h (0 Bft) N 0 0 min 0,0 UV-I 0 W/m 4,1 C 6,3 C 0,0 km/h (0 Bft)
13.05.2022 02:27 6,3 C 3,3 C 87 % 1020,5 hPa 0,0 l/m 0,0 km/h (0 Bft) N 0 0 min 0,0 UV-I 0 W/m 4,3 C 6,3 C 0,0 km/h (0 Bft)
13.05.2022 02:28 6,3 C 3,3 C 87 % 1020,5 hPa 0,0 l/m 0,0 km/h (0 Bft) N 0 0 min 0,0 UV-I 0 W/m 4,3 C 6,3 C 0,0 km/h (0 Bft)
13.05.2022 02:29 6,3 C 3,3 C 87 % 1020,5 hPa 0,0 l/m 0,0 km/h (0 Bft) N 0 0 min 0,0 UV-I 0 W/m 4,3 C 6,3 C 0,0 km/h (0 Bft)
13.05.2022 02:30 6,3 C 3,9 C 87 % 1020,4 hPa 0,0 l/m 0,0 km/h (0 Bft) N 0 0 min 0,0 UV-I 0 W/m 4,3 C 6,3 C 0,0 km/h (0 Bft)
13.05.2022 02:31 6,4 C 3,9 C 87 % 1020,5 hPa 0,0 l/m 0,0 km/h (0 Bft) N 0 0 min 0,0 UV-I 0 W/m 4,4 C 6,4 C 0,0 km/h (0 Bft)
13.05.2022 02:32 6,4 C 3,3 C 87 % 1020,5 hPa 0,0 l/m 0,0 km/h (0 Bft) N 0 0 min 0,0 UV-I 0 W/m 4,4 C 6,4 C 0,0 km/h (0 Bft)
13.05.2022 02:33 6,4 C 3,9 C 87 % 1020,5 hPa 0,0 l/m 0,0 km/h (0 Bft) N 0 0 min 0,0 UV-I 0 W/m 4,4 C 6,4 C 0,0 km/h (0 Bft)
13.05.2022 02:34 6,4 C 3,3 C 87 % 1020,5 hPa 0,0 l/m 0,0 km/h (0 Bft) N 0 0 min 0,0 UV-I 0 W/m 4,4 C 6,4 C 0,0 km/h (0 Bft)
13.05.2022 02:35 6,4 C 3,9 C 87 % 1020,4 hPa 0,0 l/m 0,0 km/h (0 Bft) N 0 0 min 0,0 UV-I 0 W/m 4,4 C 6,4 C 0,0 km/h (0 Bft)
13.05.2022 02:36 6,4 C 3,3 C 87 % 1020,5 hPa 0,0 l/m 0,0 km/h (0 Bft) N 0 0 min 0,0 UV-I 0 W/m 4,4 C 6,4 C 0,0 km/h (0 Bft)
13.05.2022 02:37 6,4 C 3,3 C 87 % 1020,5 hPa 0,0 l/m 0,0 km/h (0 Bft) N 0 0 min 0,0 UV-I 0 W/m 4,4 C 6,4 C 0,0 km/h (0 Bft)
13.05.2022 02:38 6,3 C 3,3 C 87 % 1020,4 hPa 0,0 l/m 0,0 km/h (0 Bft) N 0 0 min 0,0 UV-I 0 W/m 4,3 C 6,3 C 0,0 km/h (0 Bft)
13.05.2022 02:39 6,3 C 2,8 C 87 % 1020,4 hPa 0,0 l/m 0,0 km/h (0 Bft) N 0 0 min 0,0 UV-I 0 W/m 4,3 C 6,3 C 0,0 km/h (0 Bft)
13.05.2022 02:40 6,2 C 2,8 C 86 % 1020,5 hPa 0,0 l/m 0,0 km/h (0 Bft) N 0 0 min 0,0 UV-I 0 W/m 4,0 C 6,2 C 0,0 km/h (0 Bft)
13.05.2022 02:41 6,1 C 2,8 C 86 % 1020,5 hPa 0,0 l/m 0,0 km/h (0 Bft) N 0 0 min 0,0 UV-I 0 W/m 3,9 C 6,1 C 0,0 km/h (0 Bft)
13.05.2022 02:42 6,0 C 2,8 C 86 % 1020,4 hPa 0,0 l/m 0,0 km/h (0 Bft) N 0 0 min 0,0 UV-I 0 W/m 3,8 C 6,0 C 0,0 km/h (0 Bft)
13.05.2022 02:43 5,9 C 2,8 C 87 % 1020,6 hPa 0,0 l/m 0,0 km/h (0 Bft) N 0 0 min 0,0 UV-I 0 W/m 3,9 C 5,9 C 0,0 km/h (0 Bft)
13.05.2022 02:44 5,9 C 2,2 C 86 % 1020,5 hPa 0,0 l/m 0,0 km/h (0 Bft) N 0 0 min 0,0 UV-I 0 W/m 3,7 C 5,9 C 0,0 km/h (0 Bft)
13.05.2022 02:45 5,8 C 2,2 C 86 % 1020,4 hPa 0,0 l/m 0,0 km/h (0 Bft) N 0 0 min 0,0 UV-I 0 W/m 3,6 C 5,8 C 0,0 km/h (0 Bft)
13.05.2022 02:46 5,8 C 2,2 C 87 % 1020,5 hPa 0,0 l/m 0,0 km/h (0 Bft) N 0 0 min 0,0 UV-I 0 W/m 3,8 C 5,8 C 0,0 km/h (0 Bft)
13.05.2022 02:47 5,8 C 2,8 C 87 % 1020,5 hPa 0,0 l/m 0,0 km/h (0 Bft) N 0 0 min 0,0 UV-I 0 W/m 3,8 C 5,8 C 0,0 km/h (0 Bft)
13.05.2022 02:48 5,8 C 2,8 C 87 % 1020,5 hPa 0,0 l/m 0,0 km/h (0 Bft) N 0 0 min 0,0 UV-I 0 W/m 3,8 C 5,8 C 0,0 km/h (0 Bft)
13.05.2022 02:49 5,8 C 2,8 C 87 % 1020,4 hPa 0,0 l/m 0,0 km/h (0 Bft) N 0 0 min 0,0 UV-I 0 W/m 3,8 C 5,8 C 0,0 km/h (0 Bft)
13.05.2022 02:50 5,7 C 2,8 C 87 % 1020,5 hPa 0,0 l/m 0,0 km/h (0 Bft) N 0 0 min 0,0 UV-I 0 W/m 3,7 C 5,7 C 0,0 km/h (0 Bft)
13.05.2022 02:51 5,7 C 2,2 C 87 % 1020,5 hPa 0,0 l/m 0,0 km/h (0 Bft) N 0 0 min 0,0 UV-I 0 W/m 3,7 C 5,7 C 0,0 km/h (0 Bft)
13.05.2022 02:52 5,7 C 2,2 C 87 % 1020,5 hPa 0,0 l/m 0,0 km/h (0 Bft) N 0 0 min 0,0 UV-I 0 W/m 3,7 C 5,7 C 0,0 km/h (0 Bft)
13.05.2022 02:53 5,8 C 2,8 C 87 % 1020,6 hPa 0,0 l/m 0,0 km/h (0 Bft) N 0 0 min 0,0 UV-I 0 W/m 3,8 C 5,8 C 0,0 km/h (0 Bft)
13.05.2022 02:54 5,9 C 2,8 C 88 % 1020,5 hPa 0,0 l/m 0,0 km/h (0 Bft) N 0 0 min 0,0 UV-I 0 W/m 4,1 C 5,9 C 0,0 km/h (0 Bft)
13.05.2022 02:55 5,9 C 2,8 C 88 % 1020,5 hPa 0,0 l/m 0,0 km/h (0 Bft) N 0 0 min 0,0 UV-I 0 W/m 4,1 C 5,9 C 0,0 km/h (0 Bft)
13.05.2022 02:56 5,9 C 2,8 C 87 % 1020,6 hPa 0,0 l/m 0,0 km/h (0 Bft) N 0 0 min 0,0 UV-I 0 W/m 3,9 C 5,9 C 0,0 km/h (0 Bft)
13.05.2022 02:57 6,0 C 2,8 C 87 % 1020,4 hPa 0,0 l/m 0,0 km/h (0 Bft) N 0 0 min 0,0 UV-I 0 W/m 4,0 C 6,0 C 0,0 km/h (0 Bft)
13.05.2022 02:58 6,1 C 2,8 C 88 % 1020,5 hPa 0,0 l/m 0,0 km/h (0 Bft) N 0 0 min 0,0 UV-I 0 W/m 4,3 C 6,1 C 0,0 km/h (0 Bft)
13.05.2022 02:59 6,2 C 2,8 C 87 % 1020,4 hPa 0,0 l/m 0,0 km/h (0 Bft) N 0 0 min 0,0 UV-I 0 W/m 4,2 C 6,2 C 0,0 km/h (0 Bft)
13.05.2022 03:00 6,2 C 2,8 C 87 % 1020,4 hPa 0,0 l/m 0,0 km/h (0 Bft) N 0 0 min 0,0 UV-I 0 W/m 4,2 C 6,2 C 0,0 km/h (0 Bft)
13.05.2022 03:01 6,2 C 2,8 C 87 % 1020,5 hPa 0,0 l/m 0,0 km/h (0 Bft) N 0 0 min 0,0 UV-I 0 W/m 4,2 C 6,2 C 0,0 km/h (0 Bft)
13.05.2022 03:02 6,2 C 2,8 C 87 % 1020,5 hPa 0,0 l/m 0,0 km/h (0 Bft) N 0 0 min 0,0 UV-I 0 W/m 4,2 C 6,2 C 0,0 km/h (0 Bft)
13.05.2022 03:03 6,2 C 2,8 C 87 % 1020,5 hPa 0,0 l/m 0,0 km/h (0 Bft) N 0 0 min 0,0 UV-I 0 W/m 4,2 C 6,2 C 0,0 km/h (0 Bft)
13.05.2022 03:04 6,3 C 2,8 C 87 % 1020,5 hPa 0,0 l/m 0,0 km/h (0 Bft) N 0 0 min 0,0 UV-I 0 W/m 4,3 C 6,3 C 0,0 km/h (0 Bft)
13.05.2022 03:05 6,3 C 3,3 C 87 % 1020,6 hPa 0,0 l/m 0,0 km/h (0 Bft) N 0 0 min 0,0 UV-I 0 W/m 4,3 C 6,3 C 0,0 km/h (0 Bft)
13.05.2022 03:06 6,3 C 3,3 C 87 % 1020,5 hPa 0,0 l/m 0,0 km/h (0 Bft) N 0 0 min 0,0 UV-I 0 W/m 4,3 C 6,3 C 0,0 km/h (0 Bft)
13.05.2022 03:07 6,3 C 3,3 C 87 % 1020,6 hPa 0,0 l/m 0,0 km/h (0 Bft) N 0 0 min 0,0 UV-I 0 W/m 4,3 C 6,3 C 0,0 km/h (0 Bft)
13.05.2022 03:08 6,4 C 3,3 C 87 % 1020,6 hPa 0,0 l/m 0,0 km/h (0 Bft) N 0 0 min 0,0 UV-I 0 W/m 4,4 C 6,4 C 0,0 km/h (0 Bft)
13.05.2022 03:09 6,4 C 3,9 C 87 % 1020,6 hPa 0,0 l/m 0,0 km/h (0 Bft) N 0 0 min 0,0 UV-I 0 W/m 4,4 C 6,4 C 0,0 km/h (0 Bft)
13.05.2022 03:10 6,4 C 3,9 C 87 % 1020,6 hPa 0,0 l/m 0,0 km/h (0 Bft) N 0 0 min 0,0 UV-I 0 W/m 4,4 C 6,4 C 0,0 km/h (0 Bft)
13.05.2022 03:11 6,4 C 3,9 C 87 % 1020,7 hPa 0,0 l/m 0,0 km/h (0 Bft) N 0 0 min 0,0 UV-I 0 W/m 4,4 C 6,4 C 0,0 km/h (0 Bft)
13.05.2022 03:12 6,3 C 3,9 C 87 % 1020,6 hPa 0,0 l/m 0,0 km/h (0 Bft) N 0 0 min 0,0 UV-I 0 W/m 4,3 C 6,3 C 0,0 km/h (0 Bft)
13.05.2022 03:13 6,3 C 3,9 C 87 % 1020,6 hPa 0,0 l/m 0,0 km/h (0 Bft) N 0 0 min 0,0 UV-I 0 W/m 4,3 C 6,3 C 0,0 km/h (0 Bft)
13.05.2022 03:14 6,3 C 3,9 C 86 % 1020,6 hPa 0,0 l/m 0,0 km/h (0 Bft) N 0 0 min 0,0 UV-I 0 W/m 4,1 C 6,3 C 0,0 km/h (0 Bft)
13.05.2022 03:15 6,2 C 3,9 C 86 % 1020,7 hPa 0,0 l/m 0,0 km/h (0 Bft) N 0 0 min 0,0 UV-I 0 W/m 4,0 C 6,2 C 0,0 km/h (0 Bft)
13.05.2022 03:16 6,1 C 3,9 C 86 % 1020,6 hPa 0,0 l/m 0,0 km/h (0 Bft) N 0 0 min 0,0 UV-I 0 W/m 3,9 C 6,1 C 0,0 km/h (0 Bft)
13.05.2022 03:17 6,1 C 3,9 C 87 % 1020,6 hPa 0,0 l/m 0,0 km/h (0 Bft) N 0 0 min 0,0 UV-I 0 W/m 4,1 C 6,1 C 0,0 km/h (0 Bft)
13.05.2022 03:18 6,0 C 3,3 C 87 % 1020,6 hPa 0,0 l/m 0,0 km/h (0 Bft) N 0 0 min 0,0 UV-I 0 W/m 4,0 C 6,0 C 0,0 km/h (0 Bft)
13.05.2022 03:19 5,9 C 3,3 C 87 % 1020,6 hPa 0,0 l/m 0,0 km/h (0 Bft) N 0 0 min 0,0 UV-I 0 W/m 3,9 C 5,9 C 0,0 km/h (0 Bft)
13.05.2022 03:20 5,9 C 3,3 C 87 % 1020,6 hPa 0,0 l/m 0,0 km/h (0 Bft) N 0 0 min 0,0 UV-I 0 W/m 3,9 C 5,9 C 0,0 km/h (0 Bft)
13.05.2022 03:21 5,9 C 3,3 C 87 % 1020,6 hPa 0,0 l/m 0,0 km/h (0 Bft) N 0 0 min 0,0 UV-I 0 W/m 3,9 C 5,9 C 0,0 km/h (0 Bft)
13.05.2022 03:22 5,9 C 3,3 C 87 % 1020,5 hPa 0,0 l/m 0,0 km/h (0 Bft) N 0 0 min 0,0 UV-I 0 W/m 3,9 C 5,9 C 0,0 km/h (0 Bft)
13.05.2022 03:23 5,9 C 3,3 C 87 % 1020,6 hPa 0,0 l/m 0,0 km/h (0 Bft) N 0 0 min 0,0 UV-I 0 W/m 3,9 C 5,9 C 0,0 km/h (0 Bft)
13.05.2022 03:24 6,0 C 3,3 C 87 % 1020,6 hPa 0,0 l/m 0,0 km/h (0 Bft) N 0 0 min 0,0 UV-I 0 W/m 4,0 C 6,0 C 0,0 km/h (0 Bft)
13.05.2022 03:25 6,0 C 3,3 C 87 % 1020,6 hPa 0,0 l/m 0,0 km/h (0 Bft) N 0 0 min 0,0 UV-I 0 W/m 4,0 C 6,0 C 0,0 km/h (0 Bft)
13.05.2022 03:26 6,1 C 3,3 C 87 % 1020,6 hPa 0,0 l/m 0,0 km/h (0 Bft) N 0 0 min 0,0 UV-I 0 W/m 4,1 C 6,1 C 0,0 km/h (0 Bft)
13.05.2022 03:27 6,0 C 3,3 C 87 % 1020,6 hPa 0,0 l/m 0,0 km/h (0 Bft) N 0 0 min 0,0 UV-I 0 W/m 4,0 C 6,0 C 0,0 km/h (0 Bft)
13.05.2022 03:28 6,1 C 3,3 C 87 % 1020,6 hPa 0,0 l/m 0,0 km/h (0 Bft) N 0 0 min 0,0 UV-I 0 W/m 4,1 C 6,1 C 0,0 km/h (0 Bft)
13.05.2022 03:29 6,1 C 3,3 C 87 % 1020,6 hPa 0,0 l/m 0,0 km/h (0 Bft) N 0 0 min 0,0 UV-I 0 W/m 4,1 C 6,1 C 0,0 km/h (0 Bft)
13.05.2022 03:30 6,1 C 3,3 C 87 % 1020,5 hPa 0,0 l/m 0,0 km/h (0 Bft) N 0 0 min 0,0 UV-I 0 W/m 4,1 C 6,1 C 0,0 km/h (0 Bft)
13.05.2022 03:31 6,1 C 3,3 C 87 % 1020,6 hPa 0,0 l/m 0,0 km/h (0 Bft) N 0 0 min 0,0 UV-I 0 W/m 4,1 C 6,1 C 0,0 km/h (0 Bft)
13.05.2022 03:32 6,1 C 3,3 C 87 % 1020,5 hPa 0,0 l/m 0,0 km/h (0 Bft) N 0 0 min 0,0 UV-I 0 W/m 4,1 C 6,1 C 0,0 km/h (0 Bft)
13.05.2022 03:33 6,1 C 2,8 C 87 % 1020,6 hPa 0,0 l/m 0,0 km/h (0 Bft) N 0 0 min 0,0 UV-I 0 W/m 4,1 C 6,1 C 0,0 km/h (0 Bft)
13.05.2022 03:34 6,1 C 2,8 C 87 % 1020,4 hPa 0,0 l/m 0,0 km/h (0 Bft) N 0 0 min 0,0 UV-I 0 W/m 4,1 C 6,1 C 0,0 km/h (0 Bft)
13.05.2022 03:35 6,1 C 2,8 C 87 % 1020,5 hPa 0,0 l/m 0,0 km/h (0 Bft) N 0 0 min 0,0 UV-I 0 W/m 4,1 C 6,1 C 0,0 km/h (0 Bft)
13.05.2022 03:36 6,1 C 2,8 C 87 % 1020,6 hPa 0,0 l/m 0,0 km/h (0 Bft) N 0 0 min 0,0 UV-I 0 W/m 4,1 C 6,1 C 0,0 km/h (0 Bft)
13.05.2022 03:37 6,0 C 2,8 C 87 % 1020,5 hPa 0,0 l/m 0,0 km/h (0 Bft) N 0 0 min 0,0 UV-I 0 W/m 4,0 C 6,0 C 0,0 km/h (0 Bft)
13.05.2022 03:38 6,1 C 2,8 C 87 % 1020,6 hPa 0,0 l/m 0,0 km/h (0 Bft) N 0 0 min 0,0 UV-I 0 W/m 4,1 C 6,1 C 0,0 km/h (0 Bft)
13.05.2022 03:39 6,1 C 2,8 C 87 % 1020,6 hPa 0,0 l/m 0,0 km/h (0 Bft) N 0 0 min 0,0 UV-I 0 W/m 4,1 C 6,1 C 0,0 km/h (0 Bft)
13.05.2022 03:40 6,1 C 2,8 C 87 % 1020,6 hPa 0,0 l/m 0,0 km/h (0 Bft) N 0 0 min 0,0 UV-I 0 W/m 4,1 C 6,1 C 0,0 km/h (0 Bft)
13.05.2022 03:41 6,1 C 2,8 C 87 % 1020,6 hPa 0,0 l/m 0,0 km/h (0 Bft) N 0 0 min 0,0 UV-I 0 W/m 4,1 C 6,1 C 0,0 km/h (0 Bft)
13.05.2022 03:42 6,2 C 2,8 C 88 % 1020,6 hPa 0,0 l/m 0,0 km/h (0 Bft) N 0 0 min 0,0 UV-I 0 W/m 4,4 C 6,2 C 0,0 km/h (0 Bft)
13.05.2022 03:43 6,2 C 2,8 C 87 % 1020,6 hPa 0,0 l/m 0,0 km/h (0 Bft) N 0 0 min 0,0 UV-I 0 W/m 4,2 C 6,2 C 0,0 km/h (0 Bft)
13.05.2022 03:44 6,2 C 2,8 C 88 % 1020,6 hPa 0,0 l/m 0,0 km/h (0 Bft) N 0 0 min 0,0 UV-I 0 W/m 4,4 C 6,2 C 0,0 km/h (0 Bft)
13.05.2022 03:45 6,2 C 3,3 C 87 % 1020,6 hPa 0,0 l/m 0,0 km/h (0 Bft) N 0 0 min 0,0 UV-I 0 W/m 4,2 C 6,2 C 0,0 km/h (0 Bft)
13.05.2022 03:46 6,1 C 3,3 C 88 % 1020,6 hPa 0,0 l/m 0,0 km/h (0 Bft) N 0 0 min 0,0 UV-I 0 W/m 4,3 C 6,1 C 0,0 km/h (0 Bft)
13.05.2022 03:47 6,1 C 2,8 C 87 % 1020,6 hPa 0,0 l/m 0,0 km/h (0 Bft) N 0 0 min 0,0 UV-I 0 W/m 4,1 C 6,1 C 0,0 km/h (0 Bft)
13.05.2022 03:48 6,1 C 2,8 C 87 % 1020,6 hPa 0,0 l/m 0,0 km/h (0 Bft) N 0 0 min 0,0 UV-I 0 W/m 4,1 C 6,1 C 0,0 km/h (0 Bft)
13.05.2022 03:49 6,1 C 2,8 C 87 % 1020,6 hPa 0,0 l/m 0,0 km/h (0 Bft) N 0 0 min 0,0 UV-I 0 W/m 4,1 C 6,1 C 0,0 km/h (0 Bft)
13.05.2022 03:50 6,0 C 2,8 C 88 % 1020,6 hPa 0,0 l/m 0,0 km/h (0 Bft) N 0 0 min 0,0 UV-I 0 W/m 4,2 C 6,0 C 0,0 km/h (0 Bft)
13.05.2022 03:51 6,1 C 2,8 C 88 % 1020,6 hPa 0,0 l/m 0,0 km/h (0 Bft) N 0 0 min 0,0 UV-I 0 W/m 4,3 C 6,1 C 0,0 km/h (0 Bft)
13.05.2022 03:52 6,0 C 2,8 C 88 % 1020,6 hPa 0,0 l/m 0,0 km/h (0 Bft) N 0 0 min 0,0 UV-I 0 W/m 4,2 C 6,0 C 0,0 km/h (0 Bft)
13.05.2022 03:53 6,0 C 2,8 C 88 % 1020,6 hPa 0,0 l/m 0,0 km/h (0 Bft) N 0 0 min 0,0 UV-I 0 W/m 4,2 C 6,0 C 0,0 km/h (0 Bft)
13.05.2022 03:54 6,0 C 2,8 C 88 % 1020,7 hPa 0,0 l/m 0,0 km/h (0 Bft) N 0 0 min 0,0 UV-I 0 W/m 4,2 C 6,0 C 0,0 km/h (0 Bft)
13.05.2022 03:55 5,9 C 2,8 C 88 % 1020,7 hPa 0,0 l/m 0,0 km/h (0 Bft) N 0 0 min 0,0 UV-I 0 W/m 4,1 C 5,9 C 0,0 km/h (0 Bft)
13.05.2022 03:56 6,0 C 2,8 C 88 % 1020,7 hPa 0,0 l/m 0,0 km/h (0 Bft) N 0 0 min 0,0 UV-I 0 W/m 4,2 C 6,0 C 0,0 km/h (0 Bft)
13.05.2022 03:57 6,0 C 2,8 C 88 % 1020,6 hPa 0,0 l/m 0,0 km/h (0 Bft) N 0 0 min 0,0 UV-I 0 W/m 4,2 C 6,0 C 0,0 km/h (0 Bft)
13.05.2022 03:58 6,0 C 2,8 C 88 % 1020,5 hPa 0,0 l/m 0,0 km/h (0 Bft) N 0 0 min 0,0 UV-I 0 W/m 4,2 C 6,0 C 0,0 km/h (0 Bft)
13.05.2022 03:59 6,0 C 2,8 C 88 % 1020,6 hPa 0,0 l/m 0,0 km/h (0 Bft) N 0 0 min 0,0 UV-I 0 W/m 4,2 C 6,0 C 0,0 km/h (0 Bft)
13.05.2022 04:00 6,1 C 2,8 C 88 % 1020,7 hPa 0,0 l/m 0,0 km/h (0 Bft) N 0 0 min 0,0 UV-I 0 W/m 4,3 C 6,1 C 0,0 km/h (0 Bft)
13.05.2022 04:01 6,1 C 2,8 C 88 % 1020,7 hPa 0,0 l/m 0,0 km/h (0 Bft) N 0 0 min 0,0 UV-I 0 W/m 4,3 C 6,1 C 0,0 km/h (0 Bft)
13.05.2022 04:02 6,0 C 2,8 C 88 % 1020,6 hPa 0,0 l/m 0,0 km/h (0 Bft) N 0 0 min 0,0 UV-I 0 W/m 4,2 C 6,0 C 0,0 km/h (0 Bft)
13.05.2022 04:03 5,9 C 2,8 C 88 % 1020,6 hPa 0,0 l/m 0,0 km/h (0 Bft) N 0 0 min 0,0 UV-I 0 W/m 4,1 C 5,9 C 0,0 km/h (0 Bft)
13.05.2022 04:04 5,9 C 2,2 C 88 % 1020,6 hPa 0,0 l/m 0,0 km/h (0 Bft) N 0 0 min 0,0 UV-I 0 W/m 4,1 C 5,9 C 0,0 km/h (0 Bft)
13.05.2022 04:05 5,8 C 2,2 C 87 % 1020,7 hPa 0,0 l/m 0,0 km/h (0 Bft) N 0 0 min 0,0 UV-I 0 W/m 3,8 C 5,8 C 0,0 km/h (0 Bft)
13.05.2022 04:06 5,7 C 2,2 C 87 % 1020,7 hPa 0,0 l/m 0,0 km/h (0 Bft) N 0 0 min 0,0 UV-I 0 W/m 3,7 C 5,7 C 0,0 km/h (0 Bft)
13.05.2022 04:07 5,6 C 2,2 C 87 % 1020,6 hPa 0,0 l/m 0,0 km/h (0 Bft) N 0 0 min 0,0 UV-I 0 W/m 3,6 C 5,6 C 0,0 km/h (0 Bft)
13.05.2022 04:08 5,5 C 2,2 C 87 % 1020,7 hPa 0,0 l/m 0,0 km/h (0 Bft) W-SW 247 0 min 0,0 UV-I 0 W/m 3,5 C 5,5 C 1,6 km/h (1 Bft)
13.05.2022 04:09 5,4 C 2,2 C 87 % 1020,7 hPa 0,0 l/m 0,0 km/h (0 Bft) N 0 0 min 0,0 UV-I 0 W/m 3,4 C 5,4 C 0,0 km/h (0 Bft)
13.05.2022 04:10 5,4 C 2,2 C 87 % 1020,6 hPa 0,0 l/m 0,0 km/h (0 Bft) W-SW 247 0 min 0,0 UV-I 0 W/m 3,4 C 5,4 C 1,6 km/h (1 Bft)
13.05.2022 04:11 5,3 C 2,2 C 88 % 1020,6 hPa 0,0 l/m 1,6 km/h (1 Bft) W-SW 247 0 min 0,0 UV-I 0 W/m 3,5 C 5,3 C 1,6 km/h (1 Bft)
13.05.2022 04:12 5,3 C 2,2 C 88 % 1020,6 hPa 0,0 l/m 1,6 km/h (1 Bft) W-SW 247 0 min 0,0 UV-I 0 W/m 3,5 C 5,3 C 3,2 km/h (1 Bft)
13.05.2022 04:13 5,3 C 2,2 C 88 % 1020,6 hPa 0,0 l/m 1,6 km/h (1 Bft) W-SW 247 0 min 0,0 UV-I 0 W/m 3,5 C 5,3 C 3,2 km/h (1 Bft)
13.05.2022 04:14 5,3 C 2,2 C 88 % 1020,6 hPa 0,0 l/m 1,6 km/h (1 Bft) W-SW 247 0 min 0,0 UV-I 0 W/m 3,5 C 5,3 C 3,2 km/h (1 Bft)
13.05.2022 04:15 5,3 C 2,2 C 88 % 1020,6 hPa 0,0 l/m 1,6 km/h (1 Bft) W-SW 247 0 min 0,0 UV-I 0 W/m 3,5 C 5,3 C 3,2 km/h (1 Bft)
13.05.2022 04:16 5,2 C 1,7 C 88 % 1020,6 hPa 0,0 l/m 3,2 km/h (1 Bft) W-SW 247 0 min 0,0 UV-I 0 W/m 3,4 C 5,2 C 3,2 km/h (1 Bft)
13.05.2022 04:17 5,3 C 2,2 C 88 % 1020,6 hPa 0,0 l/m 3,2 km/h (1 Bft) W-SW 247 0 min 0,0 UV-I 0 W/m 3,5 C 5,3 C 3,2 km/h (1 Bft)
13.05.2022 04:18 5,2 C 2,2 C 88 % 1020,6 hPa 0,0 l/m 3,2 km/h (1 Bft) W-SW 247 0 min 0,0 UV-I 0 W/m 3,4 C 5,2 C 4,8 km/h (1 Bft)
13.05.2022 04:19 5,3 C 2,2 C 88 % 1020,6 hPa 0,0 l/m 3,2 km/h (1 Bft) W-SW 247 0 min 0,0 UV-I 0 W/m 3,5 C 5,3 C 4,8 km/h (1 Bft)
13.05.2022 04:20 5,3 C 2,2 C 88 % 1020,6 hPa 0,0 l/m 3,2 km/h (1 Bft) W-SW 247 0 min 0,0 UV-I 0 W/m 3,5 C 5,3 C 4,8 km/h (1 Bft)
13.05.2022 04:21 5,3 C 2,2 C 88 % 1020,7 hPa 0,0 l/m 1,6 km/h (1 Bft) W-SW 247 0 min 0,0 UV-I 0 W/m 3,5 C 5,3 C 3,2 km/h (1 Bft)
13.05.2022 04:22 5,3 C 2,2 C 88 % 1020,6 hPa 0,0 l/m 1,6 km/h (1 Bft) W-SW 247 0 min 0,0 UV-I 0 W/m 3,5 C 5,3 C 4,8 km/h (1 Bft)
13.05.2022 04:23 5,3 C 2,2 C 88 % 1020,6 hPa 0,0 l/m 3,2 km/h (1 Bft) W-SW 247 0 min 0,0 UV-I 0 W/m 3,5 C 5,3 C 4,8 km/h (1 Bft)
13.05.2022 04:24 5,3 C 2,2 C 88 % 1020,6 hPa 0,0 l/m 3,2 km/h (1 Bft) W-SW 247 0 min 0,0 UV-I 0 W/m 3,5 C 5,3 C 3,2 km/h (1 Bft)
13.05.2022 04:25 5,2 C 2,2 C 88 % 1020,6 hPa 0,0 l/m 3,2 km/h (1 Bft) W-SW 247 0 min 0,0 UV-I 0 W/m 3,4 C 5,2 C 3,2 km/h (1 Bft)
13.05.2022 04:26 5,2 C 2,2 C 88 % 1020,6 hPa 0,0 l/m 3,2 km/h (1 Bft) W-SW 247 0 min 0,0 UV-I 0 W/m 3,4 C 5,2 C 3,2 km/h (1 Bft)
13.05.2022 04:27 5,2 C 2,2 C 88 % 1020,6 hPa 0,0 l/m 3,2 km/h (1 Bft) W-SW 247 0 min 0,0 UV-I 0 W/m 3,4 C 5,2 C 4,8 km/h (1 Bft)
13.05.2022 04:28 5,2 C 2,2 C 88 % 1020,6 hPa 0,0 l/m 3,2 km/h (1 Bft) W-SW 247 0 min 0,0 UV-I 0 W/m 3,4 C 5,2 C 4,8 km/h (1 Bft)
13.05.2022 04:29 5,2 C 2,2 C 88 % 1020,6 hPa 0,0 l/m 3,2 km/h (1 Bft) W-SW 247 0 min 0,0 UV-I 0 W/m 3,4 C 5,2 C 3,2 km/h (1 Bft)
13.05.2022 04:30 5,3 C 2,2 C 88 % 1020,6 hPa 0,0 l/m 3,2 km/h (1 Bft) W-SW 247 0 min 0,0 UV-I 0 W/m 3,5 C 5,3 C 4,8 km/h (1 Bft)
13.05.2022 04:31 5,3 C 2,2 C 88 % 1020,6 hPa 0,0 l/m 1,6 km/h (1 Bft) W-SW 247 0 min 0,0 UV-I 0 W/m 3,5 C 5,3 C 3,2 km/h (1 Bft)
13.05.2022 04:32 5,3 C 1,7 C 89 % 1020,6 hPa 0,0 l/m 1,6 km/h (1 Bft) W-SW 247 0 min 0,0 UV-I 0 W/m 3,6 C 5,3 C 3,2 km/h (1 Bft)
13.05.2022 04:33 5,3 C 1,7 C 89 % 1020,6 hPa 0,0 l/m 1,6 km/h (1 Bft) W-SW 247 0 min 0,0 UV-I 0 W/m 3,6 C 5,3 C 3,2 km/h (1 Bft)
13.05.2022 04:34 5,3 C 1,7 C 89 % 1020,7 hPa 0,0 l/m 1,6 km/h (1 Bft) W-SW 247 0 min 0,0 UV-I 0 W/m 3,6 C 5,3 C 3,2 km/h (1 Bft)
13.05.2022 04:35 5,3 C 2,2 C 88 % 1020,8 hPa 0,0 l/m 3,2 km/h (1 Bft) W-SW 247 0 min 0,0 UV-I 0 W/m 3,5 C 5,3 C 4,8 km/h (1 Bft)
13.05.2022 04:36 5,2 C 1,7 C 88 % 1020,8 hPa 0,0 l/m 3,2 km/h (1 Bft) W-SW 247 0 min 0,0 UV-I 0 W/m 3,4 C 5,2 C 4,8 km/h (1 Bft)
13.05.2022 04:37 5,2 C 1,7 C 88 % 1020,7 hPa 0,0 l/m 1,6 km/h (1 Bft) W-SW 247 0 min 0,0 UV-I 0 W/m 3,4 C 5,2 C 3,2 km/h (1 Bft)
13.05.2022 04:38 5,2 C 1,7 C 88 % 1020,7 hPa 0,0 l/m 3,2 km/h (1 Bft) W-SW 247 0 min 0,0 UV-I 0 W/m 3,4 C 5,2 C 4,8 km/h (1 Bft)
13.05.2022 04:39 5,1 C 1,7 C 88 % 1020,7 hPa 0,0 l/m 3,2 km/h (1 Bft) W-SW 247 0 min 0,0 UV-I 0 W/m 3,3 C 5,1 C 3,2 km/h (1 Bft)
13.05.2022 04:40 5,0 C 1,7 C 88 % 1020,7 hPa 0,0 l/m 3,2 km/h (1 Bft) W-SW 247 0 min 0,0 UV-I 0 W/m 3,2 C 5,0 C 3,2 km/h (1 Bft)
13.05.2022 04:41 4,9 C 1,7 C 88 % 1020,8 hPa 0,0 l/m 3,2 km/h (1 Bft) W-SW 247 0 min 0,0 UV-I 0 W/m 3,1 C 4,9 C 3,2 km/h (1 Bft)
13.05.2022 04:42 4,9 C 1,7 C 88 % 1020,7 hPa 0,0 l/m 3,2 km/h (1 Bft) W-SW 247 0 min 0,0 UV-I 0 W/m 3,1 C 4,9 C 4,8 km/h (1 Bft)
13.05.2022 04:43 4,8 C 1,7 C 88 % 1020,8 hPa 0,0 l/m 3,2 km/h (1 Bft) W-SW 247 0 min 0,0 UV-I 0 W/m 3,0 C 4,8 C 3,2 km/h (1 Bft)
13.05.2022 04:44 4,8 C 1,7 C 88 % 1020,7 hPa 0,0 l/m 4,8 km/h (1 Bft) W-SW 247 0 min 0,0 UV-I 0 W/m 3,0 C 4,8 C 6,4 km/h (2 Bft)
13.05.2022 04:45 4,8 C 2,2 C 88 % 1020,7 hPa 0,0 l/m 4,8 km/h (1 Bft) W-SW 247 0 min 0,0 UV-I 0 W/m 3,0 C 4,8 C 4,8 km/h (1 Bft)
13.05.2022 04:46 4,9 C 2,2 C 89 % 1020,7 hPa 0,0 l/m 4,8 km/h (1 Bft) W-SW 247 0 min 0,0 UV-I 0 W/m 3,2 C 4,9 C 6,4 km/h (2 Bft)
13.05.2022 04:47 4,9 C 2,2 C 89 % 1020,7 hPa 0,0 l/m 4,8 km/h (1 Bft) W-SW 247 0 min 0,0 UV-I 0 W/m 3,2 C 4,9 C 4,8 km/h (1 Bft)
13.05.2022 04:48 5,0 C 2,8 C 89 % 1020,7 hPa 0,0 l/m 3,2 km/h (1 Bft) W-SW 247 0 min 0,0 UV-I 0 W/m 3,3 C 5,0 C 4,8 km/h (1 Bft)
13.05.2022 04:49 5,0 C 2,2 C 89 % 1020,6 hPa 0,0 l/m 3,2 km/h (1 Bft) W-SW 247 0 min 0,0 UV-I 0 W/m 3,3 C 5,0 C 4,8 km/h (1 Bft)
13.05.2022 04:50 5,1 C 2,2 C 89 % 1020,6 hPa 0,0 l/m 4,8 km/h (1 Bft) W-SW 247 0 min 0,0 UV-I 0 W/m 3,4 C 5,1 C 4,8 km/h (1 Bft)
13.05.2022 04:51 5,1 C 2,2 C 89 % 1020,6 hPa 0,0 l/m 4,8 km/h (1 Bft) W-SW 247 0 min 0,0 UV-I 0 W/m 3,4 C 5,1 C 4,8 km/h (1 Bft)
13.05.2022 04:52 5,1 C 2,2 C 89 % 1020,5 hPa 0,0 l/m 4,8 km/h (1 Bft) W-SW 247 0 min 0,0 UV-I 0 W/m 3,4 C 5,1 C 4,8 km/h (1 Bft)
13.05.2022 04:53 5,1 C 2,2 C 89 % 1020,6 hPa 0,0 l/m 4,8 km/h (1 Bft) W-SW 247 0 min 0,0 UV-I 0 W/m 3,4 C 5,1 C 6,4 km/h (2 Bft)
13.05.2022 04:54 5,2 C 2,2 C 89 % 1020,5 hPa 0,0 l/m 3,2 km/h (1 Bft) W-SW 247 0 min 0,0 UV-I 0 W/m 3,5 C 5,2 C 4,8 km/h (1 Bft)
13.05.2022 04:55 5,2 C 2,2 C 89 % 1020,5 hPa 0,0 l/m 4,8 km/h (1 Bft) W-SW 247 0 min 0,0 UV-I 0 W/m 3,5 C 5,2 C 6,4 km/h (2 Bft)
13.05.2022 04:56 5,2 C 2,8 C 89 % 1020,5 hPa 0,0 l/m 4,8 km/h (1 Bft) W-SW 247 0 min 0,0 UV-I 0 W/m 3,5 C 5,2 C 6,4 km/h (2 Bft)
13.05.2022 04:57 5,3 C 2,8 C 89 % 1020,5 hPa 0,0 l/m 4,8 km/h (1 Bft) SW 225 0 min 0,0 UV-I 0 W/m 3,6 C 5,3 C 8,0 km/h (2 Bft)
13.05.2022 04:58 5,3 C 2,8 C 89 % 1020,4 hPa 0,0 l/m 4,8 km/h (1 Bft) SW 225 0 min 0,0 UV-I 0 W/m 3,6 C 5,3 C 8,0 km/h (2 Bft)
13.05.2022 04:59 5,3 C 2,8 C 89 % 1020,3 hPa 0,0 l/m 4,8 km/h (1 Bft) SW 225 0 min 0,0 UV-I 0 W/m 3,6 C 5,3 C 6,4 km/h (2 Bft)
13.05.2022 05:00 5,3 C 2,8 C 89 % 1020,5 hPa 0,0 l/m 4,8 km/h (1 Bft) SW 225 0 min 0,0 UV-I 0 W/m 3,6 C 5,3 C 8,0 km/h (2 Bft)
13.05.2022 05:01 5,4 C 2,8 C 88 % 1020,4 hPa 0,0 l/m 4,8 km/h (1 Bft) SW 225 0 min 0,0 UV-I 0 W/m 3,6 C 5,4 C 6,4 km/h (2 Bft)
13.05.2022 05:02 5,4 C 2,8 C 88 % 1020,3 hPa 0,0 l/m 3,2 km/h (1 Bft) SW 225 0 min 0,0 UV-I 0 W/m 3,6 C 5,4 C 6,4 km/h (2 Bft)
13.05.2022 05:03 5,4 C 2,8 C 88 % 1020,3 hPa 0,0 l/m 4,8 km/h (1 Bft) SW 225 0 min 0,0 UV-I 0 W/m 3,6 C 5,4 C 6,4 km/h (2 Bft)
13.05.2022 05:04 5,4 C 3,3 C 88 % 1020,3 hPa 0,0 l/m 4,8 km/h (1 Bft) SW 225 0 min 0,0 UV-I 0 W/m 3,6 C 5,4 C 8,0 km/h (2 Bft)
13.05.2022 05:05 5,4 C 3,3 C 88 % 1020,3 hPa 0,0 l/m 4,8 km/h (1 Bft) SW 225 0 min 0,0 UV-I 0 W/m 3,6 C 5,4 C 6,4 km/h (2 Bft)
13.05.2022 05:06 5,5 C 3,3 C 88 % 1020,3 hPa 0,0 l/m 4,8 km/h (1 Bft) SW 225 0 min 0,0 UV-I 0 W/m 3,7 C 5,5 C 6,4 km/h (2 Bft)
13.05.2022 05:07 5,6 C 3,3 C 88 % 1020,3 hPa 0,0 l/m 6,4 km/h (2 Bft) SW 225 0 min 0,0 UV-I 0 W/m 3,8 C 5,6 C 8,0 km/h (2 Bft)
13.05.2022 05:08 5,6 C 3,3 C 88 % 1020,3 hPa 0,0 l/m 4,8 km/h (1 Bft) SW 225 0 min 0,0 UV-I 0 W/m 3,8 C 5,6 C 8,0 km/h (2 Bft)
13.05.2022 05:09 5,6 C 3,3 C 88 % 1020,2 hPa 0,0 l/m 3,2 km/h (1 Bft) SW 225 0 min 0,0 UV-I 0 W/m 3,8 C 5,6 C 4,8 km/h (1 Bft)
13.05.2022 05:10 5,6 C 3,3 C 87 % 1020,2 hPa 0,0 l/m 3,2 km/h (1 Bft) SW 225 0 min 0,0 UV-I 0 W/m 3,6 C 5,6 C 4,8 km/h (1 Bft)
13.05.2022 05:11 5,6 C 3,3 C 87 % 1020,3 hPa 0,0 l/m 3,2 km/h (1 Bft) SW 225 0 min 0,0 UV-I 0 W/m 3,6 C 5,6 C 4,8 km/h (1 Bft)
13.05.2022 05:12 5,6 C 2,8 C 87 % 1020,1 hPa 0,0 l/m 4,8 km/h (1 Bft) SW 225 0 min 0,0 UV-I 0 W/m 3,6 C 5,6 C 4,8 km/h (1 Bft)
13.05.2022 05:13 5,5 C 2,8 C 87 % 1020,2 hPa 0,0 l/m 4,8 km/h (1 Bft) SW 225 0 min 0,0 UV-I 0 W/m 3,5 C 5,5 C 6,4 km/h (2 Bft)
13.05.2022 05:14 5,5 C 2,8 C 87 % 1020,3 hPa 0,0 l/m 4,8 km/h (1 Bft) SW 225 0 min 0,0 UV-I 0 W/m 3,5 C 5,5 C 4,8 km/h (1 Bft)
13.05.2022 05:15 5,5 C 3,3 C 87 % 1020,2 hPa 0,0 l/m 3,2 km/h (1 Bft) SW 225 0 min 0,0 UV-I 0 W/m 3,5 C 5,5 C 4,8 km/h (1 Bft)
13.05.2022 05:16 5,5 C 3,3 C 87 % 1020,3 hPa 0,0 l/m 4,8 km/h (1 Bft) SW 225 0 min 0,0 UV-I 0 W/m 3,5 C 5,5 C 8,0 km/h (2 Bft)
13.05.2022 05:17 5,4 C 3,3 C 87 % 1020,3 hPa 0,0 l/m 4,8 km/h (1 Bft) SW 225 0 min 0,0 UV-I 0 W/m 3,4 C 5,4 C 6,4 km/h (2 Bft)
13.05.2022 05:18 5,5 C 3,3 C 87 % 1020,2 hPa 0,0 l/m 4,8 km/h (1 Bft) SW 225 0 min 0,0 UV-I 0 W/m 3,5 C 5,5 C 6,4 km/h (2 Bft)
13.05.2022 05:19 5,4 C 3,3 C 87 % 1020,2 hPa 0,0 l/m 3,2 km/h (1 Bft) SW 225 0 min 0,0 UV-I 0 W/m 3,4 C 5,4 C 4,8 km/h (1 Bft)
13.05.2022 05:20 5,4 C 2,8 C 87 % 1020,3 hPa 0,0 l/m 3,2 km/h (1 Bft) SW 225 0 min 0,0 UV-I 0 W/m 3,4 C 5,4 C 4,8 km/h (1 Bft)
13.05.2022 05:21 5,4 C 2,8 C 87 % 1020,2 hPa 0,0 l/m 4,8 km/h (1 Bft) SW 225 0 min 0,0 UV-I 0 W/m 3,4 C 5,4 C 6,4 km/h (2 Bft)
13.05.2022 05:22 5,3 C 2,8 C 87 % 1020,1 hPa 0,0 l/m 1,6 km/h (1 Bft) SW 225 0 min 0,0 UV-I 0 W/m 3,3 C 5,3 C 4,8 km/h (1 Bft)
13.05.2022 05:23 5,3 C 2,8 C 87 % 1020,2 hPa 0,0 l/m 3,2 km/h (1 Bft) SW 225 0 min 0,0 UV-I 0 W/m 3,3 C 5,3 C 6,4 km/h (2 Bft)
13.05.2022 05:24 5,3 C 2,8 C 87 % 1020,2 hPa 0,0 l/m 4,8 km/h (1 Bft) SW 225 0 min 0,0 UV-I 0 W/m 3,3 C 5,3 C 6,4 km/h (2 Bft)
13.05.2022 05:25 5,3 C 2,8 C 87 % 1020,3 hPa 0,0 l/m 3,2 km/h (1 Bft) SW 225 0 min 0,0 UV-I 0 W/m 3,3 C 5,3 C 6,4 km/h (2 Bft)
13.05.2022 05:26 5,3 C 2,8 C 87 % 1020,2 hPa 0,0 l/m 4,8 km/h (1 Bft) SW 225 0 min 0,0 UV-I 0 W/m 3,3 C 5,3 C 8,0 km/h (2 Bft)
13.05.2022 05:27 5,3 C 2,8 C 87 % 1020,3 hPa 0,0 l/m 4,8 km/h (1 Bft) SW 225 0 min 0,0 UV-I 0 W/m 3,3 C 5,3 C 8,0 km/h (2 Bft)
13.05.2022 05:28 5,4 C 2,8 C 87 % 1020,3 hPa 0,0 l/m 3,2 km/h (1 Bft) SW 225 0 min 0,0 UV-I 0 W/m 3,4 C 5,4 C 6,4 km/h (2 Bft)
13.05.2022 05:29 5,3 C 2,8 C 87 % 1020,4 hPa 0,0 l/m 4,8 km/h (1 Bft) SW 225 0 min 0,0 UV-I 0 W/m 3,3 C 5,3 C 6,4 km/h (2 Bft)
13.05.2022 05:30 5,3 C 2,8 C 87 % 1020,4 hPa 0,0 l/m 4,8 km/h (1 Bft) SW 225 0 min 0,0 UV-I 0 W/m 3,3 C 5,3 C 6,4 km/h (2 Bft)
13.05.2022 05:31 5,3 C 2,8 C 87 % 1020,3 hPa 0,0 l/m 6,4 km/h (2 Bft) SW 225 0 min 0,0 UV-I 0 W/m 3,3 C 5,3 C 8,0 km/h (2 Bft)
13.05.2022 05:32 5,3 C 2,8 C 87 % 1020,3 hPa 0,0 l/m 3,2 km/h (1 Bft) SW 225 0 min 0,0 UV-I 0 W/m 3,3 C 5,3 C 8,0 km/h (2 Bft)
13.05.2022 05:33 5,3 C 2,8 C 87 % 1020,2 hPa 0,0 l/m 3,2 km/h (1 Bft) SW 225 0 min 0,0 UV-I 0 W/m 3,3 C 5,3 C 4,8 km/h (1 Bft)
13.05.2022 05:34 5,3 C 2,8 C 87 % 1020,2 hPa 0,0 l/m 3,2 km/h (1 Bft) SW 225 0 min 0,0 UV-I 0 W/m 3,3 C 5,3 C 4,8 km/h (1 Bft)
13.05.2022 05:35 5,3 C 2,8 C 87 % 1020,2 hPa 0,0 l/m 4,8 km/h (1 Bft) SW 225 0 min 0,0 UV-I 0 W/m 3,3 C 5,3 C 8,0 km/h (2 Bft)
13.05.2022 05:36 5,3 C 2,8 C 87 % 1020,2 hPa 0,0 l/m 4,8 km/h (1 Bft) SW 225 0 min 0,0 UV-I 0 W/m 3,3 C 5,3 C 8,0 km/h (2 Bft)
13.05.2022 05:37 5,3 C 2,8 C 87 % 1020,3 hPa 0,0 l/m 4,8 km/h (1 Bft) SW 225 0 min 0,0 UV-I 0 W/m 3,3 C 5,3 C 6,4 km/h (2 Bft)
13.05.2022 05:38 5,4 C 3,3 C 87 % 1020,4 hPa 0,0 l/m 3,2 km/h (1 Bft) SW 225 0 min 0,0 UV-I 0 W/m 3,4 C 5,4 C 4,8 km/h (1 Bft)
13.05.2022 05:39 5,4 C 3,3 C 87 % 1020,4 hPa 0,0 l/m 4,8 km/h (1 Bft) SW 225 0 min 0,0 UV-I 0 W/m 3,4 C 5,4 C 8,0 km/h (2 Bft)
13.05.2022 05:40 5,4 C 3,3 C 87 % 1020,4 hPa 0,0 l/m 4,8 km/h (1 Bft) SW 225 0 min 0,0 UV-I 0 W/m 3,4 C 5,4 C 8,0 km/h (2 Bft)
13.05.2022 05:41 5,4 C 3,3 C 87 % 1020,5 hPa 0,0 l/m 6,4 km/h (2 Bft) SW 225 0 min 0,0 UV-I 0 W/m 3,4 C 5,4 C 9,7 km/h (2 Bft)
13.05.2022 05:42 5,4 C 3,3 C 87 % 1020,5 hPa 0,0 l/m 4,8 km/h (1 Bft) S-SW 202 0 min 0,0 UV-I 0 W/m 3,4 C 5,4 C 11,3 km/h (2 Bft)
13.05.2022 05:43 5,4 C 3,3 C 87 % 1020,5 hPa 0,0 l/m 3,2 km/h (1 Bft) S-SW 202 0 min 0,0 UV-I 0 W/m 3,4 C 5,4 C 11,3 km/h (2 Bft)
13.05.2022 05:44 5,4 C 3,3 C 87 % 1020,4 hPa 0,0 l/m 6,4 km/h (2 Bft) S-SW 202 0 min 0,0 UV-I 0 W/m 3,4 C 5,4 C 8,0 km/h (2 Bft)
13.05.2022 05:45 5,4 C 3,3 C 87 % 1020,5 hPa 0,0 l/m 4,8 km/h (1 Bft) S-SW 202 0 min 0,0 UV-I 0 W/m 3,4 C 5,4 C 6,4 km/h (2 Bft)
13.05.2022 05:46 5,4 C 3,9 C 88 % 1020,5 hPa 0,0 l/m 4,8 km/h (1 Bft) S-SW 202 0 min 0,0 UV-I 0 W/m 3,6 C 5,4 C 6,4 km/h (2 Bft)
13.05.2022 05:47 5,5 C 3,9 C 88 % 1020,5 hPa 0,0 l/m 3,2 km/h (1 Bft) S-SW 202 0 min 0,0 UV-I 0 W/m 3,7 C 5,5 C 4,8 km/h (1 Bft)
13.05.2022 05:48 5,5 C 3,9 C 88 % 1020,5 hPa 0,0 l/m 4,8 km/h (1 Bft) SW 225 0 min 0,0 UV-I 0 W/m 3,7 C 5,5 C 8,0 km/h (2 Bft)
13.05.2022 05:49 5,5 C 3,9 C 88 % 1020,6 hPa 0,0 l/m 3,2 km/h (1 Bft) SW 225 0 min 0,0 UV-I 0 W/m 3,7 C 5,5 C 4,8 km/h (1 Bft)
13.05.2022 05:50 5,6 C 3,9 C 88 % 1020,6 hPa 0,0 l/m 4,8 km/h (1 Bft) SW 225 0 min 0,0 UV-I 0 W/m 3,8 C 5,6 C 8,0 km/h (2 Bft)
13.05.2022 05:51 5,6 C 3,9 C 88 % 1020,5 hPa 0,0 l/m 3,2 km/h (1 Bft) SW 225 0 min 0,0 UV-I 0 W/m 3,8 C 5,6 C 3,2 km/h (1 Bft)
13.05.2022 05:52 5,6 C 3,9 C 88 % 1020,6 hPa 0,0 l/m 3,2 km/h (1 Bft) SW 225 0 min 0,0 UV-I 0 W/m 3,8 C 5,6 C 6,4 km/h (2 Bft)
13.05.2022 05:53 5,6 C 3,9 C 88 % 1020,6 hPa 0,0 l/m 4,8 km/h (1 Bft) SW 225 0 min 0,0 UV-I 5 W/m 3,8 C 5,6 C 6,4 km/h (2 Bft)
13.05.2022 05:54 5,6 C 3,9 C 88 % 1020,5 hPa 0,0 l/m 3,2 km/h (1 Bft) SW 225 0 min 0,0 UV-I 5 W/m 3,8 C 5,6 C 4,8 km/h (1 Bft)
13.05.2022 05:55 5,5 C 3,9 C 88 % 1020,5 hPa 0,0 l/m 3,2 km/h (1 Bft) SW 225 0 min 0,0 UV-I 5 W/m 3,7 C 5,5 C 4,8 km/h (1 Bft)
13.05.2022 05:56 5,5 C 3,9 C 88 % 1020,6 hPa 0,0 l/m 3,2 km/h (1 Bft) SW 225 0 min 0,0 UV-I 5 W/m 3,7 C 5,5 C 4,8 km/h (1 Bft)
13.05.2022 05:57 5,5 C 3,9 C 87 % 1020,6 hPa 0,0 l/m 3,2 km/h (1 Bft) SW 225 0 min 0,0 UV-I 5 W/m 3,5 C 5,5 C 4,8 km/h (1 Bft)
13.05.2022 05:58 5,4 C 3,9 C 87 % 1020,6 hPa 0,0 l/m 3,2 km/h (1 Bft) SW 225 0 min 0,0 UV-I 5 W/m 3,4 C 5,4 C 6,4 km/h (2 Bft)
13.05.2022 05:59 5,3 C 3,9 C 87 % 1020,5 hPa 0,0 l/m 1,6 km/h (1 Bft) SW 225 0 min 0,0 UV-I 7 W/m 3,3 C 5,3 C 4,8 km/h (1 Bft)
13.05.2022 06:00 5,3 C 3,9 C 87 % 1020,5 hPa 0,0 l/m 3,2 km/h (1 Bft) SW 225 0 min 0,0 UV-I 7 W/m 3,3 C 5,3 C 4,8 km/h (1 Bft)
13.05.2022 06:01 5,3 C 3,9 C 87 % 1020,5 hPa 0,0 l/m 3,2 km/h (1 Bft) SW 225 0 min 0,0 UV-I 7 W/m 3,3 C 5,3 C 4,8 km/h (1 Bft)
13.05.2022 06:02 5,2 C 3,3 C 87 % 1020,6 hPa 0,0 l/m 1,6 km/h (1 Bft) SW 225 0 min 0,0 UV-I 9 W/m 3,2 C 5,2 C 3,2 km/h (1 Bft)
13.05.2022 06:03 5,2 C 3,3 C 87 % 1020,6 hPa 0,0 l/m 3,2 km/h (1 Bft) SW 225 0 min 0,0 UV-I 9 W/m 3,2 C 5,2 C 4,8 km/h (1 Bft)
13.05.2022 06:04 5,2 C 3,3 C 87 % 1020,6 hPa 0,0 l/m 3,2 km/h (1 Bft) SW 225 0 min 0,0 UV-I 9 W/m 3,2 C 5,2 C 4,8 km/h (1 Bft)
13.05.2022 06:05 5,2 C 3,3 C 88 % 1020,6 hPa 0,0 l/m 3,2 km/h (1 Bft) SW 225 0 min 0,0 UV-I 9 W/m 3,4 C 5,2 C 4,8 km/h (1 Bft)
13.05.2022 06:06 5,1 C 3,3 C 88 % 1020,6 hPa 0,0 l/m 3,2 km/h (1 Bft) SW 225 0 min 0,0 UV-I 11 W/m 3,3 C 5,1 C 4,8 km/h (1 Bft)
13.05.2022 06:07 5,1 C 3,3 C 88 % 1020,5 hPa 0,0 l/m 3,2 km/h (1 Bft) SW 225 0 min 0,0 UV-I 11 W/m 3,3 C 5,1 C 4,8 km/h (1 Bft)
13.05.2022 06:08 5,1 C 3,3 C 88 % 1020,6 hPa 0,0 l/m 4,8 km/h (1 Bft) SW 225 0 min 0,0 UV-I 11 W/m 3,3 C 5,1 C 4,8 km/h (1 Bft)
13.05.2022 06:09 5,1 C 3,3 C 88 % 1020,5 hPa 0,0 l/m 1,6 km/h (1 Bft) SW 225 0 min 0,0 UV-I 11 W/m 3,3 C 5,1 C 3,2 km/h (1 Bft)
13.05.2022 06:10 5,1 C 2,8 C 88 % 1020,5 hPa 0,0 l/m 3,2 km/h (1 Bft) SW 225 0 min 0,0 UV-I 12 W/m 3,3 C 5,1 C 3,2 km/h (1 Bft)
13.05.2022 06:11 5,1 C 3,3 C 88 % 1020,6 hPa 0,0 l/m 3,2 km/h (1 Bft) SW 225 0 min 0,0 UV-I 12 W/m 3,3 C 5,1 C 4,8 km/h (1 Bft)
13.05.2022 06:12 5,2 C 2,8 C 88 % 1020,6 hPa 0,0 l/m 4,8 km/h (1 Bft) SW 225 0 min 0,0 UV-I 12 W/m 3,4 C 5,2 C 6,4 km/h (2 Bft)
13.05.2022 06:13 5,3 C 3,3 C 88 % 1020,6 hPa 0,0 l/m 4,8 km/h (1 Bft) SW 225 0 min 0,0 UV-I 12 W/m 3,5 C 5,3 C 8,0 km/h (2 Bft)
13.05.2022 06:14 5,3 C 3,3 C 88 % 1020,5 hPa 0,0 l/m 3,2 km/h (1 Bft) SW 225 0 min 0,0 UV-I 14 W/m 3,5 C 5,3 C 3,2 km/h (1 Bft)
13.05.2022 06:15 5,3 C 3,3 C 88 % 1020,6 hPa 0,0 l/m 3,2 km/h (1 Bft) SW 225 0 min 0,0 UV-I 14 W/m 3,5 C 5,3 C 4,8 km/h (1 Bft)
13.05.2022 06:16 5,2 C 2,8 C 88 % 1020,5 hPa 0,0 l/m 4,8 km/h (1 Bft) SW 225 0 min 0,0 UV-I 14 W/m 3,4 C 5,2 C 6,4 km/h (2 Bft)
13.05.2022 06:17 5,3 C 2,8 C 88 % 1020,6 hPa 0,0 l/m 3,2 km/h (1 Bft) SW 225 0 min 0,0 UV-I 14 W/m 3,5 C 5,3 C 4,8 km/h (1 Bft)
13.05.2022 06:18 5,3 C 3,3 C 88 % 1020,5 hPa 0,0 l/m 3,2 km/h (1 Bft) SW 225 0 min 0,0 UV-I 15 W/m 3,5 C 5,3 C 3,2 km/h (1 Bft)
13.05.2022 06:19 5,4 C 3,3 C 88 % 1020,6 hPa 0,0 l/m 1,6 km/h (1 Bft) SW 225 0 min 0,0 UV-I 16 W/m 3,6 C 5,4 C 3,2 km/h (1 Bft)
13.05.2022 06:20 5,4 C 2,8 C 88 % 1020,6 hPa 0,0 l/m 1,6 km/h (1 Bft) SW 225 0 min 0,0 UV-I 16 W/m 3,6 C 5,4 C 4,8 km/h (1 Bft)
13.05.2022 06:21 5,4 C 3,3 C 88 % 1020,5 hPa 0,0 l/m 3,2 km/h (1 Bft) SW 225 0 min 0,0 UV-I 16 W/m 3,6 C 5,4 C 4,8 km/h (1 Bft)
13.05.2022 06:22 5,4 C 3,3 C 88 % 1020,5 hPa 0,0 l/m 1,6 km/h (1 Bft) SW 225 0 min 0,0 UV-I 18 W/m 3,6 C 5,4 C 4,8 km/h (1 Bft)
13.05.2022 06:23 5,5 C 2,8 C 88 % 1020,6 hPa 0,0 l/m 3,2 km/h (1 Bft) SW 225 0 min 0,0 UV-I 18 W/m 3,7 C 5,5 C 4,8 km/h (1 Bft)
13.05.2022 06:24 5,4 C 3,3 C 88 % 1020,6 hPa 0,0 l/m 3,2 km/h (1 Bft) SW 225 0 min 0,0 UV-I 18 W/m 3,6 C 5,4 C 4,8 km/h (1 Bft)
13.05.2022 06:25 5,5 C 3,3 C 87 % 1020,6 hPa 0,0 l/m 1,6 km/h (1 Bft) SW 225 0 min 0,0 UV-I 18 W/m 3,5 C 5,5 C 3,2 km/h (1 Bft)
13.05.2022 06:26 5,5 C 2,8 C 87 % 1020,7 hPa 0,0 l/m 3,2 km/h (1 Bft) SW 225 0 min 0,0 UV-I 19 W/m 3,5 C 5,5 C 3,2 km/h (1 Bft)
13.05.2022 06:27 5,6 C 2,8 C 87 % 1020,7 hPa 0,0 l/m 4,8 km/h (1 Bft) SW 225 0 min 0,0 UV-I 19 W/m 3,6 C 5,6 C 6,4 km/h (2 Bft)
13.05.2022 06:28 5,6 C 2,8 C 87 % 1020,6 hPa 0,0 l/m 1,6 km/h (1 Bft) SW 225 0 min 0,0 UV-I 21 W/m 3,6 C 5,6 C 3,2 km/h (1 Bft)
13.05.2022 06:29 5,6 C 2,8 C 87 % 1020,6 hPa 0,0 l/m 0,0 km/h (0 Bft) SW 225 0 min 0,0 UV-I 21 W/m 3,6 C 5,6 C 1,6 km/h (1 Bft)
13.05.2022 06:30 5,6 C 2,8 C 87 % 1020,6 hPa 0,0 l/m 1,6 km/h (1 Bft) SW 225 0 min 0,0 UV-I 23 W/m 3,6 C 5,6 C 4,8 km/h (1 Bft)
13.05.2022 06:31 5,6 C 2,8 C 87 % 1020,6 hPa 0,0 l/m 3,2 km/h (1 Bft) SW 225 0 min 0,0 UV-I 25 W/m 3,6 C 5,6 C 4,8 km/h (1 Bft)
13.05.2022 06:32 5,6 C 2,8 C 87 % 1020,6 hPa 0,0 l/m 4,8 km/h (1 Bft) SW 225 0 min 0,0 UV-I 25 W/m 3,6 C 5,6 C 6,4 km/h (2 Bft)
13.05.2022 06:33 5,6 C 2,8 C 87 % 1020,6 hPa 0,0 l/m 3,2 km/h (1 Bft) SW 225 0 min 0,0 UV-I 26 W/m 3,6 C 5,6 C 4,8 km/h (1 Bft)
13.05.2022 06:34 5,6 C 2,8 C 87 % 1020,6 hPa 0,0 l/m 1,6 km/h (1 Bft) SW 225 0 min 0,0 UV-I 28 W/m 3,6 C 5,6 C 4,8 km/h (1 Bft)
13.05.2022 06:35 5,6 C 2,8 C 87 % 1020,7 hPa 0,0 l/m 3,2 km/h (1 Bft) SW 225 0 min 0,0 UV-I 29 W/m 3,6 C 5,6 C 3,2 km/h (1 Bft)
13.05.2022 06:36 5,6 C 2,8 C 87 % 1020,6 hPa 0,0 l/m 3,2 km/h (1 Bft) SW 225 0 min 0,0 UV-I 32 W/m 3,6 C 5,6 C 6,4 km/h (2 Bft)
13.05.2022 06:37 5,7 C 2,8 C 87 % 1020,6 hPa 0,0 l/m 4,8 km/h (1 Bft) SW 225 0 min 0,0 UV-I 32 W/m 3,7 C 5,7 C 6,4 km/h (2 Bft)
13.05.2022 06:38 5,7 C 3,3 C 87 % 1020,5 hPa 0,0 l/m 3,2 km/h (1 Bft) SW 225 0 min 0,0 UV-I 33 W/m 3,7 C 5,7 C 6,4 km/h (2 Bft)
13.05.2022 06:39 5,7 C 3,3 C 86 % 1020,6 hPa 0,0 l/m 4,8 km/h (1 Bft) SW 225 0 min 0,0 UV-I 35 W/m 3,5 C 5,7 C 6,4 km/h (2 Bft)
13.05.2022 06:40 5,7 C 3,3 C 86 % 1020,6 hPa 0,0 l/m 4,8 km/h (1 Bft) SW 225 0 min 0,0 UV-I 37 W/m 3,5 C 5,7 C 6,4 km/h (2 Bft)
13.05.2022 06:41 5,8 C 3,3 C 86 % 1020,7 hPa 0,0 l/m 4,8 km/h (1 Bft) SW 225 0 min 0,0 UV-I 40 W/m 3,6 C 5,8 C 6,4 km/h (2 Bft)
13.05.2022 06:42 5,8 C 3,3 C 86 % 1020,7 hPa 0,0 l/m 4,8 km/h (1 Bft) SW 225 0 min 0,0 UV-I 40 W/m 3,6 C 5,8 C 6,4 km/h (2 Bft)
13.05.2022 06:43 5,9 C 3,3 C 86 % 1020,7 hPa 0,0 l/m 4,8 km/h (1 Bft) SW 225 0 min 0,0 UV-I 42 W/m 3,7 C 5,9 C 6,4 km/h (2 Bft)
13.05.2022 06:44 5,9 C 3,9 C 86 % 1020,7 hPa 0,0 l/m 4,8 km/h (1 Bft) SW 225 0 min 0,0 UV-I 44 W/m 3,7 C 5,9 C 6,4 km/h (2 Bft)
13.05.2022 06:46 6,0 C 3,9 C 85 % 1020,8 hPa 0,0 l/m 2,7 km/h (1 Bft) SW 221 0 min 0,0 UV-I 46 W/m 3,7 C 6,0 C 3,2 km/h (1 Bft)
13.05.2022 06:48 6,1 C 3,9 C 85 % 1020,8 hPa 0,0 l/m 2,8 km/h (1 Bft) SW 221 0 min 0,0 UV-I 48 W/m 3,8 C 6,1 C 4,8 km/h (1 Bft)
13.05.2022 06:50 6,1 C 3,9 C 85 % 1020,9 hPa 0,0 l/m 1,8 km/h (1 Bft) SW 221 0 min 0,0 UV-I 52 W/m 3,8 C 6,1 C 3,2 km/h (1 Bft)
13.05.2022 06:52 6,2 C 3,9 C 85 % 1021,0 hPa 0,0 l/m 2,3 km/h (1 Bft) SW 221 0 min 0,0 UV-I 51 W/m 3,9 C 6,2 C 4,8 km/h (1 Bft)
13.05.2022 06:54 6,2 C 3,9 C 85 % 1020,9 hPa 0,0 l/m 3,3 km/h (1 Bft) SW 221 0 min 0,0 UV-I 57 W/m 3,9 C 6,2 C 6,4 km/h (2 Bft)
13.05.2022 06:56 6,3 C 4,4 C 85 % 1021,0 hPa 0,0 l/m 4,0 km/h (1 Bft) SW 221 0 min 0,0 UV-I 59 W/m 4,0 C 6,3 C 4,8 km/h (1 Bft)
13.05.2022 06:58 6,3 C 4,4 C 85 % 1020,9 hPa 0,0 l/m 4,7 km/h (1 Bft) SW 221 0 min 0,0 UV-I 61 W/m 4,0 C 6,3 C 6,4 km/h (2 Bft)
13.05.2022 07:00 6,4 C 4,4 C 85 % 1020,9 hPa 0,0 l/m 5,5 km/h (1 Bft) SW 221 0 min 0,0 UV-I 65 W/m 4,1 C 6,4 C 8,0 km/h (2 Bft)
13.05.2022 07:01 6,4 C 5,0 C 85 % 1020,9 hPa 0,0 l/m 6,4 km/h (2 Bft) S-SW 202 0 min 0,0 UV-I 70 W/m 4,1 C 6,4 C 8,0 km/h (2 Bft)
13.05.2022 07:04 6,6 C 5,0 C 84 % 1021,0 hPa 0,0 l/m 4,9 km/h (1 Bft) S-SW 207 0 min 0,0 UV-I 77 W/m 4,1 C 6,6 C 6,4 km/h (2 Bft)
13.05.2022 07:06 6,6 C 5,0 C 84 % 1021,1 hPa 0,0 l/m 3,6 km/h (1 Bft) S-SW 207 0 min 0,0 UV-I 84 W/m 4,1 C 6,6 C 4,8 km/h (1 Bft)
13.05.2022 07:08 6,7 C 5,6 C 84 % 1021,2 hPa 0,0 l/m 4,1 km/h (1 Bft) S-SW 207 0 min 0,0 UV-I 91 W/m 4,2 C 6,7 C 6,4 km/h (2 Bft)
13.05.2022 07:10 6,8 C 5,6 C 84 % 1021,2 hPa 0,0 l/m 1,8 km/h (1 Bft) S-SW 207 0 min 0,0 UV-I 96 W/m 4,3 C 6,8 C 4,8 km/h (1 Bft)
13.05.2022 07:12 6,8 C 5,6 C 84 % 1021,2 hPa 0,0 l/m 3,4 km/h (1 Bft) S-SW 207 0 min 0,0 UV-I 89 W/m 4,3 C 6,8 C 6,4 km/h (2 Bft)
13.05.2022 07:14 6,8 C 5,6 C 84 % 1021,2 hPa 0,0 l/m 5,5 km/h (1 Bft) S-SW 207 0 min 0,0 UV-I 94 W/m 4,3 C 6,8 C 9,7 km/h (2 Bft)
13.05.2022 07:16 6,9 C 5,6 C 83 % 1021,2 hPa 0,0 l/m 3,9 km/h (1 Bft) S-SW 208 0 min 0,0 UV-I 104 W/m 4,2 C 6,9 C 6,4 km/h (2 Bft)
13.05.2022 07:18 6,9 C 6,1 C 83 % 1021,2 hPa 0,0 l/m 3,8 km/h (1 Bft) S-SW 206 0 min 0,0 UV-I 96 W/m 4,2 C 6,9 C 6,4 km/h (2 Bft)
13.05.2022 07:20 7,1 C 6,1 C 83 % 1021,3 hPa 0,0 l/m 4,0 km/h (1 Bft) S-SW 206 0 min 0,3 UV-I 118 W/m 4,4 C 7,1 C 6,4 km/h (2 Bft)
13.05.2022 07:22 7,1 C 6,1 C 83 % 1021,3 hPa 0,0 l/m 3,4 km/h (1 Bft) S-SW 206 0 min 0,5 UV-I 121 W/m 4,4 C 7,1 C 6,4 km/h (2 Bft)
13.05.2022 07:24 7,1 C 6,1 C 83 % 1021,2 hPa 0,0 l/m 6,2 km/h (2 Bft) S-SW 200 0 min 0,5 UV-I 115 W/m 4,4 C 7,1 C 9,7 km/h (2 Bft)
13.05.2022 07:26 7,2 C 6,1 C 83 % 1021,2 hPa 0,0 l/m 5,2 km/h (1 Bft) S-SW 202 0 min 0,5 UV-I 101 W/m 4,5 C 7,2 C 8,0 km/h (2 Bft)
13.05.2022 07:28 7,2 C 6,1 C 82 % 1021,3 hPa 0,0 l/m 3,2 km/h (1 Bft) S-SW 202 0 min 0,5 UV-I 123 W/m 4,3 C 7,2 C 4,8 km/h (1 Bft)
13.05.2022 07:30 7,2 C 6,1 C 82 % 1021,4 hPa 0,0 l/m 4,5 km/h (1 Bft) S-SW 202 0 min 0,6 UV-I 152 W/m 4,3 C 7,2 C 6,4 km/h (2 Bft)
13.05.2022 07:32 7,3 C 6,1 C 83 % 1021,4 hPa 0,0 l/m 3,9 km/h (1 Bft) S-SW 202 0 min 0,6 UV-I 156 W/m 4,6 C 7,3 C 6,4 km/h (2 Bft)
13.05.2022 07:34 7,4 C 6,7 C 82 % 1021,3 hPa 0,0 l/m 2,9 km/h (1 Bft) S-SW 202 0 min 0,6 UV-I 148 W/m 4,5 C 7,4 C 6,4 km/h (2 Bft)
13.05.2022 07:36 7,5 C 6,7 C 82 % 1021,2 hPa 0,0 l/m 5,0 km/h (1 Bft) SW 216 0 min 0,6 UV-I 163 W/m 4,6 C 7,5 C 9,7 km/h (2 Bft)
13.05.2022 07:38 7,6 C 6,7 C 82 % 1021,2 hPa 0,0 l/m 6,8 km/h (2 Bft) S-SW 199 0 min 0,6 UV-I 184 W/m 4,7 C 7,3 C 9,7 km/h (2 Bft)
13.05.2022 07:40 7,6 C 6,7 C 81 % 1021,1 hPa 0,0 l/m 6,8 km/h (2 Bft) S-SW 204 0 min 0,6 UV-I 134 W/m 4,6 C 7,3 C 9,7 km/h (2 Bft)
13.05.2022 07:42 7,6 C 6,7 C 81 % 1021,3 hPa 0,0 l/m 10,4 km/h (2 Bft) S-SW 200 0 min 0,6 UV-I 95 W/m 4,6 C 4,7 C 14,5 km/h (3 Bft)
13.05.2022 07:44 7,5 C 6,7 C 81 % 1021,3 hPa 0,0 l/m 7,8 km/h (2 Bft) SW 216 0 min 0,6 UV-I 79 W/m 4,5 C 6,4 C 11,3 km/h (2 Bft)
13.05.2022 07:46 7,4 C 6,7 C 81 % 1021,4 hPa 0,0 l/m 6,5 km/h (2 Bft) S-SW 205 0 min 0,6 UV-I 120 W/m 4,4 C 7,3 C 12,9 km/h (3 Bft)
13.05.2022 07:48 7,5 C 6,7 C 81 % 1021,4 hPa 0,0 l/m 6,0 km/h (2 Bft) S-SW 208 0 min 0,7 UV-I 176 W/m 4,5 C 7,5 C 9,7 km/h (2 Bft)
13.05.2022 07:50 7,6 C 7,2 C 81 % 1021,4 hPa 0,0 l/m 8,4 km/h (2 Bft) S 186 0 min 0,8 UV-I 207 W/m 4,6 C 6,0 C 14,5 km/h (3 Bft)
13.05.2022 07:52 7,7 C 7,8 C 81 % 1021,5 hPa 0,0 l/m 7,6 km/h (2 Bft) S-SW 209 0 min 0,8 UV-I 213 W/m 4,7 C 6,7 C 11,3 km/h (2 Bft)
13.05.2022 07:54 7,7 C 8,3 C 81 % 1021,6 hPa 0,0 l/m 8,1 km/h (2 Bft) SW 214 0 min 0,8 UV-I 214 W/m 4,7 C 6,4 C 9,7 km/h (2 Bft)
13.05.2022 07:56 7,8 C 8,3 C 81 % 1021,5 hPa 0,0 l/m 6,7 km/h (2 Bft) S-SW 204 0 min 0,8 UV-I 198 W/m 4,7 C 7,6 C 9,7 km/h (2 Bft)
13.05.2022 07:58 7,9 C 8,9 C 81 % 1021,5 hPa 0,0 l/m 4,2 km/h (1 Bft) S-SW 205 0 min 0,9 UV-I 222 W/m 4,8 C 7,9 C 8,0 km/h (2 Bft)
13.05.2022 08:00 8,0 C 8,9 C 81 % 1021,5 hPa 0,0 l/m 5,3 km/h (1 Bft) S-SW 200 0 min 0,9 UV-I 238 W/m 4,9 C 8,0 C 9,7 km/h (2 Bft)
13.05.2022 08:02 8,2 C 8,9 C 80 % 1021,5 hPa 0,0 l/m 5,4 km/h (1 Bft) S-SW 198 0 min 0,9 UV-I 244 W/m 5,0 C 8,2 C 8,0 km/h (2 Bft)
13.05.2022 08:04 8,2 C 8,9 C 80 % 1021,5 hPa 0,0 l/m 6,1 km/h (2 Bft) S 178 0 min 1,0 UV-I 248 W/m 5,0 C 8,2 C 9,7 km/h (2 Bft)
13.05.2022 08:06 8,3 C 9,4 C 80 % 1021,5 hPa 0,0 l/m 5,0 km/h (1 Bft) S 178 0 min 1,0 UV-I 262 W/m 5,1 C 8,3 C 9,7 km/h (2 Bft)
13.05.2022 08:08 8,4 C 9,4 C 79 % 1021,5 hPa 0,0 l/m 6,7 km/h (2 Bft) S 177 0 min 1,0 UV-I 265 W/m 5,0 C 8,2 C 11,3 km/h (2 Bft)
13.05.2022 08:10 8,4 C 9,4 C 79 % 1021,5 hPa 0,0 l/m 4,8 km/h (1 Bft) S-SW 193 0 min 1,0 UV-I 260 W/m 5,0 C 8,4 C 8,0 km/h (2 Bft)
13.05.2022 08:12 8,5 C 9,4 C 79 % 1021,6 hPa 0,0 l/m 4,7 km/h (1 Bft) S-SW 194 0 min 1,1 UV-I 262 W/m 5,1 C 8,5 C 6,4 km/h (2 Bft)
13.05.2022 08:14 8,6 C 9,4 C 79 % 1021,6 hPa 0,0 l/m 4,4 km/h (1 Bft) S 191 0 min 1,1 UV-I 249 W/m 5,2 C 8,6 C 8,0 km/h (2 Bft)
13.05.2022 08:16 8,7 C 9,4 C 79 % 1021,7 hPa 0,0 l/m 5,4 km/h (1 Bft) SW 225 0 min 1,1 UV-I 248 W/m 5,3 C 8,7 C 8,0 km/h (2 Bft)
13.05.2022 08:18 8,7 C 9,4 C 78 % 1021,7 hPa 0,0 l/m 5,8 km/h (2 Bft) S-SW 211 0 min 1,1 UV-I 253 W/m 5,1 C 8,7 C 9,7 km/h (2 Bft)
13.05.2022 08:20 8,7 C 9,4 C 78 % 1021,6 hPa 0,0 l/m 6,6 km/h (2 Bft) S 184 0 min 1,1 UV-I 268 W/m 5,1 C 8,6 C 9,7 km/h (2 Bft)
13.05.2022 08:22 8,9 C 9,4 C 78 % 1021,7 hPa 0,0 l/m 4,8 km/h (1 Bft) S-SW 194 0 min 1,2 UV-I 270 W/m 5,3 C 8,9 C 8,0 km/h (2 Bft)
13.05.2022 08:24 9,1 C 9,4 C 78 % 1021,6 hPa 0,0 l/m 7,0 km/h (2 Bft) S-SW 194 0 min 1,2 UV-I 303 W/m 5,5 C 8,7 C 14,5 km/h (3 Bft)
13.05.2022 08:26 9,1 C 10,0 C 77 % 1021,7 hPa 0,0 l/m 8,9 km/h (2 Bft) S-SW 211 0 min 1,3 UV-I 315 W/m 5,3 C 7,3 C 12,9 km/h (3 Bft)
13.05.2022 08:28 9,2 C 10,0 C 76 % 1021,7 hPa 0,0 l/m 10,0 km/h (2 Bft) S-SW 207 0 min 1,3 UV-I 329 W/m 5,2 C 6,7 C 16,1 km/h (3 Bft)
13.05.2022 08:30 9,3 C 10,0 C 76 % 1021,6 hPa 0,0 l/m 6,3 km/h (2 Bft) S 186 0 min 1,4 UV-I 336 W/m 5,3 C 9,3 C 9,7 km/h (2 Bft)
13.05.2022 08:32 9,4 C 10,0 C 75 % 1021,6 hPa 0,0 l/m 10,0 km/h (2 Bft) S 188 0 min 1,4 UV-I 341 W/m 5,2 C 6,9 C 14,5 km/h (3 Bft)
13.05.2022 08:34 9,4 C 10,6 C 75 % 1021,6 hPa 0,0 l/m 9,8 km/h (2 Bft) W-SW 242 0 min 1,4 UV-I 343 W/m 5,2 C 7,1 C 12,9 km/h (3 Bft)
13.05.2022 08:36 9,5 C 10,6 C 75 % 1021,6 hPa 0,0 l/m 9,9 km/h (2 Bft) S-SW 211 0 min 1,4 UV-I 334 W/m 5,3 C 7,1 C 14,5 km/h (3 Bft)
13.05.2022 08:38 9,5 C 10,6 C 75 % 1021,7 hPa 0,0 l/m 10,4 km/h (2 Bft) SW 217 0 min 1,4 UV-I 336 W/m 5,3 C 6,8 C 14,5 km/h (3 Bft)
13.05.2022 08:40 9,5 C 10,6 C 75 % 1021,7 hPa 0,0 l/m 9,5 km/h (2 Bft) S-SW 207 0 min 1,4 UV-I 312 W/m 5,3 C 7,3 C 12,9 km/h (3 Bft)
13.05.2022 08:42 9,6 C 11,1 C 75 % 1021,7 hPa 0,0 l/m 9,7 km/h (2 Bft) W 265 2 min 1,5 UV-I 346 W/m 5,4 C 7,3 C 16,1 km/h (3 Bft)
13.05.2022 08:44 9,8 C 11,1 C 74 % 1021,8 hPa 0,0 l/m 7,8 km/h (2 Bft) S 190 2 min 1,6 UV-I 379 W/m 5,4 C 8,8 C 11,3 km/h (2 Bft)
13.05.2022 08:46 10,0 C 11,7 C 74 % 1021,8 hPa 0,0 l/m 11,0 km/h (2 Bft) SW 221 2 min 1,6 UV-I 396 W/m 5,6 C 7,0 C 17,7 km/h (3 Bft)
13.05.2022 08:48 10,1 C 11,7 C 74 % 1021,9 hPa 0,0 l/m 9,0 km/h (2 Bft) W-SW 245 2 min 1,6 UV-I 398 W/m 5,7 C 8,3 C 14,5 km/h (3 Bft)
13.05.2022 08:50 10,2 C 11,7 C 74 % 1021,9 hPa 0,0 l/m 6,6 km/h (2 Bft) W-SW 249 2 min 1,5 UV-I 344 W/m 5,8 C 10,1 C 12,9 km/h (3 Bft)
13.05.2022 08:52 10,3 C 11,7 C 73 % 1022,0 hPa 0,0 l/m 7,1 km/h (2 Bft) SW 236 0 min 1,5 UV-I 323 W/m 5,7 C 9,8 C 11,3 km/h (2 Bft)
13.05.2022 08:54 10,3 C 11,7 C 72 % 1022,0 hPa 0,0 l/m 6,2 km/h (2 Bft) W-SW 242 2 min 1,7 UV-I 375 W/m 5,5 C 10,3 C 12,9 km/h (3 Bft)
13.05.2022 08:56 10,3 C 11,7 C 72 % 1022,0 hPa 0,0 l/m 7,9 km/h (2 Bft) SW 226 2 min 1,7 UV-I 387 W/m 5,5 C 9,2 C 14,5 km/h (3 Bft)
13.05.2022 08:58 10,4 C 11,7 C 72 % 1022,0 hPa 0,0 l/m 8,9 km/h (2 Bft) W-SW 254 2 min 1,8 UV-I 414 W/m 5,6 C 8,7 C 16,1 km/h (3 Bft)
13.05.2022 09:00 10,5 C 11,7 C 73 % 1022,1 hPa 0,0 l/m 7,1 km/h (2 Bft) W-SW 240 2 min 1,9 UV-I 426 W/m 5,9 C 10,0 C 12,9 km/h (3 Bft)
13.05.2022 09:02 10,7 C 12,2 C 72 % 1022,2 hPa 0,0 l/m 9,7 km/h (2 Bft) SW 224 2 min 1,9 UV-I 424 W/m 5,9 C 8,5 C 17,7 km/h (3 Bft)
13.05.2022 09:04 10,8 C 12,2 C 71 % 1022,1 hPa 0,0 l/m 8,9 km/h (2 Bft) W-SW 252 2 min 1,9 UV-I 411 W/m 5,8 C 9,1 C 14,5 km/h (3 Bft)
13.05.2022 09:06 10,8 C 12,2 C 70 % 1022,0 hPa 0,0 l/m 8,1 km/h (2 Bft) S-SW 204 2 min 1,9 UV-I 428 W/m 5,6 C 9,6 C 14,5 km/h (3 Bft)
13.05.2022 09:08 10,9 C 12,2 C 71 % 1022,0 hPa 0,0 l/m 8,2 km/h (2 Bft) W-SW 254 2 min 2,0 UV-I 437 W/m 5,9 C 9,7 C 12,9 km/h (3 Bft)
13.05.2022 09:10 11,0 C 12,8 C 71 % 1022,0 hPa 0,0 l/m 7,7 km/h (2 Bft) S-SW 195 2 min 1,9 UV-I 416 W/m 5,9 C 10,1 C 14,5 km/h (3 Bft)
13.05.2022 09:12 11,1 C 12,8 C 70 % 1022,2 hPa 0,0 l/m 8,7 km/h (2 Bft) W 270 2 min 1,9 UV-I 402 W/m 5,8 C 9,6 C 14,5 km/h (3 Bft)
13.05.2022 09:14 11,1 C 12,8 C 72 % 1022,1 hPa 0,0 l/m 6,6 km/h (2 Bft) SW 217 2 min 1,8 UV-I 386 W/m 6,2 C 11,0 C 12,9 km/h (3 Bft)
13.05.2022 09:16 10,8 C 12,8 C 69 % 1022,1 hPa 0,0 l/m 7,7 km/h (2 Bft) W 279 2 min 1,9 UV-I 383 W/m 5,3 C 9,9 C 11,3 km/h (2 Bft)
13.05.2022 09:18 10,9 C 12,8 C 70 % 1022,1 hPa 0,0 l/m 7,7 km/h (2 Bft) W-SW 251 2 min 2,0 UV-I 404 W/m 5,6 C 10,0 C 14,5 km/h (3 Bft)
13.05.2022 09:20 11,1 C 12,8 C 71 % 1022,2 hPa 0,0 l/m 7,6 km/h (2 Bft) W-SW 255 2 min 2,0 UV-I 438 W/m 6,0 C 10,3 C 11,3 km/h (2 Bft)
13.05.2022 09:22 11,2 C 12,8 C 69 % 1022,1 hPa 0,0 l/m 9,0 km/h (2 Bft) S-SW 197 2 min 1,9 UV-I 362 W/m 5,7 C 9,5 C 14,5 km/h (3 Bft)
13.05.2022 09:24 11,1 C 12,8 C 69 % 1022,2 hPa 0,0 l/m 8,4 km/h (2 Bft) W-SW 250 2 min 2,1 UV-I 408 W/m 5,6 C 9,8 C 17,7 km/h (3 Bft)
13.05.2022 09:26 11,2 C 12,8 C 69 % 1022,2 hPa 0,0 l/m 14,1 km/h (3 Bft) W 265 2 min 2,2 UV-I 467 W/m 5,7 C 7,0 C 22,5 km/h (4 Bft)
13.05.2022 09:28 11,4 C 13,3 C 69 % 1022,2 hPa 0,0 l/m 12,7 km/h (3 Bft) W-SW 257 2 min 2,3 UV-I 453 W/m 5,9 C 7,8 C 16,1 km/h (3 Bft)
13.05.2022 09:30 11,6 C 13,3 C 69 % 1022,3 hPa 0,0 l/m 12,5 km/h (3 Bft) W 268 2 min 2,3 UV-I 447 W/m 6,1 C 8,1 C 17,7 km/h (3 Bft)
13.05.2022 09:32 11,6 C 13,3 C 69 % 1022,2 hPa 0,0 l/m 9,9 km/h (2 Bft) W 267 2 min 2,4 UV-I 470 W/m 6,1 C 9,4 C 16,1 km/h (3 Bft)
13.05.2022 09:34 11,7 C 13,9 C 67 % 1022,2 hPa 0,0 l/m 7,2 km/h (2 Bft) SW 232 2 min 2,4 UV-I 468 W/m 5,8 C 11,2 C 12,9 km/h (3 Bft)
13.05.2022 09:36 11,8 C 13,9 C 69 % 1022,4 hPa 0,0 l/m 8,3 km/h (2 Bft) W 269 2 min 2,4 UV-I 430 W/m 6,3 C 10,6 C 12,9 km/h (3 Bft)
13.05.2022 09:38 11,9 C 13,9 C 68 % 1022,3 hPa 0,0 l/m 10,8 km/h (2 Bft) W-SW 248 2 min 2,4 UV-I 428 W/m 6,2 C 9,3 C 24,1 km/h (4 Bft)
13.05.2022 09:40 11,8 C 13,9 C 66 % 1022,2 hPa 0,0 l/m 13,7 km/h (3 Bft) S-SW 205 2 min 2,5 UV-I 439 W/m 5,7 C 7,8 C 25,7 km/h (4 Bft)
13.05.2022 09:42 11,8 C 13,9 C 66 % 1022,3 hPa 0,0 l/m 13,0 km/h (3 Bft) W 260 2 min 2,6 UV-I 458 W/m 5,7 C 8,1 C 24,1 km/h (4 Bft)
13.05.2022 09:44 11,9 C 13,9 C 67 % 1022,4 hPa 0,0 l/m 9,2 km/h (2 Bft) W 259 2 min 2,6 UV-I 459 W/m 6,0 C 10,1 C 17,7 km/h (3 Bft)
13.05.2022 09:46 12,2 C 14,4 C 67 % 1022,2 hPa 0,0 l/m 10,1 km/h (2 Bft) S-SW 196 2 min 2,7 UV-I 470 W/m 6,3 C 10,0 C 19,3 km/h (3 Bft)
13.05.2022 09:48 12,3 C 14,4 C 64 % 1022,3 hPa 0,0 l/m 14,9 km/h (3 Bft) SW 221 2 min 2,7 UV-I 473 W/m 5,7 C 8,0 C 22,5 km/h (4 Bft)
13.05.2022 09:50 12,2 C 14,4 C 66 % 1022,3 hPa 0,0 l/m 12,7 km/h (3 Bft) W-SW 244 2 min 2,8 UV-I 485 W/m 6,0 C 8,7 C 24,1 km/h (4 Bft)
13.05.2022 09:52 12,3 C 14,4 C 66 % 1022,4 hPa 0,0 l/m 11,5 km/h (2 Bft) W-SW 245 2 min 2,9 UV-I 493 W/m 6,1 C 9,4 C 19,3 km/h (3 Bft)
13.05.2022 09:54 12,3 C 14,4 C 66 % 1022,3 hPa 0,0 l/m 15,0 km/h (3 Bft) S 190 2 min 2,8 UV-I 487 W/m 6,1 C 7,9 C 22,5 km/h (4 Bft)
13.05.2022 09:56 12,3 C 14,4 C 66 % 1022,4 hPa 0,0 l/m 12,8 km/h (3 Bft) W-SW 244 2 min 2,8 UV-I 481 W/m 6,1 C 8,8 C 24,1 km/h (4 Bft)
13.05.2022 09:58 12,6 C 14,4 C 66 % 1022,3 hPa 0,0 l/m 11,1 km/h (2 Bft) W-SW 243 2 min 2,7 UV-I 454 W/m 6,4 C 9,9 C 17,7 km/h (3 Bft)
13.05.2022 10:00 12,6 C 14,4 C 64 % 1022,3 hPa 0,0 l/m 15,5 km/h (3 Bft) W-SW 258 2 min 2,8 UV-I 463 W/m 6,0 C 8,1 C 24,1 km/h (4 Bft)
13.05.2022 10:02 12,4 C 14,4 C 65 % 1022,3 hPa 0,0 l/m 15,5 km/h (3 Bft) SW 223 2 min 2,6 UV-I 427 W/m 6,0 C 7,9 C 24,1 km/h (4 Bft)
13.05.2022 10:04 12,4 C 14,4 C 64 % 1022,3 hPa 0,0 l/m 15,8 km/h (3 Bft) SW 217 2 min 2,7 UV-I 464 W/m 5,8 C 7,7 C 22,5 km/h (4 Bft)
13.05.2022 10:06 12,3 C 14,4 C 65 % 1022,5 hPa 0,0 l/m 18,7 km/h (3 Bft) W 265 2 min 2,6 UV-I 457 W/m 5,9 C 6,7 C 30,6 km/h (5 Bft)
13.05.2022 10:08 12,3 C 13,9 C 65 % 1022,4 hPa 0,0 l/m 9,6 km/h (2 Bft) W-SW 246 2 min 2,3 UV-I 428 W/m 5,9 C 10,3 C 17,7 km/h (3 Bft)
13.05.2022 10:10 12,2 C 13,9 C 64 % 1022,3 hPa 0,0 l/m 12,3 km/h (3 Bft) SW 219 2 min 2,5 UV-I 391 W/m 5,6 C 8,9 C 20,9 km/h (4 Bft)
13.05.2022 10:12 12,2 C 13,9 C 66 % 1022,5 hPa 0,0 l/m 11,7 km/h (2 Bft) SW 217 2 min 2,6 UV-I 435 W/m 6,0 C 9,2 C 20,9 km/h (4 Bft)
13.05.2022 10:14 12,3 C 13,9 C 65 % 1022,4 hPa 0,0 l/m 15,2 km/h (3 Bft) W-SW 241 2 min 2,7 UV-I 453 W/m 5,9 C 7,8 C 22,5 km/h (4 Bft)
13.05.2022 10:16 12,5 C 14,4 C 65 % 1022,5 hPa 0,0 l/m 14,6 km/h (3 Bft) W-SW 238 2 min 2,9 UV-I 512 W/m 6,1 C 8,3 C 25,7 km/h (4 Bft)
13.05.2022 10:18 12,6 C 15,0 C 64 % 1022,5 hPa 0,0 l/m 13,5 km/h (3 Bft) SW 232 2 min 2,9 UV-I 526 W/m 6,0 C 8,9 C 25,7 km/h (4 Bft)
13.05.2022 10:20 12,4 C 14,4 C 63 % 1022,5 hPa 0,0 l/m 10,1 km/h (2 Bft) W-SW 239 0 min 2,1 UV-I 273 W/m 5,6 C 10,2 C 17,7 km/h (3 Bft)
13.05.2022 10:22 12,4 C 14,4 C 63 % 1022,5 hPa 0,0 l/m 12,4 km/h (3 Bft) W-SW 243 2 min 2,9 UV-I 429 W/m 5,6 C 9,1 C 20,9 km/h (4 Bft)
13.05.2022 10:24 12,5 C 15,0 C 64 % 1022,5 hPa 0,0 l/m 12,5 km/h (3 Bft) W 267 2 min 2,5 UV-I 605 W/m 5,9 C 9,2 C 19,3 km/h (3 Bft)
13.05.2022 10:26 12,8 C 15,6 C 64 % 1022,5 hPa 0,0 l/m 9,7 km/h (2 Bft) W-SW 244 2 min 3,1 UV-I 600 W/m 6,2 C 10,8 C 17,7 km/h (3 Bft)
13.05.2022 10:28 12,9 C 15,6 C 62 % 1022,6 hPa 0,0 l/m 13,0 km/h (3 Bft) SW 233 2 min 3,2 UV-I 588 W/m 5,8 C 9,4 C 20,9 km/h (4 Bft)
13.05.2022 10:30 12,9 C 15,6 C 62 % 1022,6 hPa 0,0 l/m 14,3 km/h (3 Bft) W 259 2 min 2,9 UV-I 612 W/m 5,8 C 8,9 C 22,5 km/h (4 Bft)
13.05.2022 10:32 12,8 C 15,0 C 61 % 1022,6 hPa 0,0 l/m 16,8 km/h (3 Bft) W-NW 288 2 min 2,8 UV-I 564 W/m 5,5 C 7,9 C 27,4 km/h (4 Bft)
13.05.2022 10:34 12,7 C 15,0 C 61 % 1022,6 hPa 0,0 l/m 19,8 km/h (3 Bft) W 259 2 min 2,8 UV-I 534 W/m 5,4 C 6,8 C 27,4 km/h (4 Bft)
13.05.2022 10:36 12,8 C 15,0 C 62 % 1022,6 hPa 0,0 l/m 10,8 km/h (2 Bft) W 281 2 min 2,9 UV-I 593 W/m 5,7 C 10,3 C 19,3 km/h (3 Bft)
13.05.2022 10:38 12,8 C 15,0 C 59 % 1022,5 hPa 0,0 l/m 16,5 km/h (3 Bft) W-NW 294 2 min 2,9 UV-I 498 W/m 5,0 C 8,0 C 25,7 km/h (4 Bft)
13.05.2022 10:40 12,8 C 15,0 C 60 % 1022,6 hPa 0,0 l/m 14,9 km/h (3 Bft) W-SW 244 2 min 3,2 UV-I 507 W/m 5,2 C 8,6 C 24,1 km/h (4 Bft)
13.05.2022 10:42 12,8 C 15,6 C 61 % 1022,5 hPa 0,0 l/m 12,7 km/h (3 Bft) W 274 2 min 3,2 UV-I 576 W/m 5,5 C 9,4 C 24,1 km/h (4 Bft)
13.05.2022 10:44 13,0 C 16,1 C 62 % 1022,5 hPa 0,0 l/m 9,6 km/h (2 Bft) W 264 2 min 3,2 UV-I 480 W/m 5,9 C 11,1 C 19,3 km/h (3 Bft)
13.05.2022 10:46 13,2 C 16,1 C 60 % 1022,6 hPa 0,0 l/m 14,9 km/h (3 Bft) SW 234 2 min 3,3 UV-I 553 W/m 5,6 C 9,0 C 29,0 km/h (5 Bft)
13.05.2022 10:48 13,1 C 16,1 C 59 % 1022,6 hPa 0,0 l/m 17,0 km/h (3 Bft) W 279 2 min 3,6 UV-I 633 W/m 5,3 C 8,2 C 27,4 km/h (4 Bft)
13.05.2022 10:50 13,3 C 17,2 C 61 % 1022,6 hPa 0,0 l/m 13,8 km/h (3 Bft) SW 225 2 min 3,8 UV-I 669 W/m 5,9 C 9,6 C 24,1 km/h (4 Bft)
13.05.2022 10:52 13,5 C 17,8 C 59 % 1022,5 hPa 0,0 l/m 11,4 km/h (2 Bft) W-SW 256 2 min 3,9 UV-I 702 W/m 5,6 C 10,8 C 19,3 km/h (3 Bft)
13.05.2022 10:54 13,7 C 17,8 C 60 % 1022,5 hPa 0,0 l/m 12,5 km/h (3 Bft) SW 228 2 min 3,8 UV-I 676 W/m 6,1 C 10,6 C 20,9 km/h (4 Bft)
13.05.2022 10:56 13,7 C 17,8 C 60 % 1022,6 hPa 0,0 l/m 9,2 km/h (2 Bft) W 261 2 min 3,5 UV-I 580 W/m 6,1 C 12,1 C 16,1 km/h (3 Bft)
13.05.2022 10:58 13,8 C 17,8 C 58 % 1022,7 hPa 0,0 l/m 14,1 km/h (3 Bft) S 190 2 min 3,1 UV-I 553 W/m 5,7 C 10,1 C 24,1 km/h (4 Bft)
13.05.2022 11:00 13,4 C 17,2 C 55 % 1022,6 hPa 0,0 l/m 16,9 km/h (3 Bft) S-SW 205 2 min 3,2 UV-I 502 W/m 4,5 C 8,6 C 25,7 km/h (4 Bft)
13.05.2022 11:02 13,1 C 16,7 C 56 % 1022,6 hPa 0,0 l/m 16,7 km/h (3 Bft) S-SW 195 2 min 3,2 UV-I 503 W/m 4,5 C 8,3 C 24,1 km/h (4 Bft)
13.05.2022 11:04 12,9 C 16,1 C 56 % 1022,6 hPa 0,0 l/m 16,9 km/h (3 Bft) SW 232 2 min 3,2 UV-I 494 W/m 4,3 C 8,0 C 25,7 km/h (4 Bft)
13.05.2022 11:06 12,9 C 16,1 C 57 % 1022,7 hPa 0,0 l/m 12,7 km/h (3 Bft) SW 236 2 min 3,3 UV-I 498 W/m 4,6 C 9,6 C 19,3 km/h (3 Bft)
13.05.2022 11:08 13,1 C 16,7 C 57 % 1022,6 hPa 0,0 l/m 11,0 km/h (2 Bft) SW 236 2 min 3,5 UV-I 555 W/m 4,8 C 10,5 C 19,3 km/h (3 Bft)
13.05.2022 11:10 13,1 C 17,2 C 56 % 1022,5 hPa 0,0 l/m 7,8 km/h (2 Bft) S 175 2 min 3,7 UV-I 623 W/m 4,5 C 12,2 C 14,5 km/h (3 Bft)
13.05.2022 11:12 13,3 C 18,3 C 60 % 1022,6 hPa 0,0 l/m 14,4 km/h (3 Bft) SW 232 2 min 3,9 UV-I 649 W/m 5,7 C 9,4 C 24,1 km/h (4 Bft)
13.05.2022 11:14 13,5 C 18,3 C 57 % 1022,7 hPa 0,0 l/m 14,0 km/h (3 Bft) SW 225 2 min 3,9 UV-I 669 W/m 5,2 C 9,7 C 25,7 km/h (4 Bft)
13.05.2022 11:16 13,5 C 18,3 C 57 % 1022,6 hPa 0,0 l/m 15,2 km/h (3 Bft) S-SW 204 2 min 4,0 UV-I 691 W/m 5,2 C 9,3 C 25,7 km/h (4 Bft)
13.05.2022 11:18 13,6 C 18,3 C 58 % 1022,7 hPa 0,0 l/m 12,1 km/h (2 Bft) W 263 2 min 4,2 UV-I 709 W/m 5,5 C 10,6 C 25,7 km/h (4 Bft)
13.05.2022 11:20 13,8 C 18,9 C 59 % 1022,7 hPa 0,0 l/m 14,3 km/h (3 Bft) SW 234 2 min 4,2 UV-I 717 W/m 5,9 C 10,0 C 24,1 km/h (4 Bft)
13.05.2022 11:22 13,8 C 18,9 C 57 % 1022,6 hPa 0,0 l/m 12,5 km/h (3 Bft) W-NW 286 2 min 4,3 UV-I 726 W/m 5,4 C 10,7 C 20,9 km/h (4 Bft)
13.05.2022 11:24 13,9 C 19,4 C 58 % 1022,7 hPa 0,0 l/m 13,9 km/h (3 Bft) S-SW 204 2 min 4,4 UV-I 725 W/m 5,8 C 10,3 C 25,7 km/h (4 Bft)
13.05.2022 11:26 13,8 C 18,9 C 57 % 1022,7 hPa 0,0 l/m 14,2 km/h (3 Bft) S-SW 196 2 min 4,4 UV-I 737 W/m 5,4 C 10,0 C 24,1 km/h (4 Bft)
13.05.2022 11:28 14,0 C 19,4 C 58 % 1022,6 hPa 0,0 l/m 12,2 km/h (2 Bft) W-NW 288 2 min 4,5 UV-I 737 W/m 5,9 C 11,0 C 20,9 km/h (4 Bft)
13.05.2022 11:30 14,2 C 19,4 C 56 % 1022,6 hPa 0,0 l/m 12,5 km/h (3 Bft) S-SW 208 2 min 4,5 UV-I 749 W/m 5,6 C 11,1 C 19,3 km/h (3 Bft)
13.05.2022 11:32 14,1 C 20,0 C 56 % 1022,6 hPa 0,0 l/m 14,6 km/h (3 Bft) S-SW 200 2 min 4,6 UV-I 765 W/m 5,5 C 10,2 C 22,5 km/h (4 Bft)
13.05.2022 11:34 13,8 C 18,9 C 55 % 1022,6 hPa 0,0 l/m 15,8 km/h (3 Bft) S-SW 198 2 min 4,6 UV-I 766 W/m 4,9 C 9,5 C 22,5 km/h (4 Bft)
13.05.2022 11:36 13,7 C 18,9 C 56 % 1022,6 hPa 0,0 l/m 14,1 km/h (3 Bft) W-SW 242 2 min 4,7 UV-I 777 W/m 5,1 C 9,9 C 20,9 km/h (4 Bft)
13.05.2022 11:38 13,9 C 19,4 C 57 % 1022,6 hPa 0,0 l/m 11,1 km/h (2 Bft) S-SW 203 2 min 4,7 UV-I 778 W/m 5,5 C 11,4 C 19,3 km/h (3 Bft)
13.05.2022 11:40 14,2 C 20,0 C 56 % 1022,6 hPa 0,0 l/m 16,3 km/h (3 Bft) SW 236 2 min 4,7 UV-I 780 W/m 5,6 C 9,8 C 27,4 km/h (4 Bft)
13.05.2022 11:42 14,5 C 20,0 C 57 % 1022,5 hPa 0,0 l/m 11,4 km/h (2 Bft) W-SW 250 2 min 4,8 UV-I 781 W/m 6,1 C 11,9 C 24,1 km/h (4 Bft)
13.05.2022 11:44 14,7 C 20,0 C 55 % 1022,4 hPa 0,0 l/m 12,3 km/h (3 Bft) S-SW 208 2 min 4,8 UV-I 786 W/m 5,8 C 11,8 C 20,9 km/h (4 Bft)
13.05.2022 11:46 14,5 C 20,0 C 56 % 1022,6 hPa 0,0 l/m 16,3 km/h (3 Bft) W 259 2 min 4,8 UV-I 787 W/m 5,8 C 10,2 C 24,1 km/h (4 Bft)
13.05.2022 11:48 14,4 C 20,0 C 55 % 1022,5 hPa 0,0 l/m 14,0 km/h (3 Bft) S-SW 205 2 min 4,9 UV-I 781 W/m 5,5 C 10,8 C 20,9 km/h (4 Bft)
13.05.2022 11:50 14,3 C 20,0 C 56 % 1022,5 hPa 0,0 l/m 15,2 km/h (3 Bft) W-SW 237 2 min 4,9 UV-I 781 W/m 5,6 C 10,3 C 24,1 km/h (4 Bft)
13.05.2022 11:52 14,6 C 20,0 C 56 % 1022,6 hPa 0,0 l/m 14,9 km/h (3 Bft) W 263 2 min 4,9 UV-I 786 W/m 5,9 C 10,7 C 24,1 km/h (4 Bft)
13.05.2022 11:54 14,6 C 20,0 C 55 % 1022,5 hPa 0,0 l/m 11,4 km/h (2 Bft) S 184 2 min 4,9 UV-I 785 W/m 5,7 C 12,1 C 17,7 km/h (3 Bft)
13.05.2022 11:56 14,5 C 20,0 C 56 % 1022,6 hPa 0,0 l/m 10,3 km/h (2 Bft) S-SW 192 2 min 4,9 UV-I 785 W/m 5,8 C 12,4 C 19,3 km/h (3 Bft)
13.05.2022 11:58 14,6 C 20,6 C 55 % 1022,4 hPa 0,0 l/m 11,7 km/h (2 Bft) S-SW 212 2 min 5,0 UV-I 787 W/m 5,7 C 11,9 C 19,3 km/h (3 Bft)
13.05.2022 12:00 14,4 C 21,1 C 55 % 1022,5 hPa 0,0 l/m 12,9 km/h (3 Bft) S-SW 208 2 min 5,0 UV-I 796 W/m 5,5 C 11,2 C 16,1 km/h (3 Bft)
13.05.2022 12:02 14,4 C 20,6 C 55 % 1022,7 hPa 0,0 l/m 13,9 km/h (3 Bft) W-SW 258 2 min 5,0 UV-I 788 W/m 5,5 C 10,9 C 22,5 km/h (4 Bft)
13.05.2022 12:04 14,6 C 20,6 C 55 % 1022,6 hPa 0,0 l/m 19,1 km/h (3 Bft) W-SW 245 2 min 5,0 UV-I 782 W/m 5,7 C 9,5 C 27,4 km/h (4 Bft)
13.05.2022 12:06 14,5 C 20,0 C 54 % 1022,5 hPa 0,0 l/m 16,9 km/h (3 Bft) W-SW 257 2 min 5,0 UV-I 780 W/m 5,3 C 10,0 C 27,4 km/h (4 Bft)
13.05.2022 12:08 14,5 C 20,0 C 56 % 1022,5 hPa 0,0 l/m 12,1 km/h (2 Bft) W-SW 238 2 min 5,1 UV-I 796 W/m 5,8 C 11,7 C 19,3 km/h (3 Bft)
13.05.2022 12:10 14,9 C 20,6 C 56 % 1022,6 hPa 0,0 l/m 10,0 km/h (2 Bft) S-SW 198 2 min 5,1 UV-I 792 W/m 6,2 C 13,0 C 16,1 km/h (3 Bft)
13.05.2022 12:12 14,9 C 21,1 C 53 % 1022,6 hPa 0,0 l/m 11,9 km/h (2 Bft) W-SW 251 2 min 5,1 UV-I 792 W/m 5,4 C 12,2 C 19,3 km/h (3 Bft)
13.05.2022 12:14 14,9 C 20,6 C 56 % 1022,6 hPa 0,0 l/m 16,1 km/h (3 Bft) W 269 2 min 5,2 UV-I 789 W/m 6,2 C 10,7 C 27,4 km/h (4 Bft)
13.05.2022 12:16 15,1 C 21,1 C 56 % 1022,5 hPa 0,0 l/m 11,1 km/h (2 Bft) SW 225 2 min 5,2 UV-I 797 W/m 6,4 C 12,8 C 17,7 km/h (3 Bft)
13.05.2022 12:18 15,1 C 21,1 C 54 % 1022,6 hPa 0,0 l/m 11,6 km/h (2 Bft) W-SW 249 2 min 5,2 UV-I 802 W/m 5,9 C 12,5 C 19,3 km/h (3 Bft)
13.05.2022 12:20 14,8 C 21,1 C 56 % 1022,5 hPa 0,0 l/m 9,7 km/h (2 Bft) SW 225 2 min 5,2 UV-I 799 W/m 6,1 C 13,0 C 19,3 km/h (3 Bft)
13.05.2022 12:22 14,6 C 21,1 C 54 % 1022,5 hPa 0,0 l/m 10,2 km/h (2 Bft) S-SW 195 2 min 5,3 UV-I 798 W/m 5,4 C 12,6 C 17,7 km/h (3 Bft)
13.05.2022 12:24 14,8 C 21,7 C 56 % 1022,5 hPa 0,0 l/m 8,9 km/h (2 Bft) W-NW 294 2 min 5,3 UV-I 800 W/m 6,1 C 13,4 C 16,1 km/h (3 Bft)
13.05.2022 12:26 15,3 C 21,7 C 56 % 1022,5 hPa 0,0 l/m 10,4 km/h (2 Bft) W 265 2 min 5,3 UV-I 807 W/m 6,6 C 13,3 C 16,1 km/h (3 Bft)
13.05.2022 12:28 15,7 C 22,2 C 55 % 1022,6 hPa 0,0 l/m 10,2 km/h (2 Bft) S 190 2 min 5,5 UV-I 818 W/m 6,7 C 13,8 C 22,5 km/h (4 Bft)
13.05.2022 12:30 15,6 C 21,7 C 56 % 1022,6 hPa 0,0 l/m 13,5 km/h (3 Bft) W-NW 296 2 min 5,6 UV-I 834 W/m 6,9 C 12,4 C 22,5 km/h (4 Bft)
13.05.2022 12:32 15,6 C 21,1 C 54 % 1022,6 hPa 0,0 l/m 14,6 km/h (3 Bft) W-SW 242 2 min 5,4 UV-I 826 W/m 6,3 C 12,0 C 19,3 km/h (3 Bft)
13.05.2022 12:34 15,8 C 22,2 C 57 % 1022,6 hPa 0,0 l/m 13,8 km/h (3 Bft) W 262 2 min 5,5 UV-I 816 W/m 7,3 C 12,6 C 29,0 km/h (5 Bft)
13.05.2022 12:36 15,6 C 21,1 C 54 % 1022,6 hPa 0,0 l/m 20,8 km/h (4 Bft) W 281 2 min 5,5 UV-I 814 W/m 6,3 C 10,3 C 32,2 km/h (5 Bft)
13.05.2022 12:38 15,2 C 21,1 C 54 % 1022,6 hPa 0,0 l/m 13,5 km/h (3 Bft) S 187 2 min 5,5 UV-I 813 W/m 6,0 C 11,9 C 22,5 km/h (4 Bft)
13.05.2022 12:40 15,0 C 21,1 C 53 % 1022,5 hPa 0,0 l/m 9,7 km/h (2 Bft) W-SW 240 2 min 5,5 UV-I 810 W/m 5,5 C 13,3 C 24,1 km/h (4 Bft)
13.05.2022 12:42 15,2 C 21,1 C 55 % 1022,7 hPa 0,0 l/m 13,9 km/h (3 Bft) W-SW 246 2 min 5,5 UV-I 805 W/m 6,2 C 11,8 C 20,9 km/h (4 Bft)
13.05.2022 12:44 15,4 C 21,1 C 56 % 1022,7 hPa 0,0 l/m 15,0 km/h (3 Bft) W 265 2 min 5,5 UV-I 812 W/m 6,7 C 11,7 C 20,9 km/h (4 Bft)
13.05.2022 12:46 15,4 C 21,7 C 55 % 1022,6 hPa 0,0 l/m 9,5 km/h (2 Bft) SW 221 2 min 5,6 UV-I 825 W/m 6,4 C 13,8 C 19,3 km/h (3 Bft)
13.05.2022 12:48 15,2 C 21,7 C 56 % 1022,6 hPa 0,0 l/m 11,1 km/h (2 Bft) W-SW 238 2 min 5,7 UV-I 831 W/m 6,5 C 12,9 C 16,1 km/h (3 Bft)
13.05.2022 12:50 15,0 C 21,7 C 55 % 1022,6 hPa 0,0 l/m 10,2 km/h (2 Bft) SW 236 2 min 5,7 UV-I 835 W/m 6,0 C 13,0 C 12,9 km/h (3 Bft)
13.05.2022 12:52 15,1 C 21,7 C 54 % 1022,6 hPa 0,0 l/m 13,0 km/h (3 Bft) W-SW 239 2 min 5,7 UV-I 836 W/m 5,9 C 12,0 C 19,3 km/h (3 Bft)
13.05.2022 12:54 15,3 C 21,7 C 55 % 1022,6 hPa 0,0 l/m 5,7 km/h (1 Bft) SW 222 2 min 5,7 UV-I 838 W/m 6,3 C 15,3 C 11,3 km/h (2 Bft)
13.05.2022 12:56 15,6 C 22,2 C 56 % 1022,6 hPa 0,0 l/m 13,6 km/h (3 Bft) W-NW 284 2 min 5,7 UV-I 842 W/m 6,9 C 12,4 C 27,4 km/h (4 Bft)
13.05.2022 12:58 15,6 C 22,8 C 56 % 1022,6 hPa 0,0 l/m 7,5 km/h (2 Bft) SW 219 2 min 5,7 UV-I 840 W/m 6,9 C 15,0 C 14,5 km/h (3 Bft)
13.05.2022 13:00 15,2 C 22,2 C 55 % 1022,5 hPa 0,0 l/m 8,1 km/h (2 Bft) S-SO 163 2 min 5,7 UV-I 847 W/m 6,2 C 14,3 C 16,1 km/h (3 Bft)
13.05.2022 13:02 15,3 C 22,2 C 56 % 1022,5 hPa 0,0 l/m 11,0 km/h (2 Bft) SW 227 2 min 5,8 UV-I 840 W/m 6,6 C 13,0 C 17,7 km/h (3 Bft)
13.05.2022 13:04 15,4 C 22,2 C 56 % 1022,5 hPa 0,0 l/m 10,8 km/h (2 Bft) S-SW 195 2 min 5,8 UV-I 837 W/m 6,7 C 13,2 C 20,9 km/h (4 Bft)
13.05.2022 13:06 15,6 C 22,8 C 54 % 1022,5 hPa 0,0 l/m 11,5 km/h (2 Bft) W-SW 244 2 min 5,8 UV-I 843 W/m 6,3 C 13,2 C 16,1 km/h (3 Bft)
13.05.2022 13:08 15,7 C 23,3 C 57 % 1022,4 hPa 0,0 l/m 9,4 km/h (2 Bft) SW 236 2 min 5,8 UV-I 848 W/m 7,2 C 14,2 C 16,1 km/h (3 Bft)
13.05.2022 13:10 15,8 C 23,3 C 55 % 1022,5 hPa 0,0 l/m 10,6 km/h (2 Bft) W 269 2 min 5,8 UV-I 853 W/m 6,8 C 13,7 C 17,7 km/h (3 Bft)
13.05.2022 13:12 15,9 C 23,3 C 55 % 1022,5 hPa 0,0 l/m 13,4 km/h (3 Bft) W 263 2 min 5,9 UV-I 860 W/m 6,9 C 12,8 C 20,9 km/h (4 Bft)
13.05.2022 13:14 15,9 C 23,3 C 55 % 1022,4 hPa 0,0 l/m 9,8 km/h (2 Bft) S-SW 206 2 min 5,9 UV-I 857 W/m 6,9 C 14,2 C 17,7 km/h (3 Bft)
13.05.2022 13:16 15,7 C 23,3 C 56 % 1022,4 hPa 0,0 l/m 13,9 km/h (3 Bft) S 174 2 min 5,8 UV-I 852 W/m 6,9 C 12,4 C 22,5 km/h (4 Bft)
13.05.2022 13:18 15,7 C 22,8 C 55 % 1022,5 hPa 0,0 l/m 12,7 km/h (3 Bft) S-SW 205 2 min 5,8 UV-I 845 W/m 6,7 C 12,8 C 22,5 km/h (4 Bft)
13.05.2022 13:20 15,9 C 22,8 C 55 % 1022,5 hPa 0,0 l/m 14,1 km/h (3 Bft) S 181 2 min 5,8 UV-I 830 W/m 6,9 C 12,6 C 22,5 km/h (4 Bft)
13.05.2022 13:22 15,9 C 22,8 C 55 % 1022,5 hPa 0,0 l/m 12,0 km/h (2 Bft) W-SW 252 2 min 5,7 UV-I 824 W/m 6,9 C 13,3 C 19,3 km/h (3 Bft)
13.05.2022 13:24 16,1 C 23,3 C 56 % 1022,6 hPa 0,0 l/m 11,9 km/h (2 Bft) S-SW 203 2 min 5,7 UV-I 827 W/m 7,3 C 13,6 C 20,9 km/h (4 Bft)
13.05.2022 13:26 15,7 C 22,8 C 54 % 1022,5 hPa 0,0 l/m 10,8 km/h (2 Bft) W 261 2 min 5,7 UV-I 818 W/m 6,4 C 13,6 C 20,9 km/h (4 Bft)
13.05.2022 13:28 15,7 C 22,8 C 55 % 1022,5 hPa 0,0 l/m 13,3 km/h (3 Bft) S-SW 205 2 min 5,8 UV-I 838 W/m 6,7 C 12,6 C 20,9 km/h (4 Bft)
13.05.2022 13:30 15,8 C 22,8 C 55 % 1022,5 hPa 0,0 l/m 12,1 km/h (2 Bft) S 187 2 min 5,8 UV-I 828 W/m 6,8 C 13,2 C 19,3 km/h (3 Bft)
13.05.2022 13:32 15,9 C 22,8 C 54 % 1022,4 hPa 0,0 l/m 14,0 km/h (3 Bft) SW 236 2 min 5,7 UV-I 826 W/m 6,6 C 12,6 C 17,7 km/h (3 Bft)
13.05.2022 13:34 15,9 C 23,3 C 56 % 1022,5 hPa 0,0 l/m 10,0 km/h (2 Bft) S-SW 192 2 min 5,7 UV-I 823 W/m 7,1 C 14,1 C 16,1 km/h (3 Bft)
13.05.2022 13:36 15,9 C 23,3 C 55 % 1022,5 hPa 0,0 l/m 10,7 km/h (2 Bft) S-SW 205 2 min 5,8 UV-I 831 W/m 6,9 C 13,8 C 19,3 km/h (3 Bft)
13.05.2022 13:38 16,0 C 23,9 C 55 % 1022,5 hPa 0,0 l/m 11,3 km/h (2 Bft) W 259 2 min 5,8 UV-I 843 W/m 7,0 C 13,7 C 20,9 km/h (4 Bft)
13.05.2022 13:40 16,1 C 23,3 C 56 % 1022,5 hPa 0,0 l/m 13,1 km/h (3 Bft) SW 230 2 min 5,7 UV-I 818 W/m 7,3 C 13,1 C 20,9 km/h (4 Bft)
13.05.2022 13:42 16,2 C 23,3 C 54 % 1022,5 hPa 0,0 l/m 12,3 km/h (3 Bft) W 265 2 min 5,6 UV-I 811 W/m 6,9 C 13,5 C 19,3 km/h (3 Bft)
13.05.2022 13:44 16,1 C 23,3 C 54 % 1022,5 hPa 0,0 l/m 9,8 km/h (2 Bft) SW 227 2 min 5,5 UV-I 803 W/m 6,8 C 14,4 C 16,1 km/h (3 Bft)
13.05.2022 13:46 16,1 C 23,3 C 55 % 1022,4 hPa 0,0 l/m 13,1 km/h (3 Bft) W-SW 240 2 min 5,5 UV-I 781 W/m 7,1 C 13,1 C 19,3 km/h (3 Bft)
13.05.2022 13:48 16,0 C 22,8 C 54 % 1022,6 hPa 0,0 l/m 16,2 km/h (3 Bft) S-SW 192 2 min 5,5 UV-I 787 W/m 6,7 C 12,0 C 24,1 km/h (4 Bft)
13.05.2022 13:50 16,1 C 22,2 C 56 % 1022,5 hPa 0,0 l/m 12,6 km/h (3 Bft) S 188 2 min 5,4 UV-I 778 W/m 7,3 C 13,3 C 19,3 km/h (3 Bft)
13.05.2022 13:52 16,1 C 22,8 C 55 % 1022,5 hPa 0,0 l/m 9,8 km/h (2 Bft) S 184 2 min 5,4 UV-I 760 W/m 7,1 C 14,4 C 16,1 km/h (3 Bft)
13.05.2022 13:54 15,9 C 22,2 C 55 % 1022,5 hPa 0,0 l/m 14,1 km/h (3 Bft) W 260 2 min 5,5 UV-I 790 W/m 6,9 C 12,6 C 24,1 km/h (4 Bft)
13.05.2022 13:56 15,7 C 22,2 C 54 % 1022,5 hPa 0,0 l/m 11,3 km/h (2 Bft) SW 219 2 min 5,4 UV-I 787 W/m 6,4 C 13,3 C 16,1 km/h (3 Bft)
13.05.2022 13:58 15,9 C 22,2 C 58 % 1022,4 hPa 0,0 l/m 9,3 km/h (2 Bft) S-SW 200 2 min 5,4 UV-I 779 W/m 7,6 C 14,4 C 14,5 km/h (3 Bft)
13.05.2022 14:00 16,1 C 22,8 C 55 % 1022,5 hPa 0,0 l/m 11,7 km/h (2 Bft) W-SW 244 2 min 5,3 UV-I 757 W/m 7,1 C 13,7 C 17,7 km/h (3 Bft)
13.05.2022 14:02 16,3 C 23,3 C 56 % 1022,4 hPa 0,0 l/m 11,2 km/h (2 Bft) SW 215 2 min 5,1 UV-I 778 W/m 7,5 C 14,1 C 16,1 km/h (3 Bft)
13.05.2022 14:04 16,1 C 22,8 C 54 % 1022,4 hPa 0,0 l/m 10,8 km/h (2 Bft) SW 219 2 min 4,6 UV-I 770 W/m 6,8 C 14,0 C 19,3 km/h (3 Bft)
13.05.2022 14:06 15,9 C 22,2 C 56 % 1022,4 hPa 0,0 l/m 13,1 km/h (3 Bft) S-SW 205 2 min 5,2 UV-I 728 W/m 7,1 C 12,9 C 19,3 km/h (3 Bft)
13.05.2022 14:08 16,1 C 22,8 C 57 % 1022,3 hPa 0,0 l/m 7,8 km/h (2 Bft) W-SW 243 2 min 5,1 UV-I 726 W/m 7,6 C 15,4 C 14,5 km/h (3 Bft)
13.05.2022 14:10 16,1 C 22,8 C 56 % 1022,4 hPa 0,0 l/m 13,9 km/h (3 Bft) W 267 2 min 5,0 UV-I 712 W/m 7,3 C 12,9 C 22,5 km/h (4 Bft)
13.05.2022 14:12 16,3 C 22,8 C 55 % 1022,2 hPa 0,0 l/m 13,2 km/h (3 Bft) SW 225 2 min 5,1 UV-I 716 W/m 7,2 C 13,3 C 19,3 km/h (3 Bft)
13.05.2022 14:14 16,4 C 22,8 C 53 % 1022,3 hPa 0,0 l/m 8,2 km/h (2 Bft) SW 219 2 min 5,1 UV-I 730 W/m 6,8 C 15,5 C 12,9 km/h (3 Bft)
13.05.2022 14:16 16,2 C 22,8 C 54 % 1022,4 hPa 0,0 l/m 9,5 km/h (2 Bft) S 186 2 min 5,4 UV-I 782 W/m 6,9 C 14,7 C 17,7 km/h (3 Bft)
13.05.2022 14:18 16,3 C 23,3 C 55 % 1022,3 hPa 0,0 l/m 12,9 km/h (3 Bft) W 259 2 min 5,5 UV-I 807 W/m 7,2 C 13,4 C 19,3 km/h (3 Bft)
13.05.2022 14:20 16,6 C 23,9 C 54 % 1022,4 hPa 0,0 l/m 13,8 km/h (3 Bft) W-SW 244 2 min 5,5 UV-I 805 W/m 7,3 C 13,5 C 22,5 km/h (4 Bft)
13.05.2022 14:22 16,6 C 23,9 C 55 % 1022,4 hPa 0,0 l/m 8,7 km/h (2 Bft) S-SW 205 2 min 5,5 UV-I 812 W/m 7,5 C 15,5 C 12,9 km/h (3 Bft)
13.05.2022 14:24 16,5 C 23,3 C 52 % 1022,4 hPa 0,0 l/m 13,9 km/h (3 Bft) W-NW 293 2 min 5,6 UV-I 828 W/m 6,6 C 13,4 C 17,7 km/h (3 Bft)
13.05.2022 14:26 16,6 C 23,9 C 55 % 1022,4 hPa 0,0 l/m 11,8 km/h (2 Bft) S 182 2 min 5,6 UV-I 830 W/m 7,5 C 14,2 C 16,1 km/h (3 Bft)
13.05.2022 14:28 16,6 C 23,9 C 54 % 1022,4 hPa 0,0 l/m 11,6 km/h (2 Bft) W-SW 245 2 min 5,5 UV-I 819 W/m 7,3 C 14,3 C 17,7 km/h (3 Bft)
13.05.2022 14:30 16,6 C 23,9 C 54 % 1022,4 hPa 0,0 l/m 13,8 km/h (3 Bft) SW 222 2 min 5,5 UV-I 823 W/m 7,3 C 13,5 C 20,9 km/h (4 Bft)
13.05.2022 14:32 16,7 C 23,9 C 53 % 1022,4 hPa 0,0 l/m 12,6 km/h (3 Bft) SW 226 2 min 5,4 UV-I 792 W/m 7,1 C 14,0 C 19,3 km/h (3 Bft)
13.05.2022 14:34 16,6 C 23,3 C 53 % 1022,2 hPa 0,0 l/m 9,2 km/h (2 Bft) S 188 2 min 5,3 UV-I 781 W/m 7,0 C 15,2 C 17,7 km/h (3 Bft)
13.05.2022 14:36 16,6 C 23,9 C 53 % 1022,4 hPa 0,0 l/m 9,9 km/h (2 Bft) S-SW 200 2 min 5,3 UV-I 773 W/m 7,0 C 14,9 C 19,3 km/h (3 Bft)
13.05.2022 14:38 16,6 C 23,3 C 54 % 1022,2 hPa 0,0 l/m 11,9 km/h (2 Bft) SW 217 2 min 5,1 UV-I 731 W/m 7,3 C 14,2 C 22,5 km/h (4 Bft)
13.05.2022 14:40 16,6 C 22,8 C 53 % 1022,4 hPa 0,0 l/m 14,2 km/h (3 Bft) W-SW 239 2 min 5,1 UV-I 737 W/m 7,0 C 13,4 C 20,9 km/h (4 Bft)
13.05.2022 14:42 16,5 C 23,3 C 53 % 1022,4 hPa 0,0 l/m 11,0 km/h (2 Bft) SW 221 2 min 5,4 UV-I 811 W/m 6,9 C 14,4 C 20,9 km/h (4 Bft)
13.05.2022 14:44 16,7 C 23,9 C 53 % 1022,3 hPa 0,0 l/m 17,3 km/h (3 Bft) W-SW 255 2 min 5,4 UV-I 797 W/m 7,1 C 12,6 C 22,5 km/h (4 Bft)
13.05.2022 14:46 16,8 C 23,9 C 54 % 1022,3 hPa 0,0 l/m 12,3 km/h (3 Bft) S-SW 205 2 min 5,3 UV-I 776 W/m 7,4 C 14,2 C 22,5 km/h (4 Bft)
13.05.2022 14:48 16,7 C 23,9 C 54 % 1022,4 hPa 0,0 l/m 13,7 km/h (3 Bft) SW 214 2 min 5,2 UV-I 760 W/m 7,3 C 13,7 C 22,5 km/h (4 Bft)
13.05.2022 14:50 16,7 C 23,9 C 55 % 1022,3 hPa 0,0 l/m 11,6 km/h (2 Bft) SW 217 2 min 5,1 UV-I 761 W/m 7,6 C 14,4 C 16,1 km/h (3 Bft)
13.05.2022 14:52 16,7 C 23,3 C 54 % 1022,3 hPa 0,0 l/m 14,6 km/h (3 Bft) W 268 2 min 5,1 UV-I 761 W/m 7,3 C 13,4 C 22,5 km/h (4 Bft)
13.05.2022 14:54 16,9 C 23,9 C 56 % 1022,4 hPa 0,0 l/m 12,4 km/h (3 Bft) S-SW 205 2 min 5,1 UV-I 761 W/m 8,1 C 14,3 C 20,9 km/h (4 Bft)
13.05.2022 14:56 17,0 C 23,9 C 53 % 1022,3 hPa 0,0 l/m 13,4 km/h (3 Bft) SW 222 2 min 5,1 UV-I 751 W/m 7,4 C 14,1 C 19,3 km/h (3 Bft)
13.05.2022 14:58 17,1 C 24,4 C 54 % 1022,2 hPa 0,0 l/m 9,4 km/h (2 Bft) W 280 2 min 5,1 UV-I 753 W/m 7,7 C 15,7 C 16,1 km/h (3 Bft)
13.05.2022 15:00 17,2 C 24,4 C 55 % 1022,2 hPa 0,0 l/m 11,4 km/h (2 Bft) W 266 2 min 5,0 UV-I 742 W/m 8,1 C 15,0 C 22,5 km/h (4 Bft)
13.05.2022 15:02 17,2 C 24,4 C 54 % 1022,3 hPa 0,0 l/m 14,9 km/h (3 Bft) W 267 2 min 5,1 UV-I 774 W/m 7,8 C 13,9 C 24,1 km/h (4 Bft)
13.05.2022 15:04 17,2 C 23,3 C 54 % 1022,3 hPa 0,0 l/m 15,2 km/h (3 Bft) W-SW 239 2 min 4,2 UV-I 766 W/m 7,8 C 13,8 C 22,5 km/h (4 Bft)
13.05.2022 15:06 17,1 C 23,9 C 56 % 1022,2 hPa 0,0 l/m 11,2 km/h (2 Bft) S-SW 207 2 min 5,1 UV-I 763 W/m 8,3 C 15,0 C 22,5 km/h (4 Bft)
13.05.2022 15:08 17,0 C 23,9 C 55 % 1022,2 hPa 0,0 l/m 15,7 km/h (3 Bft) W-SW 246 2 min 5,1 UV-I 769 W/m 7,9 C 13,4 C 22,5 km/h (4 Bft)
13.05.2022 15:10 17,2 C 23,9 C 55 % 1022,4 hPa 0,0 l/m 13,4 km/h (3 Bft) S 184 2 min 5,1 UV-I 773 W/m 8,1 C 14,3 C 24,1 km/h (4 Bft)
13.05.2022 15:12 17,1 C 24,4 C 54 % 1022,4 hPa 0,0 l/m 12,3 km/h (3 Bft) W 260 2 min 5,0 UV-I 766 W/m 7,7 C 14,6 C 17,7 km/h (3 Bft)
13.05.2022 15:14 17,2 C 25,0 C 52 % 1022,2 hPa 0,0 l/m 12,1 km/h (2 Bft) SW 215 2 min 4,9 UV-I 747 W/m 7,3 C 14,8 C 20,9 km/h (4 Bft)
13.05.2022 15:16 16,9 C 23,9 C 52 % 1022,2 hPa 0,0 l/m 14,5 km/h (3 Bft) S-SW 211 2 min 4,9 UV-I 727 W/m 7,0 C 13,6 C 20,9 km/h (4 Bft)
13.05.2022 15:18 16,9 C 23,9 C 53 % 1022,2 hPa 0,0 l/m 11,7 km/h (2 Bft) S-SO 163 2 min 4,8 UV-I 716 W/m 7,3 C 14,6 C 17,7 km/h (3 Bft)
13.05.2022 15:20 16,9 C 24,4 C 55 % 1022,4 hPa 0,0 l/m 10,4 km/h (2 Bft) S-SW 192 2 min 4,7 UV-I 703 W/m 7,8 C 15,1 C 22,5 km/h (4 Bft)
13.05.2022 15:22 16,7 C 22,8 C 52 % 1022,4 hPa 0,0 l/m 16,5 km/h (3 Bft) S-SW 196 2 min 4,7 UV-I 713 W/m 6,8 C 12,8 C 22,5 km/h (4 Bft)
13.05.2022 15:24 16,6 C 23,3 C 53 % 1022,3 hPa 0,0 l/m 11,0 km/h (2 Bft) SW 229 2 min 4,7 UV-I 715 W/m 7,0 C 14,5 C 16,1 km/h (3 Bft)
13.05.2022 15:26 16,8 C 23,9 C 54 % 1022,4 hPa 0,0 l/m 10,1 km/h (2 Bft) W 269 2 min 4,6 UV-I 707 W/m 7,4 C 15,1 C 16,1 km/h (3 Bft)
13.05.2022 15:28 16,8 C 24,4 C 54 % 1022,4 hPa 0,0 l/m 7,1 km/h (2 Bft) W-NW 284 2 min 4,6 UV-I 688 W/m 7,4 C 16,4 C 12,9 km/h (3 Bft)
13.05.2022 15:30 16,8 C 23,9 C 53 % 1022,4 hPa 0,0 l/m 11,7 km/h (2 Bft) SW 227 2 min 4,5 UV-I 686 W/m 7,2 C 14,5 C 19,3 km/h (3 Bft)
13.05.2022 15:32 16,9 C 23,9 C 56 % 1022,2 hPa 0,0 l/m 7,2 km/h (2 Bft) SW 230 2 min 4,6 UV-I 705 W/m 8,1 C 16,5 C 14,5 km/h (3 Bft)
13.05.2022 15:34 17,0 C 23,3 C 53 % 1022,4 hPa 0,0 l/m 15,3 km/h (3 Bft) SW 220 2 min 4,6 UV-I 701 W/m 7,4 C 13,5 C 25,7 km/h (4 Bft)
13.05.2022 15:36 17,2 C 23,9 C 55 % 1022,2 hPa 0,0 l/m 13,6 km/h (3 Bft) SW 221 2 min 4,6 UV-I 713 W/m 8,1 C 14,3 C 19,3 km/h (3 Bft)
13.05.2022 15:38 17,2 C 23,9 C 54 % 1022,4 hPa 0,0 l/m 13,2 km/h (3 Bft) SW 221 2 min 4,4 UV-I 668 W/m 7,8 C 14,4 C 19,3 km/h (3 Bft)
13.05.2022 15:40 17,0 C 23,3 C 53 % 1022,2 hPa 0,0 l/m 12,6 km/h (3 Bft) S 190 2 min 4,3 UV-I 635 W/m 7,4 C 14,4 C 17,7 km/h (3 Bft)
13.05.2022 15:42 16,9 C 23,9 C 54 % 1022,3 hPa 0,0 l/m 11,8 km/h (2 Bft) SW 227 2 min 4,4 UV-I 671 W/m 7,5 C 14,5 C 20,9 km/h (4 Bft)
13.05.2022 15:44 17,2 C 23,9 C 55 % 1022,2 hPa 0,0 l/m 13,9 km/h (3 Bft) SW 234 2 min 4,5 UV-I 715 W/m 8,1 C 14,2 C 24,1 km/h (4 Bft)
13.05.2022 15:46 17,3 C 24,4 C 54 % 1022,3 hPa 0,0 l/m 12,6 km/h (3 Bft) SW 231 2 min 4,3 UV-I 764 W/m 7,9 C 14,7 C 17,7 km/h (3 Bft)
13.05.2022 15:48 17,4 C 25,0 C 55 % 1022,2 hPa 0,0 l/m 9,8 km/h (2 Bft) S-SW 198 2 min 4,7 UV-I 758 W/m 8,3 C 15,8 C 14,5 km/h (3 Bft)
13.05.2022 15:50 17,5 C 25,6 C 56 % 1022,3 hPa 0,0 l/m 9,5 km/h (2 Bft) W-NW 286 2 min 4,6 UV-I 739 W/m 8,6 C 16,1 C 16,1 km/h (3 Bft)
13.05.2022 15:52 17,3 C 25,0 C 52 % 1022,3 hPa 0,0 l/m 11,8 km/h (2 Bft) S-SW 201 2 min 4,6 UV-I 734 W/m 7,3 C 15,0 C 19,3 km/h (3 Bft)
13.05.2022 15:54 17,2 C 25,0 C 54 % 1022,2 hPa 0,0 l/m 8,5 km/h (2 Bft) W 259 2 min 4,6 UV-I 739 W/m 7,8 C 16,2 C 16,1 km/h (3 Bft)
13.05.2022 15:56 17,3 C 25,0 C 52 % 1022,2 hPa 0,0 l/m 13,9 km/h (3 Bft) SW 215 2 min 4,5 UV-I 733 W/m 7,3 C 14,3 C 20,9 km/h (4 Bft)
13.05.2022 15:58 16,9 C 23,9 C 52 % 1022,2 hPa 0,0 l/m 12,6 km/h (3 Bft) S-SO 161 2 min 3,8 UV-I 734 W/m 7,0 C 14,3 C 24,1 km/h (4 Bft)
13.05.2022 16:00 16,9 C 23,9 C 53 % 1022,2 hPa 0,0 l/m 15,9 km/h (3 Bft) S 185 2 min 4,5 UV-I 728 W/m 7,3 C 13,2 C 24,1 km/h (4 Bft)
13.05.2022 16:02 17,0 C 23,9 C 54 % 1022,1 hPa 0,0 l/m 11,7 km/h (2 Bft) S-SW 193 2 min 4,4 UV-I 724 W/m 7,6 C 14,7 C 16,1 km/h (3 Bft)
13.05.2022 16:04 17,1 C 23,9 C 54 % 1022,2 hPa 0,0 l/m 12,7 km/h (3 Bft) S-SW 200 2 min 4,4 UV-I 711 W/m 7,7 C 14,5 C 17,7 km/h (3 Bft)
13.05.2022 16:06 17,2 C 23,9 C 54 % 1022,1 hPa 0,0 l/m 16,8 km/h (3 Bft) SW 223 2 min 4,2 UV-I 685 W/m 7,8 C 13,4 C 24,1 km/h (4 Bft)
13.05.2022 16:08 17,1 C 23,3 C 52 % 1022,2 hPa 0,0 l/m 10,1 km/h (2 Bft) S-SW 201 2 min 4,2 UV-I 687 W/m 7,2 C 15,4 C 16,1 km/h (3 Bft)
13.05.2022 16:10 17,2 C 23,9 C 56 % 1022,2 hPa 0,0 l/m 9,4 km/h (2 Bft) S-SW 204 2 min 3,9 UV-I 703 W/m 8,3 C 15,8 C 16,1 km/h (3 Bft)
13.05.2022 16:12 17,6 C 24,4 C 54 % 1022,1 hPa 0,0 l/m 9,7 km/h (2 Bft) S-SW 196 2 min 4,3 UV-I 713 W/m 8,2 C 16,1 C 16,1 km/h (3 Bft)
13.05.2022 16:14 17,6 C 24,4 C 54 % 1022,1 hPa 0,0 l/m 10,0 km/h (2 Bft) W 262 2 min 4,2 UV-I 708 W/m 8,2 C 16,0 C 14,5 km/h (3 Bft)
13.05.2022 16:16 17,6 C 24,4 C 53 % 1022,2 hPa 0,0 l/m 11,4 km/h (2 Bft) S 188 2 min 4,1 UV-I 683 W/m 7,9 C 15,5 C 22,5 km/h (4 Bft)
13.05.2022 16:18 17,4 C 23,9 C 53 % 1022,1 hPa 0,0 l/m 11,3 km/h (2 Bft) S 170 2 min 4,0 UV-I 659 W/m 7,7 C 15,3 C 17,7 km/h (3 Bft)
13.05.2022 16:20 17,3 C 23,9 C 53 % 1022,1 hPa 0,0 l/m 8,1 km/h (2 Bft) W 261 2 min 4,0 UV-I 651 W/m 7,6 C 16,5 C 14,5 km/h (3 Bft)
13.05.2022 16:22 17,4 C 23,9 C 53 % 1022,1 hPa 0,0 l/m 12,7 km/h (3 Bft) S 186 2 min 4,0 UV-I 660 W/m 7,7 C 14,8 C 19,3 km/h (3 Bft)
13.05.2022 16:24 17,3 C 23,3 C 54 % 1022,2 hPa 0,0 l/m 12,7 km/h (3 Bft) W-SW 238 2 min 3,9 UV-I 652 W/m 7,9 C 14,7 C 17,7 km/h (3 Bft)
13.05.2022 16:26 17,3 C 23,3 C 53 % 1022,1 hPa 0,0 l/m 13,8 km/h (3 Bft) S-SW 197 2 min 3,9 UV-I 655 W/m 7,6 C 14,3 C 22,5 km/h (4 Bft)
13.05.2022 16:28 17,2 C 22,8 C 53 % 1022,1 hPa 0,0 l/m 13,3 km/h (3 Bft) S-SW 213 2 min 3,8 UV-I 634 W/m 7,5 C 14,4 C 22,5 km/h (4 Bft)
13.05.2022 16:30 17,2 C 23,3 C 53 % 1022,1 hPa 0,0 l/m 12,9 km/h (3 Bft) W-SW 246 2 min 3,8 UV-I 649 W/m 7,5 C 14,5 C 17,7 km/h (3 Bft)
13.05.2022 16:32 17,2 C 23,3 C 54 % 1021,9 hPa 0,0 l/m 9,4 km/h (2 Bft) S-SO 167 2 min 3,8 UV-I 643 W/m 7,8 C 15,8 C 16,1 km/h (3 Bft)
13.05.2022 16:34 17,4 C 24,4 C 54 % 1022,0 hPa 0,0 l/m 7,2 km/h (2 Bft) S-SW 199 2 min 3,8 UV-I 653 W/m 8,0 C 17,0 C 14,5 km/h (3 Bft)
13.05.2022 16:36 17,8 C 25,6 C 54 % 1021,9 hPa 0,0 l/m 10,1 km/h (2 Bft) S-SW 196 2 min 3,7 UV-I 626 W/m 8,4 C 16,2 C 17,7 km/h (3 Bft)
13.05.2022 16:38 17,9 C 25,6 C 55 % 1021,9 hPa 0,0 l/m 9,8 km/h (2 Bft) SW 228 2 min 3,7 UV-I 631 W/m 8,7 C 16,4 C 14,5 km/h (3 Bft)
13.05.2022 16:40 17,7 C 25,0 C 51 % 1021,9 hPa 0,0 l/m 14,0 km/h (3 Bft) S-SW 213 2 min 3,7 UV-I 631 W/m 7,4 C 14,8 C 22,5 km/h (4 Bft)
13.05.2022 16:42 17,4 C 24,4 C 53 % 1022,1 hPa 0,0 l/m 12,3 km/h (3 Bft) S-SW 207 2 min 3,6 UV-I 630 W/m 7,7 C 14,9 C 19,3 km/h (3 Bft)
13.05.2022 16:44 17,4 C 24,4 C 54 % 1022,0 hPa 0,0 l/m 14,4 km/h (3 Bft) W 270 2 min 3,6 UV-I 624 W/m 8,0 C 14,3 C 19,3 km/h (3 Bft)
13.05.2022 16:46 17,7 C 25,0 C 54 % 1022,0 hPa 0,0 l/m 10,1 km/h (2 Bft) S-SW 199 2 min 3,6 UV-I 630 W/m 8,3 C 16,1 C 17,7 km/h (3 Bft)
13.05.2022 16:48 17,8 C 25,6 C 53 % 1022,0 hPa 0,0 l/m 7,2 km/h (2 Bft) SW 225 2 min 3,5 UV-I 630 W/m 8,1 C 17,4 C 12,9 km/h (3 Bft)
13.05.2022 16:50 17,9 C 25,6 C 53 % 1021,9 hPa 0,0 l/m 9,5 km/h (2 Bft) SW 227 2 min 3,5 UV-I 632 W/m 8,2 C 16,5 C 16,1 km/h (3 Bft)
13.05.2022 16:52 17,7 C 25,6 C 50 % 1021,9 hPa 0,0 l/m 8,8 km/h (2 Bft) S-SW 199 2 min 3,4 UV-I 599 W/m 7,1 C 16,6 C 16,1 km/h (3 Bft)
13.05.2022 16:54 17,5 C 25,0 C 52 % 1021,9 hPa 0,0 l/m 12,8 km/h (3 Bft) SW 225 2 min 3,3 UV-I 590 W/m 7,5 C 14,9 C 17,7 km/h (3 Bft)
13.05.2022 16:56 17,4 C 24,4 C 53 % 1021,9 hPa 0,0 l/m 15,2 km/h (3 Bft) S-SW 196 2 min 3,3 UV-I 576 W/m 7,7 C 14,0 C 25,7 km/h (4 Bft)
13.05.2022 16:58 17,5 C 23,9 C 53 % 1021,9 hPa 0,0 l/m 12,1 km/h (2 Bft) S-SW 194 2 min 3,1 UV-I 538 W/m 7,8 C 15,1 C 17,7 km/h (3 Bft)
13.05.2022 17:00 17,5 C 23,3 C 54 % 1021,9 hPa 0,0 l/m 11,6 km/h (2 Bft) SW 228 2 min 3,0 UV-I 515 W/m 8,1 C 15,3 C 17,7 km/h (3 Bft)
13.05.2022 17:02 17,7 C 23,9 C 54 % 1022,0 hPa 0,0 l/m 14,0 km/h (3 Bft) SW 236 2 min 3,0 UV-I 517 W/m 8,3 C 14,8 C 22,5 km/h (4 Bft)
13.05.2022 17:04 17,7 C 23,3 C 51 % 1021,9 hPa 0,0 l/m 15,4 km/h (3 Bft) W-SW 252 2 min 2,9 UV-I 507 W/m 7,4 C 14,4 C 22,5 km/h (4 Bft)
13.05.2022 17:06 17,7 C 23,9 C 52 % 1021,9 hPa 0,0 l/m 12,7 km/h (3 Bft) SW 217 2 min 2,9 UV-I 500 W/m 7,7 C 15,2 C 22,5 km/h (4 Bft)
13.05.2022 17:08 17,6 C 23,3 C 51 % 1022,1 hPa 0,0 l/m 12,9 km/h (3 Bft) S-SW 205 2 min 2,9 UV-I 507 W/m 7,3 C 15,0 C 19,3 km/h (3 Bft)
13.05.2022 17:10 17,5 C 22,8 C 51 % 1022,0 hPa 0,0 l/m 13,3 km/h (3 Bft) S-SW 192 2 min 2,9 UV-I 511 W/m 7,3 C 14,7 C 20,9 km/h (4 Bft)
13.05.2022 17:12 17,4 C 22,8 C 53 % 1022,0 hPa 0,0 l/m 13,0 km/h (3 Bft) W-SW 242 2 min 2,8 UV-I 503 W/m 7,7 C 14,7 C 19,3 km/h (3 Bft)
13.05.2022 17:14 17,5 C 23,3 C 53 % 1022,0 hPa 0,0 l/m 11,4 km/h (2 Bft) W 259 2 min 2,8 UV-I 512 W/m 7,8 C 15,4 C 16,1 km/h (3 Bft)
13.05.2022 17:16 17,7 C 23,9 C 53 % 1022,1 hPa 0,0 l/m 10,2 km/h (2 Bft) W-SW 237 2 min 2,8 UV-I 511 W/m 8,0 C 16,0 C 14,5 km/h (3 Bft)
13.05.2022 17:18 17,7 C 24,4 C 53 % 1021,9 hPa 0,0 l/m 7,8 km/h (2 Bft) W-SW 244 2 min 2,7 UV-I 500 W/m 8,0 C 17,0 C 16,1 km/h (3 Bft)
13.05.2022 17:20 17,6 C 24,4 C 52 % 1021,9 hPa 0,0 l/m 8,1 km/h (2 Bft) W-SW 241 2 min 2,7 UV-I 494 W/m 7,6 C 16,8 C 12,9 km/h (3 Bft)
13.05.2022 17:22 17,6 C 23,9 C 53 % 1022,0 hPa 0,0 l/m 9,2 km/h (2 Bft) SW 222 2 min 2,6 UV-I 484 W/m 7,9 C 16,3 C 12,9 km/h (3 Bft)
13.05.2022 17:24 17,6 C 23,9 C 53 % 1022,0 hPa 0,0 l/m 8,5 km/h (2 Bft) W-SW 250 2 min 2,6 UV-I 475 W/m 7,9 C 16,6 C 16,1 km/h (3 Bft)
13.05.2022 17:26 17,7 C 23,9 C 53 % 1022,0 hPa 0,0 l/m 11,1 km/h (2 Bft) W 263 2 min 2,6 UV-I 474 W/m 8,0 C 15,7 C 16,1 km/h (3 Bft)
13.05.2022 17:28 17,6 C 23,9 C 51 % 1022,0 hPa 0,0 l/m 9,9 km/h (2 Bft) W 265 2 min 2,5 UV-I 473 W/m 7,3 C 16,0 C 16,1 km/h (3 Bft)
13.05.2022 17:30 17,6 C 24,4 C 54 % 1021,9 hPa 0,0 l/m 7,6 km/h (2 Bft) SW 232 2 min 2,5 UV-I 469 W/m 8,2 C 17,0 C 12,9 km/h (3 Bft)
13.05.2022 17:32 17,5 C 24,4 C 52 % 1022,0 hPa 0,0 l/m 10,8 km/h (2 Bft) W 259 2 min 2,5 UV-I 470 W/m 7,5 C 15,6 C 14,5 km/h (3 Bft)
13.05.2022 17:34 17,6 C 23,9 C 53 % 1022,0 hPa 0,0 l/m 7,7 km/h (2 Bft) W-SW 247 2 min 2,5 UV-I 469 W/m 7,9 C 17,0 C 17,7 km/h (3 Bft)
13.05.2022 17:36 17,7 C 24,4 C 54 % 1022,0 hPa 0,0 l/m 7,7 km/h (2 Bft) W 260 2 min 2,5 UV-I 484 W/m 8,3 C 17,1 C 14,5 km/h (3 Bft)
13.05.2022 17:38 17,8 C 24,4 C 52 % 1022,0 hPa 0,0 l/m 8,4 km/h (2 Bft) SW 231 2 min 2,5 UV-I 494 W/m 7,8 C 16,9 C 14,5 km/h (3 Bft)
13.05.2022 17:40 17,7 C 23,9 C 53 % 1022,0 hPa 0,0 l/m 7,5 km/h (2 Bft) W 268 2 min 2,5 UV-I 498 W/m 8,0 C 17,2 C 12,9 km/h (3 Bft)
13.05.2022 17:42 17,8 C 24,4 C 53 % 1021,9 hPa 0,0 l/m 6,2 km/h (2 Bft) W-SW 248 2 min 2,5 UV-I 503 W/m 8,1 C 17,8 C 12,9 km/h (3 Bft)
13.05.2022 17:44 17,8 C 25,6 C 52 % 1022,0 hPa 0,0 l/m 6,8 km/h (2 Bft) W-SW 246 2 min 2,5 UV-I 511 W/m 7,8 C 17,6 C 16,1 km/h (3 Bft)
13.05.2022 17:46 17,7 C 24,4 C 52 % 1022,0 hPa 0,0 l/m 9,9 km/h (2 Bft) W-SW 257 2 min 2,5 UV-I 520 W/m 7,7 C 16,1 C 14,5 km/h (3 Bft)
13.05.2022 17:48 17,8 C 24,4 C 52 % 1022,1 hPa 0,0 l/m 10,7 km/h (2 Bft) W-SW 248 2 min 2,5 UV-I 532 W/m 7,8 C 15,9 C 19,3 km/h (3 Bft)
13.05.2022 17:50 17,9 C 24,4 C 52 % 1021,9 hPa 0,0 l/m 12,1 km/h (2 Bft) W-SW 240 2 min 2,5 UV-I 532 W/m 7,9 C 15,6 C 20,9 km/h (4 Bft)
13.05.2022 17:52 17,9 C 25,0 C 51 % 1021,9 hPa 0,0 l/m 8,6 km/h (2 Bft) W 281 2 min 2,5 UV-I 538 W/m 7,6 C 16,9 C 16,1 km/h (3 Bft)
13.05.2022 17:54 18,1 C 25,6 C 52 % 1021,9 hPa 0,0 l/m 10,8 km/h (2 Bft) W-SW 244 2 min 2,4 UV-I 531 W/m 8,1 C 16,3 C 12,9 km/h (3 Bft)
13.05.2022 17:56 18,1 C 25,6 C 52 % 1021,8 hPa 0,0 l/m 7,5 km/h (2 Bft) S-SW 199 2 min 2,4 UV-I 523 W/m 8,1 C 17,6 C 14,5 km/h (3 Bft)
13.05.2022 17:58 18,1 C 25,6 C 52 % 1021,9 hPa 0,0 l/m 13,4 km/h (3 Bft) SW 228 2 min 2,4 UV-I 524 W/m 8,1 C 15,4 C 20,9 km/h (4 Bft)
13.05.2022 18:00 18,1 C 25,0 C 50 % 1021,9 hPa 0,0 l/m 8,6 km/h (2 Bft) W 265 2 min 2,3 UV-I 508 W/m 7,5 C 17,1 C 12,9 km/h (3 Bft)
13.05.2022 18:02 18,1 C 25,6 C 51 % 1021,8 hPa 0,0 l/m 4,9 km/h (1 Bft) SW 236 2 min 2,3 UV-I 504 W/m 7,8 C 18,1 C 8,0 km/h (2 Bft)
13.05.2022 18:04 18,1 C 25,0 C 50 % 1021,8 hPa 0,0 l/m 9,1 km/h (2 Bft) SW 220 2 min 2,3 UV-I 500 W/m 7,5 C 16,9 C 16,1 km/h (3 Bft)
13.05.2022 18:06 17,8 C 24,4 C 49 % 1021,8 hPa 0,0 l/m 8,6 km/h (2 Bft) S-SW 206 2 min 2,2 UV-I 490 W/m 6,9 C 16,8 C 14,5 km/h (3 Bft)
13.05.2022 18:08 17,9 C 25,0 C 52 % 1021,8 hPa 0,0 l/m 3,8 km/h (1 Bft) W-SW 241 2 min 2,2 UV-I 484 W/m 7,9 C 17,9 C 8,0 km/h (2 Bft)
13.05.2022 18:10 18,1 C 25,0 C 53 % 1021,8 hPa 0,0 l/m 7,9 km/h (2 Bft) W-SW 247 2 min 2,1 UV-I 480 W/m 8,4 C 17,4 C 16,1 km/h (3 Bft)
13.05.2022 18:12 18,0 C 24,4 C 51 % 1021,7 hPa 0,0 l/m 8,9 km/h (2 Bft) SW 229 2 min 2,1 UV-I 473 W/m 7,7 C 16,9 C 14,5 km/h (3 Bft)
13.05.2022 18:14 18,0 C 24,4 C 50 % 1021,8 hPa 0,0 l/m 11,2 km/h (2 Bft) W-SW 255 2 min 2,0 UV-I 459 W/m 7,4 C 16,0 C 16,1 km/h (3 Bft)
13.05.2022 18:16 17,9 C 24,4 C 49 % 1021,8 hPa 0,0 l/m 10,5 km/h (2 Bft) SW 226 2 min 2,0 UV-I 444 W/m 7,0 C 16,1 C 19,3 km/h (3 Bft)
13.05.2022 18:18 17,8 C 23,9 C 51 % 1021,8 hPa 0,0 l/m 10,6 km/h (2 Bft) S-SW 203 2 min 1,9 UV-I 432 W/m 7,5 C 16,0 C 17,7 km/h (3 Bft)
13.05.2022 18:20 17,7 C 23,3 C 50 % 1021,7 hPa 0,0 l/m 12,5 km/h (3 Bft) S-SW 210 2 min 1,8 UV-I 401 W/m 7,1 C 15,2 C 22,5 km/h (4 Bft)
13.05.2022 18:22 17,6 C 22,2 C 51 % 1021,8 hPa 0,0 l/m 13,4 km/h (3 Bft) SW 234 2 min 1,7 UV-I 365 W/m 7,3 C 14,8 C 20,9 km/h (4 Bft)
13.05.2022 18:24 17,6 C 21,7 C 52 % 1021,7 hPa 0,0 l/m 9,5 km/h (2 Bft) SW 216 0 min 1,6 UV-I 337 W/m 7,6 C 16,2 C 12,9 km/h (3 Bft)
13.05.2022 18:26 17,4 C 21,7 C 51 % 1021,8 hPa 0,0 l/m 7,6 km/h (2 Bft) SW 233 0 min 1,5 UV-I 315 W/m 7,2 C 16,8 C 11,3 km/h (2 Bft)
13.05.2022 18:28 17,4 C 21,1 C 51 % 1021,7 hPa 0,0 l/m 11,3 km/h (2 Bft) S-SW 205 0 min 1,5 UV-I 324 W/m 7,2 C 15,3 C 16,1 km/h (3 Bft)
13.05.2022 18:30 17,4 C 21,1 C 53 % 1021,7 hPa 0,0 l/m 7,4 km/h (2 Bft) SW 219 0 min 1,5 UV-I 310 W/m 7,7 C 16,9 C 9,7 km/h (2 Bft)
13.05.2022 18:32 17,4 C 21,1 C 53 % 1021,8 hPa 0,0 l/m 6,5 km/h (2 Bft) SW 220 0 min 1,5 UV-I 314 W/m 7,7 C 17,4 C 12,9 km/h (3 Bft)
13.05.2022 18:34 17,6 C 20,6 C 52 % 1021,8 hPa 0,0 l/m 11,0 km/h (2 Bft) W-SW 247 0 min 1,4 UV-I 315 W/m 7,6 C 15,6 C 22,5 km/h (4 Bft)
13.05.2022 18:36 17,4 C 20,0 C 52 % 1021,9 hPa 0,0 l/m 11,9 km/h (2 Bft) W-SW 249 0 min 1,4 UV-I 309 W/m 7,4 C 15,1 C 20,9 km/h (4 Bft)
13.05.2022 18:38 17,4 C 19,4 C 52 % 1021,7 hPa 0,0 l/m 6,4 km/h (2 Bft) W 271 0 min 1,3 UV-I 276 W/m 7,4 C 17,4 C 12,9 km/h (3 Bft)
13.05.2022 18:40 17,3 C 18,9 C 53 % 1021,9 hPa 0,0 l/m 8,5 km/h (2 Bft) W 261 0 min 1,2 UV-I 209 W/m 7,6 C 16,3 C 17,7 km/h (3 Bft)
13.05.2022 18:42 17,2 C 18,3 C 51 % 1021,8 hPa 0,0 l/m 7,2 km/h (2 Bft) W-SW 240 0 min 1,1 UV-I 205 W/m 7,0 C 16,8 C 11,3 km/h (2 Bft)
13.05.2022 18:44 16,9 C 17,8 C 53 % 1021,9 hPa 0,0 l/m 7,2 km/h (2 Bft) SW 229 0 min 1,2 UV-I 228 W/m 7,3 C 16,5 C 11,3 km/h (2 Bft)
13.05.2022 18:46 16,9 C 17,2 C 53 % 1021,8 hPa 0,0 l/m 8,0 km/h (2 Bft) W-SW 244 0 min 1,2 UV-I 256 W/m 7,3 C 16,1 C 16,1 km/h (3 Bft)
13.05.2022 18:48 16,9 C 17,2 C 52 % 1021,7 hPa 0,0 l/m 10,3 km/h (2 Bft) SW 227 0 min 1,2 UV-I 260 W/m 7,0 C 15,1 C 17,7 km/h (3 Bft)
13.05.2022 18:50 16,9 C 17,2 C 53 % 1021,9 hPa 0,0 l/m 5,3 km/h (1 Bft) S-SW 194 0 min 1,2 UV-I 274 W/m 7,3 C 16,9 C 9,7 km/h (2 Bft)
13.05.2022 18:52 16,9 C 17,8 C 53 % 1021,9 hPa 0,0 l/m 6,4 km/h (2 Bft) SW 225 0 min 1,2 UV-I 274 W/m 7,3 C 16,9 C 9,7 km/h (2 Bft)
13.05.2022 18:54 17,0 C 17,8 C 54 % 1021,9 hPa 0,0 l/m 7,4 km/h (2 Bft) SW 231 0 min 1,2 UV-I 283 W/m 7,6 C 16,5 C 11,3 km/h (2 Bft)
13.05.2022 18:56 17,1 C 17,8 C 54 % 1021,9 hPa 0,0 l/m 8,1 km/h (2 Bft) W-SW 255 0 min 1,2 UV-I 303 W/m 7,7 C 16,3 C 12,9 km/h (3 Bft)
13.05.2022 18:58 17,1 C 18,3 C 54 % 1021,9 hPa 0,0 l/m 5,8 km/h (2 Bft) W-SW 247 0 min 1,2 UV-I 312 W/m 7,7 C 17,1 C 12,9 km/h (3 Bft)
13.05.2022 19:00 17,2 C 18,3 C 53 % 1021,9 hPa 0,0 l/m 7,5 km/h (2 Bft) W-SW 249 0 min 1,1 UV-I 302 W/m 7,5 C 16,7 C 11,3 km/h (2 Bft)
13.05.2022 19:02 17,2 C 18,9 C 53 % 1021,9 hPa 0,0 l/m 7,2 km/h (2 Bft) SW 219 0 min 1,1 UV-I 310 W/m 7,5 C 16,8 C 12,9 km/h (3 Bft)
13.05.2022 19:04 17,2 C 18,9 C 53 % 1022,0 hPa 0,0 l/m 8,3 km/h (2 Bft) S-SW 205 0 min 1,1 UV-I 306 W/m 7,5 C 16,3 C 16,1 km/h (3 Bft)
13.05.2022 19:06 17,2 C 18,9 C 53 % 1022,0 hPa 0,0 l/m 11,1 km/h (2 Bft) SW 221 0 min 1,0 UV-I 266 W/m 7,5 C 15,1 C 16,1 km/h (3 Bft)
13.05.2022 19:08 17,1 C 18,9 C 53 % 1022,0 hPa 0,0 l/m 10,1 km/h (2 Bft) W-SW 254 0 min 0,9 UV-I 232 W/m 7,4 C 15,4 C 17,7 km/h (3 Bft)
13.05.2022 19:10 16,9 C 18,9 C 54 % 1022,0 hPa 0,0 l/m 8,9 km/h (2 Bft) S-SW 192 0 min 0,9 UV-I 230 W/m 7,5 C 15,7 C 14,5 km/h (3 Bft)
13.05.2022 19:12 16,9 C 18,3 C 54 % 1022,0 hPa 0,0 l/m 7,6 km/h (2 Bft) SW 223 0 min 0,9 UV-I 238 W/m 7,5 C 16,3 C 16,1 km/h (3 Bft)
13.05.2022 19:14 16,9 C 18,3 C 54 % 1022,0 hPa 0,0 l/m 8,2 km/h (2 Bft) SW 217 0 min 0,9 UV-I 248 W/m 7,5 C 16,0 C 17,7 km/h (3 Bft)
13.05.2022 19:16 16,8 C 18,9 C 55 % 1022,0 hPa 0,0 l/m 5,1 km/h (1 Bft) W 270 0 min 0,9 UV-I 249 W/m 7,7 C 16,8 C 12,9 km/h (3 Bft)
13.05.2022 19:18 16,9 C 19,4 C 55 % 1022,0 hPa 0,0 l/m 11,2 km/h (2 Bft) W 261 0 min 0,9 UV-I 252 W/m 7,8 C 14,8 C 17,7 km/h (3 Bft)
13.05.2022 19:20 16,8 C 19,4 C 56 % 1022,0 hPa 0,0 l/m 10,1 km/h (2 Bft) W-SW 248 0 min 0,8 UV-I 247 W/m 8,0 C 15,1 C 17,7 km/h (3 Bft)
13.05.2022 19:22 16,8 C 19,4 C 53 % 1022,0 hPa 0,0 l/m 8,9 km/h (2 Bft) S-SW 195 0 min 0,8 UV-I 229 W/m 7,2 C 15,6 C 16,1 km/h (3 Bft)
13.05.2022 19:24 16,8 C 19,4 C 54 % 1022,0 hPa 0,0 l/m 9,5 km/h (2 Bft) W-SW 238 0 min 0,8 UV-I 213 W/m 7,4 C 15,3 C 12,9 km/h (3 Bft)
13.05.2022 19:26 16,8 C 19,4 C 54 % 1022,1 hPa 0,0 l/m 8,3 km/h (2 Bft) SW 229 0 min 0,8 UV-I 230 W/m 7,4 C 15,8 C 12,9 km/h (3 Bft)
13.05.2022 19:28 16,7 C 18,9 C 55 % 1022,0 hPa 0,0 l/m 7,3 km/h (2 Bft) W-SW 242 0 min 0,8 UV-I 230 W/m 7,6 C 16,2 C 12,9 km/h (3 Bft)
13.05.2022 19:30 16,7 C 19,4 C 55 % 1022,0 hPa 0,0 l/m 10,6 km/h (2 Bft) W-SW 248 0 min 0,7 UV-I 220 W/m 7,6 C 14,8 C 17,7 km/h (3 Bft)
13.05.2022 19:32 16,7 C 18,9 C 55 % 1022,0 hPa 0,0 l/m 6,6 km/h (2 Bft) W-SW 246 0 min 0,7 UV-I 217 W/m 7,6 C 16,6 C 11,3 km/h (2 Bft)
13.05.2022 19:34 16,7 C 18,3 C 55 % 1022,0 hPa 0,0 l/m 8,3 km/h (2 Bft) SW 224 0 min 0,7 UV-I 204 W/m 7,6 C 15,7 C 12,9 km/h (3 Bft)
13.05.2022 19:36 16,6 C 17,8 C 54 % 1022,1 hPa 0,0 l/m 10,5 km/h (2 Bft) W 274 0 min 0,6 UV-I 186 W/m 7,3 C 14,7 C 16,1 km/h (3 Bft)
13.05.2022 19:38 16,6 C 17,2 C 55 % 1022,0 hPa 0,0 l/m 7,9 km/h (2 Bft) SW 225 0 min 0,6 UV-I 175 W/m 7,5 C 15,8 C 14,5 km/h (3 Bft)
13.05.2022 19:40 16,4 C 16,7 C 55 % 1022,0 hPa 0,0 l/m 8,6 km/h (2 Bft) SW 233 0 min 0,6 UV-I 167 W/m 7,3 C 15,3 C 12,9 km/h (3 Bft)
13.05.2022 19:42 16,4 C 16,7 C 55 % 1022,0 hPa 0,0 l/m 8,5 km/h (2 Bft) S-SW 210 0 min 0,6 UV-I 156 W/m 7,3 C 15,3 C 16,1 km/h (3 Bft)
13.05.2022 19:44 16,4 C 16,7 C 54 % 1022,0 hPa 0,0 l/m 7,1 km/h (2 Bft) W-SW 256 0 min 0,5 UV-I 145 W/m 7,1 C 16,0 C 14,5 km/h (3 Bft)
13.05.2022 19:46 16,4 C 16,7 C 54 % 1022,0 hPa 0,0 l/m 8,3 km/h (2 Bft) SW 232 0 min 0,5 UV-I 142 W/m 7,1 C 15,4 C 16,1 km/h (3 Bft)
13.05.2022 19:48 16,3 C 16,7 C 54 % 1022,0 hPa 0,0 l/m 6,1 km/h (2 Bft) W 267 0 min 0,5 UV-I 141 W/m 7,0 C 16,3 C 12,9 km/h (3 Bft)
13.05.2022 19:50 16,3 C 16,1 C 55 % 1022,1 hPa 0,0 l/m 5,9 km/h (2 Bft) SW 221 0 min 0,5 UV-I 127 W/m 7,2 C 16,3 C 12,9 km/h (3 Bft)
13.05.2022 19:52 16,2 C 16,1 C 55 % 1022,0 hPa 0,0 l/m 6,0 km/h (2 Bft) SW 232 0 min 0,3 UV-I 117 W/m 7,2 C 16,2 C 12,9 km/h (3 Bft)
13.05.2022 19:54 16,2 C 15,6 C 55 % 1022,2 hPa 0,0 l/m 8,5 km/h (2 Bft) SW 234 0 min 0,0 UV-I 108 W/m 7,2 C 15,1 C 14,5 km/h (3 Bft)
13.05.2022 19:56 16,0 C 15,0 C 55 % 1022,2 hPa 0,0 l/m 5,9 km/h (2 Bft) S-SW 213 0 min 0,0 UV-I 100 W/m 7,0 C 16,0 C 12,9 km/h (3 Bft)
13.05.2022 19:58 16,0 C 15,0 C 56 % 1022,1 hPa 0,0 l/m 3,2 km/h (1 Bft) SW 216 0 min 0,0 UV-I 105 W/m 7,2 C 16,0 C 4,8 km/h (1 Bft)
13.05.2022 20:00 15,9 C 15,0 C 57 % 1022,1 hPa 0,0 l/m 5,3 km/h (1 Bft) W-SW 245 0 min 0,0 UV-I 104 W/m 7,4 C 15,9 C 11,3 km/h (2 Bft)
13.05.2022 20:02 15,8 C 14,4 C 57 % 1022,1 hPa 0,0 l/m 9,8 km/h (2 Bft) SW 231 0 min 0,0 UV-I 97 W/m 7,3 C 14,1 C 16,1 km/h (3 Bft)
13.05.2022 20:04 15,8 C 14,4 C 57 % 1022,1 hPa 0,0 l/m 7,2 km/h (2 Bft) W-SW 241 0 min 0,0 UV-I 90 W/m 7,3 C 15,4 C 12,9 km/h (3 Bft)
13.05.2022 20:06 15,7 C 14,4 C 58 % 1022,1 hPa 0,0 l/m 6,0 km/h (2 Bft) W 263 0 min 0,0 UV-I 85 W/m 7,5 C 15,7 C 8,0 km/h (2 Bft)
13.05.2022 20:08 15,6 C 14,4 C 58 % 1022,0 hPa 0,0 l/m 5,6 km/h (1 Bft) SW 233 0 min 0,0 UV-I 70 W/m 7,4 C 15,6 C 14,5 km/h (3 Bft)
13.05.2022 20:10 15,6 C 13,9 C 58 % 1022,1 hPa 0,0 l/m 5,5 km/h (1 Bft) W-SW 239 0 min 0,0 UV-I 45 W/m 7,4 C 15,6 C 8,0 km/h (2 Bft)
13.05.2022 20:12 15,4 C 13,9 C 59 % 1022,0 hPa 0,0 l/m 4,9 km/h (1 Bft) W-SW 244 0 min 0,0 UV-I 40 W/m 7,4 C 15,4 C 8,0 km/h (2 Bft)
13.05.2022 20:14 15,3 C 13,9 C 60 % 1022,0 hPa 0,0 l/m 5,4 km/h (1 Bft) SW 232 0 min 0,0 UV-I 36 W/m 7,6 C 15,3 C 12,9 km/h (3 Bft)
13.05.2022 20:16 15,2 C 13,9 C 60 % 1022,1 hPa 0,0 l/m 6,7 km/h (2 Bft) W-SW 243 0 min 0,0 UV-I 35 W/m 7,5 C 15,0 C 14,5 km/h (3 Bft)
13.05.2022 20:18 15,1 C 13,3 C 61 % 1022,1 hPa 0,0 l/m 7,4 km/h (2 Bft) W 263 0 min 0,0 UV-I 33 W/m 7,6 C 14,5 C 12,9 km/h (3 Bft)
13.05.2022 20:20 15,0 C 13,3 C 61 % 1022,2 hPa 0,0 l/m 7,5 km/h (2 Bft) W-SW 249 0 min 0,0 UV-I 33 W/m 7,5 C 14,4 C 12,9 km/h (3 Bft)
13.05.2022 20:22 14,9 C 13,3 C 62 % 1022,3 hPa 0,0 l/m 6,1 km/h (2 Bft) W-SW 240 0 min 0,0 UV-I 31 W/m 7,7 C 14,9 C 9,7 km/h (2 Bft)
13.05.2022 20:24 14,8 C 13,3 C 62 % 1022,2 hPa 0,0 l/m 5,2 km/h (1 Bft) SW 233 0 min 0,0 UV-I 30 W/m 7,6 C 14,8 C 6,4 km/h (2 Bft)
13.05.2022 20:26 14,8 C 13,3 C 62 % 1022,3 hPa 0,0 l/m 4,7 km/h (1 Bft) W-SW 240 0 min 0,0 UV-I 28 W/m 7,6 C 14,8 C 6,4 km/h (2 Bft)
13.05.2022 20:28 14,7 C 12,8 C 62 % 1022,3 hPa 0,0 l/m 4,8 km/h (1 Bft) W-SW 242 0 min 0,0 UV-I 27 W/m 7,5 C 14,7 C 6,4 km/h (2 Bft)
13.05.2022 20:30 14,6 C 12,8 C 63 % 1022,2 hPa 0,0 l/m 3,8 km/h (1 Bft) W-SW 239 0 min 0,0 UV-I 26 W/m 7,6 C 14,6 C 6,4 km/h (2 Bft)
13.05.2022 20:32 14,5 C 12,8 C 63 % 1022,2 hPa 0,0 l/m 4,6 km/h (1 Bft) W-SW 237 0 min 0,0 UV-I 25 W/m 7,5 C 14,5 C 6,4 km/h (2 Bft)
13.05.2022 20:34 14,4 C 12,2 C 63 % 1022,3 hPa 0,0 l/m 4,4 km/h (1 Bft) W-SW 244 0 min 0,0 UV-I 25 W/m 7,4 C 14,4 C 6,4 km/h (2 Bft)
13.05.2022 20:36 14,4 C 12,2 C 63 % 1022,3 hPa 0,0 l/m 5,9 km/h (2 Bft) W-SW 254 0 min 0,0 UV-I 24 W/m 7,4 C 14,4 C 8,0 km/h (2 Bft)
13.05.2022 20:38 14,4 C 12,2 C 64 % 1022,3 hPa 0,0 l/m 7,1 km/h (2 Bft) W 259 0 min 0,0 UV-I 22 W/m 7,7 C 14,0 C 11,3 km/h (2 Bft)
13.05.2022 20:40 14,4 C 12,8 C 64 % 1022,4 hPa 0,0 l/m 8,4 km/h (2 Bft) W 264 0 min 0,0 UV-I 21 W/m 7,7 C 13,3 C 14,5 km/h (3 Bft)
13.05.2022 20:42 14,4 C 12,8 C 64 % 1022,4 hPa 0,0 l/m 8,8 km/h (2 Bft) W-NW 282 0 min 0,0 UV-I 19 W/m 7,7 C 13,0 C 12,9 km/h (3 Bft)
13.05.2022 20:44 14,3 C 12,8 C 64 % 1022,3 hPa 0,0 l/m 7,3 km/h (2 Bft) W-SW 254 0 min 0,0 UV-I 18 W/m 7,6 C 13,8 C 11,3 km/h (2 Bft)
13.05.2022 20:46 14,3 C 12,8 C 64 % 1022,4 hPa 0,0 l/m 8,5 km/h (2 Bft) W 259 0 min 0,0 UV-I 16 W/m 7,6 C 13,1 C 12,9 km/h (3 Bft)
13.05.2022 20:48 14,2 C 12,8 C 64 % 1022,3 hPa 0,0 l/m 8,4 km/h (2 Bft) W-SW 255 0 min 0,0 UV-I 14 W/m 7,5 C 13,0 C 12,9 km/h (3 Bft)
13.05.2022 20:50 14,1 C 12,2 C 64 % 1022,4 hPa 0,0 l/m 7,0 km/h (2 Bft) W 265 0 min 0,0 UV-I 13 W/m 7,4 C 13,7 C 12,9 km/h (3 Bft)
13.05.2022 20:52 14,1 C 12,2 C 64 % 1022,4 hPa 0,0 l/m 9,1 km/h (2 Bft) W-SW 258 0 min 0,0 UV-I 12 W/m 7,4 C 12,6 C 12,9 km/h (3 Bft)
13.05.2022 20:54 14,1 C 12,2 C 65 % 1022,4 hPa 0,0 l/m 7,3 km/h (2 Bft) W 259 0 min 0,0 UV-I 12 W/m 7,6 C 13,6 C 11,3 km/h (2 Bft)
13.05.2022 20:56 14,0 C 12,2 C 65 % 1022,4 hPa 0,0 l/m 6,4 km/h (2 Bft) W-SW 255 0 min 0,0 UV-I 11 W/m 7,5 C 14,0 C 11,3 km/h (2 Bft)
13.05.2022 20:58 13,9 C 11,7 C 65 % 1022,4 hPa 0,0 l/m 6,5 km/h (2 Bft) W 261 0 min 0,0 UV-I 11 W/m 7,4 C 13,9 C 11,3 km/h (2 Bft)
13.05.2022 21:00 13,8 C 11,7 C 65 % 1022,4 hPa 0,0 l/m 6,1 km/h (2 Bft) W 274 0 min 0,0 UV-I 9 W/m 7,3 C 13,8 C 11,3 km/h (2 Bft)
13.05.2022 21:02 13,7 C 11,7 C 66 % 1022,5 hPa 0,0 l/m 5,9 km/h (2 Bft) W 259 0 min 0,0 UV-I 8 W/m 7,5 C 13,7 C 9,7 km/h (2 Bft)
13.05.2022 21:04 13,7 C 11,1 C 66 % 1022,5 hPa 0,0 l/m 4,7 km/h (1 Bft) W-SW 258 0 min 0,0 UV-I 7 W/m 7,5 C 13,7 C 9,7 km/h (2 Bft)
13.05.2022 21:06 13,6 C 11,1 C 66 % 1022,5 hPa 0,0 l/m 4,1 km/h (1 Bft) W-SW 257 0 min 0,0 UV-I 6 W/m 7,4 C 13,6 C 6,4 km/h (2 Bft)
13.05.2022 21:08 13,4 C 10,6 C 67 % 1022,5 hPa 0,0 l/m 3,4 km/h (1 Bft) W 261 0 min 0,0 UV-I 5 W/m 7,4 C 13,4 C 9,7 km/h (2 Bft)
13.05.2022 21:10 13,1 C 10,6 C 68 % 1022,6 hPa 0,0 l/m 3,0 km/h (1 Bft) W 261 0 min 0,0 UV-I 5 W/m 7,3 C 13,1 C 4,8 km/h (1 Bft)
13.05.2022 21:12 12,8 C 10,0 C 69 % 1022,6 hPa 0,0 l/m 2,2 km/h (1 Bft) W 261 0 min 0,0 UV-I 1 W/m 7,3 C 12,8 C 4,8 km/h (1 Bft)
13.05.2022 21:14 12,6 C 10,0 C 70 % 1022,6 hPa 0,0 l/m 2,7 km/h (1 Bft) W 261 0 min 0,0 UV-I 0 W/m 7,3 C 12,6 C 4,8 km/h (1 Bft)
13.05.2022 21:16 12,4 C 9,4 C 70 % 1022,6 hPa 0,0 l/m 2,7 km/h (1 Bft) W 261 0 min 0,0 UV-I 0 W/m 7,1 C 12,4 C 4,8 km/h (1 Bft)
13.05.2022 21:18 12,3 C 8,9 C 71 % 1022,6 hPa 0,0 l/m 2,6 km/h (1 Bft) W 261 0 min 0,0 UV-I 0 W/m 7,2 C 12,3 C 4,8 km/h (1 Bft)
13.05.2022 21:20 12,3 C 8,9 C 71 % 1022,6 hPa 0,0 l/m 2,2 km/h (1 Bft) W 261 0 min 0,0 UV-I 0 W/m 7,2 C 12,3 C 4,8 km/h (1 Bft)
13.05.2022 21:22 12,1 C 8,9 C 71 % 1022,6 hPa 0,0 l/m 1,6 km/h (1 Bft) W 261 0 min 0,0 UV-I 0 W/m 7,0 C 12,1 C 3,2 km/h (1 Bft)
13.05.2022 21:24 11,9 C 8,9 C 72 % 1022,6 hPa 0,0 l/m 1,8 km/h (1 Bft) W 261 0 min 0,0 UV-I 0 W/m 7,0 C 11,9 C 3,2 km/h (1 Bft)
13.05.2022 21:26 11,8 C 8,3 C 73 % 1022,7 hPa 0,0 l/m 1,8 km/h (1 Bft) W 261 0 min 0,0 UV-I 0 W/m 7,1 C 11,8 C 3,2 km/h (1 Bft)
13.05.2022 21:28 11,6 C 8,3 C 73 % 1022,8 hPa 0,0 l/m 1,7 km/h (1 Bft) W 261 0 min 0,0 UV-I 0 W/m 6,9 C 11,6 C 3,2 km/h (1 Bft)
13.05.2022 21:30 11,6 C 8,3 C 73 % 1022,8 hPa 0,0 l/m 1,7 km/h (1 Bft) W 261 0 min 0,0 UV-I 0 W/m 6,9 C 11,6 C 3,2 km/h (1 Bft)
13.05.2022 21:32 11,7 C 8,3 C 73 % 1022,8 hPa 0,0 l/m 2,4 km/h (1 Bft) W 261 0 min 0,0 UV-I 0 W/m 7,0 C 11,7 C 3,2 km/h (1 Bft)
13.05.2022 21:34 11,7 C 8,3 C 73 % 1022,7 hPa 0,0 l/m 2,1 km/h (1 Bft) W 261 0 min 0,0 UV-I 0 W/m 7,0 C 11,7 C 3,2 km/h (1 Bft)
13.05.2022 21:36 11,6 C 8,3 C 73 % 1022,9 hPa 0,0 l/m 2,2 km/h (1 Bft) W 261 0 min 0,0 UV-I 0 W/m 6,9 C 11,6 C 3,2 km/h (1 Bft)
13.05.2022 21:38 11,4 C 8,3 C 73 % 1022,9 hPa 0,0 l/m 1,8 km/h (1 Bft) W 261 0 min 0,0 UV-I 0 W/m 6,7 C 11,4 C 3,2 km/h (1 Bft)
13.05.2022 21:40 11,4 C 7,8 C 73 % 1023,0 hPa 0,0 l/m 1,3 km/h (1 Bft) W 261 0 min 0,0 UV-I 0 W/m 6,7 C 11,4 C 1,6 km/h (1 Bft)
13.05.2022 21:42 11,1 C 7,2 C 74 % 1022,9 hPa 0,0 l/m 0,9 km/h (0 Bft) W 261 0 min 0,0 UV-I 0 W/m 6,6 C 11,1 C 1,6 km/h (1 Bft)
13.05.2022 21:44 11,0 C 7,2 C 75 % 1022,9 hPa 0,0 l/m 1,4 km/h (1 Bft) W 261 0 min 0,0 UV-I 0 W/m 6,7 C 11,0 C 3,2 km/h (1 Bft)
13.05.2022 21:46 11,0 C 7,8 C 75 % 1022,9 hPa 0,0 l/m 2,2 km/h (1 Bft) W 261 0 min 0,0 UV-I 0 W/m 6,7 C 11,0 C 3,2 km/h (1 Bft)
13.05.2022 21:48 10,9 C 7,8 C 75 % 1022,9 hPa 0,0 l/m 2,3 km/h (1 Bft) W 261 0 min 0,0 UV-I 0 W/m 6,6 C 10,9 C 3,2 km/h (1 Bft)
13.05.2022 21:50 10,9 C 7,8 C 75 % 1022,9 hPa 0,0 l/m 3,0 km/h (1 Bft) W 261 0 min 0,0 UV-I 0 W/m 6,6 C 10,9 C 4,8 km/h (1 Bft)
13.05.2022 21:52 10,9 C 7,8 C 75 % 1022,9 hPa 0,0 l/m 2,4 km/h (1 Bft) W 261 0 min 0,0 UV-I 0 W/m 6,6 C 10,9 C 3,2 km/h (1 Bft)
13.05.2022 21:54 10,9 C 7,8 C 75 % 1023,0 hPa 0,0 l/m 3,3 km/h (1 Bft) W 261 0 min 0,0 UV-I 0 W/m 6,6 C 10,9 C 4,8 km/h (1 Bft)
13.05.2022 21:56 11,1 C 7,8 C 75 % 1023,0 hPa 0,0 l/m 3,1 km/h (1 Bft) W 261 0 min 0,0 UV-I 0 W/m 6,8 C 11,1 C 4,8 km/h (1 Bft)
13.05.2022 21:58 11,1 C 7,8 C 74 % 1023,0 hPa 0,0 l/m 0,0 km/h (0 Bft) W 261 0 min 0,0 UV-I 0 W/m 6,6 C 11,1 C 1,6 km/h (1 Bft)
13.05.2022 22:00 10,9 C 7,8 C 75 % 1023,0 hPa 0,0 l/m 0,0 km/h (0 Bft) W 261 0 min 0,0 UV-I 0 W/m 6,6 C 10,9 C 0,0 km/h (0 Bft)
13.05.2022 22:02 10,9 C 7,8 C 75 % 1023,0 hPa 0,0 l/m 0,0 km/h (0 Bft) W 261 0 min 0,0 UV-I 0 W/m 6,6 C 10,9 C 0,0 km/h (0 Bft)
13.05.2022 22:04 10,9 C 7,8 C 75 % 1022,9 hPa 0,0 l/m 0,0 km/h (0 Bft) W 261 0 min 0,0 UV-I 0 W/m 6,6 C 10,9 C 0,0 km/h (0 Bft)
13.05.2022 22:06 11,1 C 7,8 C 75 % 1023,1 hPa 0,0 l/m 0,0 km/h (0 Bft) W 261 0 min 0,0 UV-I 0 W/m 6,8 C 11,1 C 0,0 km/h (0 Bft)
13.05.2022 22:08 10,9 C 7,8 C 75 % 1023,1 hPa 0,0 l/m 0,0 km/h (0 Bft) W 261 0 min 0,0 UV-I 0 W/m 6,6 C 10,9 C 0,0 km/h (0 Bft)
13.05.2022 22:10 10,8 C 7,2 C 75 % 1023,1 hPa 0,0 l/m 0,0 km/h (0 Bft) W 261 0 min 0,0 UV-I 0 W/m 6,5 C 10,8 C 0,0 km/h (0 Bft)
13.05.2022 22:12 10,8 C 7,2 C 75 % 1023,1 hPa 0,0 l/m 0,0 km/h (0 Bft) W 261 0 min 0,0 UV-I 0 W/m 6,5 C 10,8 C 0,0 km/h (0 Bft)
13.05.2022 22:14 10,7 C 7,2 C 76 % 1023,2 hPa 0,0 l/m 0,0 km/h (0 Bft) W 261 0 min 0,0 UV-I 0 W/m 6,6 C 10,7 C 0,0 km/h (0 Bft)
13.05.2022 22:16 10,7 C 7,2 C 76 % 1023,1 hPa 0,0 l/m 0,0 km/h (0 Bft) W 261 0 min 0,0 UV-I 0 W/m 6,6 C 10,7 C 0,0 km/h (0 Bft)
13.05.2022 22:18 10,5 C 7,2 C 76 % 1023,1 hPa 0,0 l/m 0,0 km/h (0 Bft) W 261 0 min 0,0 UV-I 0 W/m 6,5 C 10,5 C 0,0 km/h (0 Bft)
13.05.2022 22:20 10,3 C 7,2 C 76 % 1023,1 hPa 0,0 l/m 0,0 km/h (0 Bft) W 261 0 min 0,0 UV-I 0 W/m 6,3 C 10,3 C 0,0 km/h (0 Bft)
13.05.2022 22:22 9,9 C 6,7 C 76 % 1023,1 hPa 0,0 l/m 0,0 km/h (0 Bft) W 261 0 min 0,0 UV-I 0 W/m 5,9 C 9,9 C 0,0 km/h (0 Bft)
13.05.2022 22:24 9,6 C 6,7 C 77 % 1023,1 hPa 0,0 l/m 0,0 km/h (0 Bft) W 261 0 min 0,0 UV-I 0 W/m 5,8 C 9,6 C 0,0 km/h (0 Bft)
13.05.2022 22:26 9,3 C 6,7 C 78 % 1023,1 hPa 0,0 l/m 0,0 km/h (0 Bft) W 261 0 min 0,0 UV-I 0 W/m 5,7 C 9,3 C 0,0 km/h (0 Bft)
13.05.2022 22:28 9,2 C 6,7 C 79 % 1023,2 hPa 0,0 l/m 0,0 km/h (0 Bft) W 261 0 min 0,0 UV-I 0 W/m 5,8 C 9,2 C 0,0 km/h (0 Bft)
13.05.2022 22:30 9,3 C 6,1 C 79 % 1023,2 hPa 0,0 l/m 0,0 km/h (0 Bft) W 261 0 min 0,0 UV-I 0 W/m 5,8 C 9,3 C 0,0 km/h (0 Bft)
13.05.2022 22:32 9,2 C 6,1 C 79 % 1023,1 hPa 0,0 l/m 0,0 km/h (0 Bft) W 261 0 min 0,0 UV-I 0 W/m 5,8 C 9,2 C 0,0 km/h (0 Bft)
13.05.2022 22:34 9,2 C 6,1 C 79 % 1023,2 hPa 0,0 l/m 0,0 km/h (0 Bft) W 261 0 min 0,0 UV-I 0 W/m 5,8 C 9,2 C 0,0 km/h (0 Bft)
13.05.2022 22:36 9,1 C 6,1 C 79 % 1023,1 hPa 0,0 l/m 0,0 km/h (0 Bft) W 261 0 min 0,0 UV-I 0 W/m 5,7 C 9,1 C 0,0 km/h (0 Bft)
13.05.2022 22:38 9,1 C 5,6 C 79 % 1023,3 hPa 0,0 l/m 0,0 km/h (0 Bft) W 261 0 min 0,0 UV-I 0 W/m 5,7 C 9,1 C 0,0 km/h (0 Bft)
13.05.2022 22:40 9,1 C 6,1 C 80 % 1023,2 hPa 0,0 l/m 0,0 km/h (0 Bft) W 261 0 min 0,0 UV-I 0 W/m 5,8 C 9,1 C 0,0 km/h (0 Bft)
13.05.2022 22:42 9,1 C 5,6 C 80 % 1023,2 hPa 0,0 l/m 0,0 km/h (0 Bft) W 261 0 min 0,0 UV-I 0 W/m 5,8 C 9,1 C 0,0 km/h (0 Bft)
13.05.2022 22:44 9,1 C 5,6 C 80 % 1023,2 hPa 0,0 l/m 0,0 km/h (0 Bft) W 261 0 min 0,0 UV-I 0 W/m 5,8 C 9,1 C 0,0 km/h (0 Bft)
13.05.2022 22:46 9,2 C 6,1 C 80 % 1023,1 hPa 0,0 l/m 0,0 km/h (0 Bft) W 261 0 min 0,0 UV-I 0 W/m 5,9 C 9,2 C 0,0 km/h (0 Bft)
13.05.2022 22:48 9,3 C 6,1 C 80 % 1023,2 hPa 0,0 l/m 0,0 km/h (0 Bft) W 261 0 min 0,0 UV-I 0 W/m 6,0 C 9,3 C 0,0 km/h (0 Bft)
13.05.2022 22:50 9,4 C 6,1 C 80 % 1023,2 hPa 0,0 l/m 0,0 km/h (0 Bft) W 261 0 min 0,0 UV-I 0 W/m 6,1 C 9,4 C 0,0 km/h (0 Bft)
13.05.2022 22:52 9,4 C 6,1 C 79 % 1023,1 hPa 0,0 l/m 0,0 km/h (0 Bft) W 261 0 min 0,0 UV-I 0 W/m 5,9 C 9,4 C 0,0 km/h (0 Bft)
13.05.2022 22:54 9,5 C 6,1 C 79 % 1023,2 hPa 0,0 l/m 0,0 km/h (0 Bft) W 261 0 min 0,0 UV-I 0 W/m 6,0 C 9,5 C 0,0 km/h (0 Bft)
13.05.2022 22:56 9,4 C 6,1 C 79 % 1023,3 hPa 0,0 l/m 0,3 km/h (0 Bft) W 261 0 min 0,0 UV-I 0 W/m 5,9 C 9,4 C 1,6 km/h (1 Bft)
13.05.2022 22:58 9,4 C 6,7 C 79 % 1023,3 hPa 0,0 l/m 0,9 km/h (0 Bft) W 261 0 min 0,0 UV-I 0 W/m 5,9 C 9,4 C 1,6 km/h (1 Bft)
13.05.2022 23:00 9,4 C 6,1 C 79 % 1023,3 hPa 0,0 l/m 0,5 km/h (0 Bft) W 261 0 min 0,0 UV-I 0 W/m 5,9 C 9,4 C 1,6 km/h (1 Bft)
13.05.2022 23:02 9,5 C 6,1 C 80 % 1023,3 hPa 0,0 l/m 0,0 km/h (0 Bft) W 261 0 min 0,0 UV-I 0 W/m 6,2 C 9,5 C 0,0 km/h (0 Bft)
13.05.2022 23:04 9,5 C 6,1 C 80 % 1023,3 hPa 0,0 l/m 0,5 km/h (0 Bft) W 261 0 min 0,0 UV-I 0 W/m 6,2 C 9,5 C 1,6 km/h (1 Bft)
13.05.2022 23:06 9,4 C 6,1 C 79 % 1023,3 hPa 0,0 l/m 1,8 km/h (1 Bft) W 261 0 min 0,0 UV-I 0 W/m 5,9 C 9,4 C 3,2 km/h (1 Bft)
13.05.2022 23:08 9,4 C 6,1 C 79 % 1023,3 hPa 0,0 l/m 2,3 km/h (1 Bft) W 261 0 min 0,0 UV-I 0 W/m 5,9 C 9,4 C 3,2 km/h (1 Bft)
13.05.2022 23:10 9,4 C 6,1 C 79 % 1023,2 hPa 0,0 l/m 1,5 km/h (1 Bft) W 261 0 min 0,0 UV-I 0 W/m 5,9 C 9,4 C 3,2 km/h (1 Bft)
13.05.2022 23:12 9,3 C 5,6 C 79 % 1023,2 hPa 0,0 l/m 0,9 km/h (0 Bft) W 261 0 min 0,0 UV-I 0 W/m 5,8 C 9,3 C 1,6 km/h (1 Bft)
13.05.2022 23:14 9,1 C 5,6 C 80 % 1023,3 hPa 0,0 l/m 1,2 km/h (1 Bft) W 261 0 min 0,0 UV-I 0 W/m 5,8 C 9,1 C 1,6 km/h (1 Bft)
13.05.2022 23:16 9,0 C 5,6 C 81 % 1023,3 hPa 0,0 l/m 0,9 km/h (0 Bft) W 261 0 min 0,0 UV-I 0 W/m 5,9 C 9,0 C 1,6 km/h (1 Bft)
13.05.2022 23:18 9,0 C 6,1 C 81 % 1023,3 hPa 0,0 l/m 0,9 km/h (0 Bft) W 261 0 min 0,0 UV-I 0 W/m 5,9 C 9,0 C 1,6 km/h (1 Bft)
13.05.2022 23:20 9,0 C 6,1 C 81 % 1023,3 hPa 0,0 l/m 2,3 km/h (1 Bft) W 261 0 min 0,0 UV-I 0 W/m 5,9 C 9,0 C 4,8 km/h (1 Bft)
13.05.2022 23:22 9,0 C 6,1 C 81 % 1023,3 hPa 0,0 l/m 2,5 km/h (1 Bft) W 261 0 min 0,0 UV-I 0 W/m 5,9 C 9,0 C 3,2 km/h (1 Bft)
13.05.2022 23:24 8,9 C 5,6 C 81 % 1023,3 hPa 0,0 l/m 2,3 km/h (1 Bft) W 261 0 min 0,0 UV-I 0 W/m 5,8 C 8,9 C 3,2 km/h (1 Bft)
13.05.2022 23:26 8,7 C 5,6 C 80 % 1023,2 hPa 0,0 l/m 2,3 km/h (1 Bft) W 261 0 min 0,0 UV-I 0 W/m 5,4 C 8,7 C 3,2 km/h (1 Bft)
13.05.2022 23:28 8,4 C 5,6 C 81 % 1023,2 hPa 0,0 l/m 2,8 km/h (1 Bft) W 261 0 min 0,0 UV-I 0 W/m 5,3 C 8,4 C 4,8 km/h (1 Bft)
13.05.2022 23:30 8,3 C 5,6 C 81 % 1023,2 hPa 0,0 l/m 2,4 km/h (1 Bft) W 261 0 min 0,0 UV-I 0 W/m 5,2 C 8,3 C 4,8 km/h (1 Bft)
13.05.2022 23:32 8,3 C 5,0 C 82 % 1023,2 hPa 0,0 l/m 2,3 km/h (1 Bft) W 261 0 min 0,0 UV-I 0 W/m 5,4 C 8,3 C 4,8 km/h (1 Bft)
13.05.2022 23:34 8,2 C 5,0 C 82 % 1023,2 hPa 0,0 l/m 2,5 km/h (1 Bft) W 261 0 min 0,0 UV-I 0 W/m 5,3 C 8,2 C 3,2 km/h (1 Bft)
13.05.2022 23:36 8,1 C 5,0 C 82 % 1023,3 hPa 0,0 l/m 2,4 km/h (1 Bft) W 261 0 min 0,0 UV-I 0 W/m 5,2 C 8,1 C 3,2 km/h (1 Bft)
13.05.2022 23:38 8,1 C 5,0 C 82 % 1023,2 hPa 0,0 l/m 2,0 km/h (1 Bft) W 261 0 min 0,0 UV-I 0 W/m 5,2 C 8,1 C 3,2 km/h (1 Bft)
13.05.2022 23:40 8,1 C 5,0 C 83 % 1023,3 hPa 0,0 l/m 2,4 km/h (1 Bft) W 261 0 min 0,0 UV-I 0 W/m 5,4 C 8,1 C 4,8 km/h (1 Bft)
13.05.2022 23:42 8,1 C 5,0 C 83 % 1023,3 hPa 0,0 l/m 3,1 km/h (1 Bft) W 261 0 min 0,0 UV-I 0 W/m 5,4 C 8,1 C 4,8 km/h (1 Bft)
13.05.2022 23:44 8,1 C 5,0 C 83 % 1023,2 hPa 0,0 l/m 2,4 km/h (1 Bft) W 261 0 min 0,0 UV-I 0 W/m 5,4 C 8,1 C 3,2 km/h (1 Bft)
13.05.2022 23:46 8,1 C 5,0 C 83 % 1023,2 hPa 0,0 l/m 2,6 km/h (1 Bft) W 261 0 min 0,0 UV-I 0 W/m 5,4 C 8,1 C 4,8 km/h (1 Bft)
13.05.2022 23:48 8,1 C 5,0 C 83 % 1023,3 hPa 0,0 l/m 2,5 km/h (1 Bft) W 261 0 min 0,0 UV-I 0 W/m 5,4 C 8,1 C 4,8 km/h (1 Bft)
13.05.2022 23:50 8,2 C 5,0 C 83 % 1023,2 hPa 0,0 l/m 2,2 km/h (1 Bft) W 261 0 min 0,0 UV-I 0 W/m 5,5 C 8,2 C 3,2 km/h (1 Bft)
13.05.2022 23:52 8,1 C 5,0 C 83 % 1023,2 hPa 0,0 l/m 2,0 km/h (1 Bft) W 261 0 min 0,0 UV-I 0 W/m 5,4 C 8,1 C 3,2 km/h (1 Bft)
13.05.2022 23:54 8,1 C 5,0 C 83 % 1023,3 hPa 0,0 l/m 2,0 km/h (1 Bft) W 261 0 min 0,0 UV-I 0 W/m 5,4 C 8,1 C 3,2 km/h (1 Bft)
13.05.2022 23:56 8,2 C 5,0 C 84 % 1023,3 hPa 0,0 l/m 2,7 km/h (1 Bft) W 261 0 min 0,0 UV-I 0 W/m 5,7 C 8,2 C 4,8 km/h (1 Bft)
13.05.2022 23:58 8,4 C 5,0 C 84 % 1023,3 hPa 0,0 l/m 2,6 km/h (1 Bft) W 261 0 min 0,0 UV-I 0 W/m 5,9 C 8,4 C 4,8 km/h (1 Bft)
13.05.2022 23:59 8,4 C 5,0 C 84 % 1023,3 hPa 0,0 l/m 1,6 km/h (1 Bft) W 270 0 min 0,0 UV-I 0 W/m 5,9 C 8,4 C 3,2 km/h (1 Bft)
_ Min-Zeit 04:43 04:16 18:06 05:12 - 00:00 - - - - - 04:43 07:42 00:00
Minimum _ 4,8 C 1,7 C 49 % 1020,1 hPa - 0,0 km/h (0 Bft) - - - - - 3,0 C 4,7 C 0,0 km/h (0 Bft)
_ Max-Zeit 18:00 15:50 04:32 22:38 00:00 12:36 - - 08:42 13:12 13:12 16:38 18:02 12:36
Maximum _ 18,2 C 25,6 C 89 % 1023,3 hPa 0,0 l/m 20,8 km/h
W (4 Bft)
- - 2 min 5,9 UV-I 860 W/m 8,7 C 18,1 C 32,2 km/h
W-SW (5 Bft)
Durchschnitt _ 11,5 C 12,5 C 70 % 1021,8 hPa #0,0 l/m 6,6 km/h (2 Bft) SW - #9:38 h 3,3 UV-I 458 W/m 5,8 C 10,4 C 10,9 km/h (2 Bft)